[[{"header":{"parameterUnit":"m.s-1","parameterCategory":1,"la1":30.6,"la2":29.2853,"lo1":-89.7004,"lo2":-87.6739,"dy":0.0162,"dx":0.0183,"nx":112,"ny":82,"refTime":"2025-03-21T18:00:00:Z","depth":0,"parameterNumber":2,"parameterNumberName":"U-component_of_WINDS"},"data":[0.0,0.0,0.0,0.0,0.0,0.0,0.0,0.0,0.0,0.0,0.0,0.0,0.0,0.0,0.0,0.0,0.0,0.0,0.0,0.0,0.0,0.0,0.0,0.0,0.0,0.0,0.0,0.0,0.0,0.0,0.0,0.0,0.0,0.0,0.0,0.0,0.0,0.0,0.0,0.0,0.0,0.0,0.0,0.0,0.0,0.0,0.0,0.0,0.0,0.0,0.0,0.0,0.0,0.0,0.0,0.0,0.0,0.0,0.0,0.0,0.0,0.0,0.0,0.0,0.0,0.0,0.0,0.0,0.0,0.0,0.0,0.0,0.0,0.0,0.0,0.0,0.0,0.0,0.0,0.0,0.0,0.0,0.0,0.0,0.0,0.0,0.0,0.0,0.0,0.0,-2.9404,-2.9674,-3.0369,-3.0801,-3.08,-3.0625,-2.9846,-2.8303,0.0,0.0,0.0,0.0,0.0,0.0,0.0,0.0,0.0,0.0,0.0,0.0,0.0,0.0,0.0,0.0,0.0,0.0,0.0,0.0,0.0,0.0,0.0,0.0,0.0,0.0,0.0,0.0,0.0,0.0,0.0,0.0,0.0,0.0,0.0,0.0,0.0,0.0,0.0,0.0,0.0,0.0,0.0,0.0,0.0,0.0,0.0,0.0,0.0,0.0,0.0,0.0,0.0,0.0,0.0,0.0,0.0,0.0,0.0,0.0,0.0,0.0,0.0,0.0,0.0,0.0,0.0,0.0,0.0,0.0,0.0,0.0,0.0,0.0,0.0,0.0,0.0,0.0,0.0,0.0,0.0,0.0,0.0,0.0,0.0,0.0,0.0,0.0,0.0,0.0,0.0,0.0,0.0,0.0,0.0,0.0,0.0,0.0,0.0,0.0,0.0,0.0,0.0,0.0,-2.8962,-3.0449,-3.0729,-3.0808,-3.0798,-3.0114,-2.9269,-2.8253,0.0,0.0,0.0,0.0,0.0,0.0,0.0,0.0,0.0,0.0,0.0,0.0,0.0,0.0,0.0,0.0,0.0,0.0,0.0,0.0,0.0,0.0,0.0,0.0,0.0,0.0,0.0,0.0,0.0,0.0,0.0,0.0,0.0,0.0,0.0,0.0,0.0,0.0,0.0,0.0,0.0,0.0,0.0,0.0,0.0,0.0,0.0,0.0,0.0,0.0,0.0,0.0,0.0,0.0,0.0,0.0,0.0,0.0,0.0,0.0,0.0,0.0,0.0,0.0,0.0,0.0,0.0,0.0,0.0,0.0,0.0,0.0,0.0,0.0,0.0,0.0,0.0,0.0,0.0,0.0,0.0,0.0,0.0,0.0,0.0,0.0,0.0,0.0,0.0,0.0,0.0,0.0,0.0,0.0,0.0,0.0,0.0,0.0,0.0,0.0,0.0,0.0,0.0,-2.8651,-2.9384,-3.0667,-3.0796,-3.0801,-3.0796,-3.0428,-2.9629,-2.8279,-2.8146,0.0,0.0,0.0,0.0,0.0,0.0,0.0,0.0,0.0,0.0,0.0,0.0,0.0,0.0,0.0,0.0,0.0,0.0,0.0,0.0,0.0,0.0,0.0,0.0,0.0,0.0,0.0,0.0,0.0,0.0,0.0,0.0,0.0,0.0,0.0,0.0,0.0,0.0,0.0,0.0,0.0,0.0,0.0,0.0,0.0,0.0,0.0,0.0,0.0,0.0,0.0,0.0,0.0,0.0,0.0,0.0,0.0,0.0,0.0,0.0,0.0,0.0,0.0,0.0,0.0,0.0,0.0,0.0,0.0,0.0,0.0,0.0,0.0,0.0,0.0,0.0,0.0,0.0,0.0,0.0,0.0,0.0,0.0,0.0,0.0,0.0,0.0,0.0,0.0,0.0,0.0,0.0,0.0,0.0,0.0,0.0,0.0,0.0,0.0,0.0,0.0,0.0,-2.955,-3.0034,-3.0721,-3.0808,-3.0795,-3.0795,-3.0605,-2.9929,-2.8599,-2.8126,0.0,0.0,0.0,0.0,0.0,0.0,0.0,0.0,0.0,0.0,0.0,0.0,0.0,0.0,0.0,0.0,0.0,0.0,0.0,0.0,0.0,0.0,0.0,0.0,0.0,0.0,0.0,0.0,0.0,0.0,0.0,0.0,0.0,0.0,0.0,0.0,0.0,0.0,0.0,0.0,0.0,0.0,0.0,0.0,0.0,0.0,0.0,0.0,0.0,0.0,0.0,0.0,0.0,0.0,0.0,0.0,0.0,0.0,0.0,0.0,0.0,0.0,0.0,0.0,0.0,0.0,0.0,0.0,0.0,0.0,0.0,0.0,0.0,0.0,0.0,0.0,0.0,0.0,0.0,0.0,0.0,0.0,0.0,0.0,0.0,0.0,0.0,0.0,0.0,0.0,0.0,0.0,0.0,0.0,0.0,0.0,0.0,0.0,0.0,0.0,0.0,0.0,-2.9649,-3.0656,-3.0799,-3.0804,-3.0794,-3.0795,-3.0055,-2.9531,-2.9418,-2.7895,0.0,0.0,0.0,0.0,0.0,0.0,0.0,0.0,0.0,0.0,0.0,0.0,0.0,0.0,0.0,0.0,0.0,0.0,0.0,0.0,0.0,0.0,0.0,0.0,0.0,0.0,0.0,0.0,0.0,0.0,0.0,0.0,0.0,0.0,0.0,0.0,0.0,0.0,0.0,0.0,0.0,0.0,0.0,0.0,0.0,0.0,0.0,0.0,0.0,0.0,0.0,0.0,0.0,0.0,0.0,0.0,0.0,0.0,0.0,0.0,0.0,0.0,0.0,0.0,0.0,0.0,0.0,0.0,0.0,0.0,0.0,0.0,0.0,0.0,0.0,0.0,0.0,0.0,0.0,0.0,0.0,0.0,0.0,0.0,0.0,0.0,0.0,0.0,0.0,0.0,0.0,0.0,0.0,0.0,0.0,0.0,0.0,0.0,0.0,0.0,0.0,0.0,-2.9193,-3.0101,0.0,-3.0737,-3.0747,-3.0801,-3.0002,-2.9273,-2.8718,0.0,0.0,0.0,0.0,0.0,0.0,0.0,0.0,0.0,0.0,0.0,0.0,0.0,0.0,0.0,0.0,0.0,0.0,0.0,0.0,0.0,0.0,0.0,0.0,0.0,0.0,0.0,0.0,0.0,0.0,0.0,0.0,0.0,0.0,0.0,0.0,0.0,0.0,0.0,0.0,0.0,0.0,0.0,0.0,0.0,0.0,0.0,0.0,0.0,0.0,0.0,0.0,0.0,0.0,0.0,0.0,0.0,0.0,0.0,0.0,0.0,0.0,0.0,0.0,0.0,0.0,0.0,0.0,0.0,0.0,0.0,0.0,0.0,0.0,0.0,0.0,0.0,0.0,0.0,0.0,0.0,0.0,0.0,0.0,0.0,0.0,0.0,0.0,0.0,0.0,0.0,0.0,0.0,0.0,0.0,0.0,0.0,0.0,0.0,0.0,0.0,0.0,-2.8115,-2.9117,-3.0026,0.0,-3.0707,-3.062,-3.0384,-2.9565,-2.8809,-2.824,0.0,0.0,0.0,0.0,0.0,0.0,0.0,0.0,0.0,0.0,0.0,0.0,0.0,0.0,0.0,0.0,0.0,0.0,0.0,0.0,0.0,0.0,0.0,0.0,0.0,0.0,0.0,0.0,0.0,0.0,0.0,0.0,0.0,0.0,0.0,0.0,0.0,0.0,0.0,0.0,0.0,0.0,0.0,0.0,0.0,0.0,0.0,0.0,0.0,0.0,0.0,0.0,0.0,0.0,0.0,0.0,0.0,0.0,0.0,0.0,0.0,0.0,0.0,0.0,0.0,0.0,0.0,0.0,0.0,0.0,0.0,0.0,0.0,0.0,0.0,0.0,0.0,0.0,0.0,0.0,0.0,0.0,0.0,0.0,0.0,0.0,0.0,0.0,0.0,0.0,0.0,0.0,0.0,0.0,0.0,0.0,0.0,0.0,0.0,0.0,0.0,0.0,-2.8194,-2.9544,-3.0603,-3.0687,-3.0674,-3.0328,-2.9465,-2.8581,-2.8113,0.0,0.0,0.0,0.0,0.0,0.0,0.0,0.0,0.0,0.0,0.0,0.0,0.0,0.0,0.0,0.0,0.0,0.0,0.0,0.0,0.0,0.0,0.0,0.0,0.0,0.0,0.0,0.0,0.0,0.0,0.0,0.0,0.0,0.0,0.0,0.0,0.0,0.0,0.0,0.0,0.0,0.0,0.0,0.0,0.0,0.0,0.0,0.0,0.0,0.0,0.0,0.0,0.0,0.0,0.0,0.0,0.0,0.0,0.0,0.0,0.0,0.0,0.0,0.0,0.0,0.0,0.0,0.0,0.0,0.0,0.0,0.0,0.0,0.0,0.0,0.0,0.0,0.0,0.0,0.0,0.0,0.0,0.0,0.0,0.0,0.0,0.0,0.0,0.0,0.0,0.0,0.0,0.0,0.0,0.0,0.0,0.0,0.0,0.0,0.0,0.0,0.0,0.0,-2.8043,-2.9039,-2.9689,-2.9714,-2.9718,-2.9387,-2.854,-2.7684,-2.7213,-2.7275,0.0,0.0,0.0,0.0,0.0,0.0,0.0,0.0,0.0,0.0,0.0,0.0,0.0,0.0,0.0,0.0,0.0,0.0,0.0,0.0,0.0,0.0,0.0,0.0,0.0,0.0,0.0,0.0,0.0,0.0,0.0,0.0,0.0,0.0,0.0,0.0,0.0,0.0,0.0,0.0,0.0,0.0,0.0,0.0,0.0,0.0,0.0,0.0,0.0,0.0,0.0,0.0,0.0,0.0,0.0,0.0,0.0,0.0,0.0,0.0,0.0,0.0,0.0,0.0,0.0,0.0,0.0,0.0,0.0,0.0,0.0,0.0,0.0,0.0,0.0,0.0,0.0,0.0,0.0,0.0,0.0,0.0,0.0,0.0,0.0,0.0,0.0,0.0,0.0,0.0,0.0,0.0,0.0,0.0,0.0,0.0,0.0,0.0,0.0,0.0,0.0,0.0,-2.7478,-2.8274,-2.8773,-2.8783,-2.8783,-2.8447,-2.7616,-2.7054,-2.6644,-2.6364,0.0,0.0,0.0,0.0,0.0,0.0,0.0,0.0,0.0,0.0,0.0,0.0,0.0,0.0,0.0,0.0,0.0,0.0,0.0,0.0,0.0,0.0,0.0,0.0,0.0,0.0,0.0,0.0,0.0,0.0,0.0,0.0,0.0,0.0,0.0,0.0,0.0,0.0,0.0,0.0,0.0,0.0,0.0,0.0,0.0,0.0,0.0,0.0,0.0,0.0,0.0,0.0,0.0,0.0,0.0,0.0,0.0,0.0,0.0,0.0,0.0,0.0,0.0,0.0,0.0,0.0,0.0,0.0,0.0,0.0,0.0,0.0,0.0,0.0,0.0,0.0,0.0,0.0,0.0,0.0,0.0,0.0,0.0,0.0,0.0,0.0,0.0,0.0,0.0,0.0,0.0,0.0,0.0,0.0,0.0,0.0,0.0,0.0,0.0,0.0,0.0,0.0,-2.6683,-2.7387,-2.7875,-2.7871,-2.7875,-2.7522,-2.6667,-2.659,-2.6281,-2.5551,0.0,0.0,0.0,0.0,0.0,0.0,0.0,0.0,0.0,0.0,0.0,0.0,0.0,0.0,0.0,0.0,0.0,0.0,0.0,0.0,0.0,0.0,0.0,0.0,0.0,0.0,0.0,0.0,0.0,0.0,0.0,0.0,0.0,0.0,0.0,0.0,0.0,0.0,0.0,0.0,0.0,0.0,0.0,0.0,0.0,0.0,0.0,0.0,0.0,0.0,0.0,0.0,0.0,0.0,0.0,0.0,0.0,0.0,0.0,0.0,-3.1181,-3.0986,0.0,0.0,0.0,0.0,0.0,0.0,0.0,0.0,0.0,0.0,0.0,0.0,0.0,0.0,0.0,0.0,0.0,0.0,0.0,0.0,0.0,0.0,0.0,0.0,0.0,0.0,0.0,0.0,0.0,0.0,0.0,0.0,0.0,0.0,0.0,0.0,0.0,0.0,0.0,0.0,-2.6627,-2.6852,-2.6973,-2.6975,-2.6988,-2.6648,-2.5836,-2.5758,-2.5689,-2.5509,-2.5518,0.0,0.0,0.0,0.0,0.0,0.0,0.0,0.0,0.0,0.0,0.0,0.0,0.0,0.0,0.0,0.0,0.0,0.0,0.0,0.0,0.0,0.0,0.0,0.0,0.0,0.0,0.0,0.0,0.0,0.0,0.0,0.0,0.0,0.0,0.0,0.0,0.0,0.0,0.0,0.0,0.0,0.0,0.0,0.0,0.0,0.0,0.0,0.0,0.0,0.0,0.0,0.0,0.0,0.0,0.0,0.0,0.0,0.0,0.0,-3.0994,-3.1283,0.0,0.0,0.0,0.0,0.0,0.0,0.0,0.0,0.0,0.0,0.0,0.0,0.0,0.0,0.0,0.0,0.0,0.0,0.0,0.0,0.0,0.0,0.0,0.0,0.0,0.0,0.0,0.0,0.0,0.0,0.0,0.0,0.0,0.0,0.0,0.0,0.0,0.0,0.0,0.0,-2.5933,-2.5923,-2.5908,-2.5967,-2.5981,-2.5841,-2.5472,-2.5456,-2.5468,-2.5503,-2.5505,0.0,0.0,0.0,0.0,0.0,0.0,0.0,0.0,0.0,0.0,0.0,0.0,0.0,0.0,0.0,0.0,0.0,0.0,0.0,0.0,0.0,0.0,0.0,0.0,0.0,0.0,0.0,0.0,0.0,0.0,0.0,0.0,0.0,0.0,0.0,0.0,0.0,0.0,0.0,0.0,0.0,0.0,0.0,0.0,0.0,0.0,0.0,0.0,0.0,0.0,0.0,0.0,0.0,-2.9945,-2.9926,-2.9683,-2.9936,-2.9992,-2.9898,-3.0563,-3.1232,-3.1807,-3.134,0.0,0.0,0.0,0.0,0.0,0.0,0.0,0.0,0.0,0.0,0.0,0.0,0.0,0.0,0.0,0.0,0.0,0.0,0.0,0.0,0.0,0.0,-2.7517,-2.7517,-2.7309,-2.7027,-2.6696,0.0,0.0,0.0,0.0,0.0,0.0,0.0,0.0,0.0,0.0,0.0,-2.5354,-2.5156,-2.5043,-2.5143,-2.516,-2.5208,-2.5317,-2.5326,-2.5363,-2.5436,-2.5453,-2.546,0.0,0.0,0.0,0.0,0.0,0.0,0.0,0.0,0.0,0.0,0.0,0.0,0.0,0.0,0.0,0.0,0.0,0.0,0.0,0.0,0.0,0.0,0.0,0.0,0.0,0.0,0.0,0.0,0.0,0.0,0.0,0.0,-2.7192,-2.7446,0.0,0.0,0.0,0.0,0.0,0.0,0.0,0.0,0.0,0.0,0.0,0.0,0.0,-2.8487,-2.9392,-2.9318,-2.9382,-2.9625,-3.0905,-3.082,-2.9568,-3.0913,-3.115,-3.048,-3.0591,0.0,-3.0086,-3.0688,0.0,0.0,0.0,0.0,0.0,0.0,0.0,0.0,0.0,0.0,0.0,0.0,0.0,0.0,0.0,0.0,0.0,0.0,0.0,0.0,0.0,0.0,-2.8016,-2.8016,-2.6935,-2.6148,-2.6933,-2.6657,-2.6453,-2.7164,-2.6739,0.0,0.0,0.0,0.0,0.0,0.0,0.0,-2.5983,-2.5444,-2.4975,-2.4949,-2.4993,-2.5037,-2.5056,-2.5062,-2.5109,-2.5238,-2.5234,-2.5298,-2.5404,-2.5408,0.0,0.0,0.0,0.0,0.0,0.0,0.0,0.0,0.0,0.0,0.0,0.0,0.0,0.0,0.0,0.0,0.0,0.0,0.0,0.0,0.0,0.0,0.0,0.0,0.0,0.0,0.0,0.0,0.0,-2.7051,-2.7785,-2.7807,-2.8603,-2.9,0.0,0.0,0.0,0.0,0.0,0.0,0.0,0.0,0.0,-2.9484,-2.9666,-2.9898,-3.0191,-3.0241,-3.0105,-2.9835,-3.0477,-3.0212,-2.9127,-2.9819,-2.9925,-2.9593,-2.9593,-2.9447,-2.928,-3.035,-3.0601,-3.0311,0.0,0.0,0.0,0.0,-2.9851,-2.9664,-2.889,-2.8599,-2.8405,-2.743,0.0,0.0,0.0,0.0,0.0,0.0,0.0,-2.909,-2.8989,-2.8901,-2.8709,-2.8226,-2.7557,-2.7177,-2.7597,-2.6769,-2.6083,0.0,-2.6431,-2.6078,-2.5672,0.0,0.0,0.0,0.0,-2.5029,-2.5317,-2.4972,-2.4742,-2.479,-2.4811,-2.4861,-2.4942,-2.4936,-2.4987,-2.5086,-2.5086,-2.5115,-2.5165,-2.519,-2.5208,0.0,0.0,0.0,0.0,0.0,0.0,0.0,0.0,0.0,0.0,0.0,0.0,0.0,0.0,0.0,0.0,0.0,0.0,0.0,0.0,0.0,0.0,0.0,0.0,0.0,0.0,0.0,0.0,-2.7854,-2.8312,-2.8282,-2.8827,-2.8991,0.0,0.0,0.0,0.0,0.0,0.0,-2.9299,-2.9769,-2.9885,-2.9696,-3.0612,-3.1039,-3.0936,-3.0799,-3.0511,-3.0054,-3.0024,-2.9575,-2.8815,-2.9016,-2.8998,-2.8797,-2.8797,-2.8797,-2.8876,-2.9832,-3.0246,-3.0327,-3.0356,-3.0316,-3.0217,-3.0129,-3.0088,-2.9956,-2.9349,-2.8954,-2.8577,-2.7537,-2.6915,-2.633,-2.5124,0.0,0.0,0.0,0.0,-2.9532,-2.9399,-2.9355,-2.9188,-2.8538,-2.8213,-2.8064,-2.8064,-2.6951,-2.6097,0.0,-2.6352,-2.5882,-2.5325,0.0,0.0,0.0,0.0,-2.4768,-2.4928,-2.4686,-2.4551,-2.4629,-2.4645,-2.4689,-2.4799,-2.4788,-2.4835,-2.4915,-2.4922,-2.4935,-2.4974,-2.4974,-2.5031,-2.5113,0.0,0.0,0.0,0.0,0.0,0.0,0.0,0.0,0.0,0.0,0.0,0.0,0.0,0.0,0.0,0.0,0.0,0.0,0.0,0.0,0.0,0.0,0.0,0.0,0.0,0.0,0.0,0.0,0.0,-2.8243,-2.8338,0.0,0.0,0.0,0.0,-2.7798,-2.794,-2.8042,-2.8078,-2.8948,-2.9429,-2.9415,-3.0148,-3.079,-3.1258,-3.0283,-2.9913,-3.0194,-3.0073,-2.9582,-2.8834,-2.9594,-2.9509,-2.8797,-2.8797,-2.8797,-2.8797,-2.8876,-2.9051,-2.9243,-2.9005,-2.8713,-2.8399,-2.8065,-2.8075,-2.8217,-2.818,-2.7629,-2.706,-2.7801,-2.692,-2.5558,-2.5466,-2.6058,0.0,0.0,-2.8564,-2.9222,-2.9211,-2.92,-2.92,-2.9163,-2.8561,-2.8004,-2.8004,-2.7292,-2.6908,0.0,-2.6777,-2.5751,-2.5847,0.0,-2.5853,-2.5853,-2.5196,-2.4934,-2.5576,-2.4992,-2.45,-2.4508,-2.4517,-2.4517,-2.4525,-2.4515,-2.4582,-2.4715,-2.4723,-2.4772,-2.4902,-2.4908,-2.491,-2.4904,-2.4923,0.0,0.0,0.0,0.0,0.0,0.0,0.0,0.0,0.0,0.0,0.0,0.0,0.0,0.0,0.0,0.0,0.0,0.0,0.0,0.0,0.0,0.0,0.0,0.0,0.0,0.0,0.0,0.0,-2.8203,-2.8956,0.0,-2.8088,-2.8316,-2.8642,-2.8904,-2.85,-2.8557,-2.9251,-2.9611,-2.9786,-2.9786,-3.0527,-3.1266,-3.1949,-3.0617,-2.9988,-3.0068,-2.954,-2.8873,-2.8097,-2.8396,-2.836,-2.8079,-2.8079,-2.8079,-2.8079,-2.8079,-2.8425,-2.8982,-2.9314,-2.9418,-2.9435,-2.9741,-2.9588,-2.9106,-2.8499,-2.7747,-2.6982,-2.6405,-2.5813,-2.5305,-2.5256,-2.6172,-2.7229,-2.7379,-2.8009,-2.8658,-2.8844,-2.8879,-2.8815,-2.8489,-2.8207,-2.7994,-2.7994,-2.7329,-2.696,-2.7853,-2.6698,-2.5597,-2.5625,-2.5207,-2.4872,-2.4872,-2.4631,-2.4539,-2.4773,-2.4561,-2.4375,-2.4375,-2.4421,-2.4438,-2.4438,-2.4474,-2.4525,-2.4566,-2.4566,-2.4599,-2.4645,-2.4645,-2.4681,-2.4768,-2.4775,-2.484,0.0,0.0,0.0,0.0,0.0,0.0,0.0,0.0,0.0,0.0,0.0,0.0,0.0,0.0,0.0,0.0,0.0,0.0,0.0,0.0,0.0,0.0,0.0,0.0,0.0,0.0,-2.9097,-2.7793,-2.8723,-2.8972,-2.7675,-2.7912,-2.8354,-2.8853,-2.8319,-2.833,-2.9173,-2.9486,-2.9581,-2.9502,-3.0354,-3.1054,-3.1545,-3.0315,-2.9681,-2.9613,-2.8873,-2.8208,-2.7701,-2.7701,-2.7701,-2.7683,-2.7452,-2.747,-2.7683,-2.7394,-2.7727,-2.8466,-2.8928,-2.9232,-2.9468,-2.985,-2.9692,-2.9122,-2.7949,-2.7358,-2.689,-2.5464,-2.5172,-2.536,-2.5314,-2.623,-2.7266,-2.7079,-2.7614,-2.8272,-2.8448,-2.8504,-2.8414,-2.8099,-2.8024,-2.8024,-2.8024,-2.7575,-2.7337,-2.7915,-2.667,-2.5493,-2.5493,-2.4829,-2.4294,-2.4294,-2.4294,-2.4294,-2.4294,-2.4294,-2.4294,-2.4294,-2.4339,-2.4376,-2.4376,-2.443,-2.4465,-2.4429,-2.4716,-2.4864,-2.4837,-2.4864,-2.4907,-2.4999,-2.4746,-2.4647,-2.4769,0.0,0.0,0.0,0.0,0.0,0.0,0.0,0.0,0.0,0.0,0.0,0.0,0.0,0.0,0.0,0.0,0.0,0.0,0.0,0.0,0.0,0.0,0.0,-2.6514,-2.7528,-2.8005,-2.7011,-2.7599,-2.7725,-2.6809,-2.6571,-2.6785,-2.7469,-2.7267,-2.7315,-2.7688,-2.8447,-2.8734,-2.8495,-2.9486,-3.0036,-3.0087,-2.9261,-2.8857,-2.8857,-2.807,-2.7686,-2.7686,-2.7686,-2.7686,-2.7651,-2.6929,-2.7016,-2.7619,-2.6787,-2.6938,-2.7686,-2.7701,-2.7922,-2.8259,-2.8065,-2.8084,-2.8007,-2.645,-2.6358,-2.6678,-2.5128,-2.5127,-2.5737,-2.5725,-2.6289,-2.6912,-2.6912,-2.746,-2.8075,-2.8088,-2.8088,-2.8088,-2.8102,-2.8102,-2.8102,-2.8102,-2.8102,-2.8102,-2.8084,-2.672,-2.5538,-2.5538,-2.4874,-2.434,-2.434,-2.4331,0.0,-2.4312,-2.4303,-2.4303,-2.4303,-2.4312,-2.4294,-2.4294,-2.4358,-2.4376,-2.4331,-2.5134,-2.556,-2.5503,-2.556,-2.5588,-2.5569,-2.4829,-2.4474,-2.4534,0.0,0.0,0.0,0.0,0.0,0.0,0.0,0.0,0.0,0.0,0.0,0.0,0.0,0.0,0.0,0.0,0.0,0.0,0.0,0.0,0.0,-2.5731,-2.5805,-2.5817,-2.7013,-2.7607,-2.6841,-2.7375,-2.7704,-2.7453,-2.7856,-2.8096,-2.8004,-2.7886,-2.7766,-2.7629,-2.7842,-2.8015,-2.8117,-2.8424,-2.8921,-2.9659,-2.8392,-2.8011,-2.8531,-2.7769,-2.7405,-2.7405,-2.7405,-2.7405,-2.7405,-2.7197,-2.7215,-2.7388,-2.7151,-2.7201,-2.7421,-2.7526,-2.7686,-2.784,-2.7686,-2.7247,-2.6644,-2.6196,-2.5816,-2.5509,-2.5204,-2.5671,-2.6337,-2.6296,-2.6838,-2.7425,-2.724,-2.7354,-2.7554,-2.7757,-2.7815,-2.7855,-2.8047,-2.8102,-2.8088,-2.8037,-2.8024,-2.801,-2.795,-2.7112,-2.6401,-2.6513,-2.5847,-2.5326,-2.5326,-2.4979,0.0,-2.4743,-2.4433,-2.4228,-2.4228,-2.4219,-2.422,-2.422,-2.4284,-2.457,-2.5124,-2.5402,-2.5513,-2.5493,-2.5531,-2.5254,-2.4663,-2.5014,-2.5208,0.0,0.0,0.0,0.0,0.0,0.0,0.0,0.0,0.0,0.0,0.0,0.0,0.0,0.0,0.0,0.0,0.0,0.0,0.0,0.0,0.0,0.0,-2.5998,-2.5921,-2.6154,-2.6728,-2.6909,-2.6309,-2.6863,-2.7284,-2.7284,-2.7656,-2.8082,-2.8412,-2.8234,-2.797,-2.7651,-2.7579,-2.7442,-2.7176,-2.7368,-2.7794,-2.8373,-2.7599,-2.7457,-2.7937,-2.7457,-2.725,-2.7299,-2.7299,-2.7093,-2.6735,-2.6425,-2.6272,-2.6224,-2.588,-2.6121,-2.6755,0.0,0.0,0.0,0.0,-2.7082,-2.6557,-2.6214,-2.604,-2.5932,-2.5715,-2.6205,-2.6879,-2.6849,-2.7163,-2.7496,-2.7345,-2.7266,-2.7247,-2.74,-2.743,-2.7446,-2.7592,-2.7636,-2.7622,-2.758,-2.758,-2.7565,-2.7519,-2.7141,0.0,-2.693,-2.6196,-2.5625,-2.5651,-2.5385,-2.5093,-2.4817,-2.4537,-2.4236,-2.3912,-2.386,-2.3852,-2.3852,-2.3921,0.0,0.0,0.0,-2.5166,-2.5166,-2.5166,0.0,0.0,0.0,0.0,0.0,0.0,0.0,0.0,-2.5261,-2.5252,0.0,0.0,0.0,0.0,0.0,0.0,0.0,0.0,0.0,0.0,0.0,0.0,0.0,0.0,0.0,0.0,-2.681,-2.6794,-2.6848,-2.6509,-2.613,-2.5809,-2.6351,-2.6807,-2.6832,-2.6848,-2.7348,-2.8629,-2.8323,-2.7956,-2.7643,0.0,0.0,0.0,0.0,-2.6657,-2.6691,-2.6857,-2.7022,-2.7121,-2.7054,-2.707,-2.7202,-2.7251,-2.6805,-2.5953,-2.53,-2.4981,-2.4853,-2.4052,-2.4582,-2.5979,-2.691,-2.7267,-2.7267,-2.7267,-2.7267,-2.7164,-2.6458,0.0,0.0,-2.6439,-2.6682,-2.7283,-2.7282,-2.7283,-2.7283,-2.7283,-2.7201,-2.7086,-2.7086,-2.7039,-2.6991,-2.6991,-2.6991,-2.6991,-2.6975,-2.6975,-2.6975,-2.6975,-2.6958,-2.6958,-2.6958,-2.6242,-2.5684,-2.5738,-2.5707,-2.5419,-2.474,-2.4687,-2.4391,-2.3601,0.0,0.0,-2.3523,-2.3569,-2.367,-2.388,-2.4397,-2.4682,-2.4682,-2.4682,-2.4306,-2.35,-2.3804,-2.3961,-2.389,-2.4805,-2.4924,-2.4263,-2.4502,-2.4491,0.0,0.0,0.0,0.0,0.0,0.0,0.0,0.0,0.0,0.0,0.0,0.0,0.0,0.0,0.0,-2.5933,-2.5688,-2.5586,-2.591,-2.5999,-2.6218,-2.6678,-2.7056,-2.7385,-2.7719,-2.7761,-2.7856,-2.8126,-2.8081,-2.7763,-2.7174,-2.66,-2.6298,-2.6315,-2.5886,-2.5781,-2.5999,-2.6035,-2.6071,-2.6089,0.0,0.0,-2.659,-2.6909,-2.6645,-2.5909,-2.5773,-2.5689,-2.5637,-2.487,-2.5092,-2.5979,-2.6749,-2.7073,-2.7073,-2.7073,-2.7073,-2.7039,-2.6869,-2.692,-2.7039,-2.6931,-2.6967,-2.7089,-2.725,-2.7186,0.0,-2.712,-2.7071,-2.7024,-2.7024,-2.7007,-2.6991,-2.6991,-2.6991,-2.6992,-2.6926,-2.6926,-2.6892,-2.6775,-2.6758,-2.6758,-2.6758,-2.6734,-2.6705,-2.6738,-2.635,-2.583,-2.5108,-2.5191,-2.5022,-2.4221,-2.4703,-2.4853,-2.4259,-2.4218,-2.4278,-2.4437,-2.4557,-2.4599,-2.4533,-2.4599,-2.4248,-2.3432,-2.4115,-2.4449,-2.4437,-2.4022,-2.408,-2.4606,-2.5089,-2.494,0.0,0.0,0.0,0.0,0.0,0.0,0.0,0.0,0.0,0.0,0.0,-2.6108,-2.6133,0.0,-2.6042,-2.6355,-2.5952,-2.5805,-2.6346,-2.6792,-2.6965,-2.6729,-2.6993,-2.7412,-2.7946,-2.8009,-2.8151,-2.853,-2.8561,-2.8104,-2.7046,-2.6688,-2.6249,-2.5711,-2.5503,-2.5462,-2.5596,-2.5689,-2.5762,-2.5801,-2.5961,-2.6067,-2.6105,-2.6521,-2.6066,-2.4969,-2.5159,-2.5016,-2.4681,-2.5055,-2.5414,-2.5805,-2.657,-2.6908,-2.6991,-2.6991,-2.6991,-2.6991,-2.6991,-2.6991,-2.7007,-2.7039,-2.704,-2.7024,-2.7122,-2.7089,-2.7007,-2.7039,-2.7007,-2.6959,-2.6959,-2.6909,-2.6859,-2.6859,-2.6859,-2.6842,-2.6809,-2.6792,-2.6792,-2.6708,-2.6691,-2.6691,-2.6691,-2.6775,-2.6875,-2.6925,-2.673,-2.6308,-2.5581,-2.5628,-2.5389,-2.459,-2.4851,-2.4809,-2.4064,-2.3788,-2.3628,-2.3552,-2.3678,-2.3678,-2.3519,-2.3527,-2.3365,-2.2968,-2.351,-2.3807,-2.3807,-2.3916,-2.423,-2.467,-2.5292,-2.5037,0.0,0.0,0.0,0.0,0.0,0.0,0.0,0.0,-2.4912,-2.5443,-2.6087,-2.6628,-2.6954,-2.6667,-2.6503,-2.6802,-2.64,-2.6254,-2.6791,-2.7403,-2.7446,-2.6534,-2.6974,-2.752,-2.8032,-2.8095,-2.833,-2.8928,-2.8959,-2.8472,-2.7347,-2.7017,-2.6372,-2.5307,-2.5215,-2.5192,-2.5192,-2.5346,-2.5462,-2.5505,-2.5538,-2.5575,-2.5619,-2.5902,-2.5279,-2.3999,-2.4412,-2.4083,-2.3407,-2.5023,-2.5529,-2.536,-2.6236,-2.664,-2.6737,-2.6891,-2.6942,-2.6942,-2.6942,-2.6942,-2.6958,-2.6958,-2.6958,-2.6958,-2.6975,-2.6975,-2.6958,-2.6958,-2.6909,-2.6859,-2.6859,-2.6792,-2.6691,-2.6691,-2.6691,-2.6691,-2.6691,-2.6691,-2.6691,-2.6691,-2.6691,-2.6691,-2.6691,-2.6691,-2.6742,-2.6842,-2.6859,-2.6604,-2.5936,-2.597,-2.575,-2.4951,-2.5002,-2.4796,-2.4059,-2.3405,-2.2941,-2.2706,-2.2763,-2.2734,-2.2487,-2.2501,-2.2501,-2.2501,-2.2764,-2.2976,-2.3115,-2.399,-2.4486,-2.4633,-2.529,-2.5087,-2.5026,-2.4457,-2.4307,-2.5423,-2.4877,-2.4256,0.0,0.0,-2.4562,-2.4351,-2.5027,-2.5563,-2.5313,-2.5645,-2.5984,-2.6042,-2.5959,-2.5945,-2.6001,-2.6404,-2.6637,-2.6504,-2.7676,-2.8474,-2.8369,-2.836,-2.8391,-2.8468,-2.8468,-2.8407,-2.8252,-2.7064,-2.6339,-2.6253,-2.5054,-2.4426,-2.4426,-2.4446,-2.4451,-2.4472,-2.4803,-2.4981,-2.4989,-2.48,-2.4407,-2.3918,-2.4334,-2.39,-2.3023,-2.5178,-2.5278,-2.4232,-2.5609,-2.6,-2.5828,-2.6488,-2.6725,-2.6725,-2.6725,-2.6725,-2.6758,-2.6876,-2.6825,-2.6775,-2.6958,-2.6875,-2.6758,-2.6876,-2.6825,-2.6725,-2.6725,-2.6708,-2.6691,-2.6691,-2.6691,-2.6691,-2.6691,-2.6691,-2.6691,-2.6691,-2.6691,-2.6691,-2.6691,-2.6691,-2.6708,-2.6725,-2.6725,-2.6454,-2.5726,-2.6217,-2.6335,-2.5574,-2.6082,-2.6199,-2.5517,-2.4262,-2.3471,-2.3388,-2.2859,-2.2497,-2.2405,-2.2474,-2.2501,-2.2501,-2.2542,-2.2877,-2.3528,-2.3656,-2.405,-2.4687,-2.5013,-2.5288,-2.2857,-2.3373,0.0,0.0,-2.4442,-2.465,-2.4932,-2.4899,-2.4793,-2.4638,-2.521,-2.5687,-2.5568,-2.5603,-2.573,0.0,-2.5771,-2.5674,-2.5674,-2.615,-2.6457,-2.6283,-2.7159,-2.7845,-2.8039,-2.825,-2.8411,-2.8411,-2.8411,-2.8227,-2.7842,-2.6888,-2.618,-2.578,-2.4825,-2.4302,-2.4302,-2.4302,-2.4302,-2.4302,-2.4472,-2.4335,-2.3966,-2.4097,-2.3747,-2.3031,-2.3193,-2.3012,-2.2671,-2.403,-2.4211,-2.3752,-2.4563,-2.5046,-2.5414,-2.637,-2.6691,-2.6691,-2.6691,-2.6691,-2.6708,-2.6758,-2.6742,-2.6725,-2.6792,-2.6775,-2.6708,-2.6758,-2.6742,-2.6691,-2.6691,-2.6691,-2.6691,-2.6691,-2.6691,-2.6691,-2.6691,-2.6691,-2.6691,-2.6691,-2.6691,-2.6691,-2.6691,-2.6691,-2.6691,-2.6691,-2.6691,-2.659,-2.6285,-2.6505,-2.6573,-2.6268,-2.6133,-2.5963,-2.5675,-2.4314,-2.3481,-2.3451,-2.2787,-2.238,-2.2352,-2.238,-2.2581,-2.3022,-2.264,-2.3011,-2.4185,-2.4228,-2.4635,-2.5405,-2.5954,-2.6297,-2.1419,0.0,0.0,-2.3313,-2.3838,-2.4421,-2.4749,-2.4817,-2.4858,-2.5036,-2.552,-2.5896,-2.5897,-2.5647,-2.5467,-2.5564,-2.5453,-2.5369,-2.5369,-2.5784,-2.6014,-2.5824,-2.6322,-2.6837,-2.7163,-2.7825,-2.8275,-2.8387,-2.8411,-2.8172,-2.7641,-2.6811,-2.6089,-2.5501,-2.47,-2.4276,-2.4276,-2.4276,-2.4276,-2.4276,-2.4035,-2.3697,-2.3227,-2.3236,-2.275,-2.189,-2.2199,-2.2246,-2.2211,-2.2953,-2.3114,-2.3003,-2.3648,-2.4246,-2.4913,-2.6084,-2.659,-2.6691,-2.6691,-2.6691,-2.6691,-2.6691,-2.6691,-2.6691,-2.6691,-2.6691,-2.6691,-2.6691,-2.6691,-2.6691,-2.6691,-2.6691,-2.6691,-2.6691,-2.6691,-2.6691,-2.6691,-2.6691,-2.6674,-2.6573,-2.6522,-2.6505,-2.6401,-2.6384,-2.6419,-2.6522,-2.6522,-2.6573,-2.6691,-2.6691,-2.6691,-2.6691,-2.6218,-2.5913,-2.5913,-2.4746,-2.4002,-2.4002,-2.3308,-2.2919,-2.2919,-2.2716,-2.2953,-2.3695,-2.303,-2.3398,-2.4876,-2.4919,-2.5358,-2.6142,-2.667,-2.6942,0.0,0.0,-2.1412,-2.3065,-2.309,-2.2961,-2.4063,-2.4323,-2.4503,-2.5143,-2.5626,-2.5894,-2.5914,-2.557,-2.5171,-2.4812,-2.4881,-2.5005,-2.5005,-2.5033,-2.5033,-2.5033,-2.5398,-2.5646,-2.5673,-2.6967,-2.7965,-2.8372,-2.8411,-2.8332,-2.818,-2.6925,-2.6146,-2.5986,-2.4811,-2.4187,-2.4187,-2.4187,-2.4187,-2.4187,-2.3412,-2.3031,-2.2975,-2.1997,-2.1202,-2.0627,-2.166,-2.1895,-2.1592,-2.2316,-2.2207,-2.1702,-2.3083,-2.3745,-2.4116,-2.5503,-2.6314,-2.6691,-2.6691,-2.6691,-2.6691,-2.6691,-2.6691,-2.6691,-2.6691,-2.6691,-2.6691,-2.6691,-2.6691,-2.6691,-2.6691,-2.6691,-2.6691,-2.6691,-2.6691,-2.6691,-2.6691,-2.6691,-2.6573,-2.6192,-2.6122,-2.598,-2.5615,-2.554,-2.567,-2.6052,-2.6122,-2.6263,-2.6657,-2.6691,-2.6691,-2.6691,-2.6674,-2.6657,-2.6657,-2.5981,-2.5525,-2.5525,-2.4846,-2.4423,-2.4423,-2.3763,-2.3712,-2.444,-2.3746,-2.4086,-2.5575,-2.5575,-2.5947,-2.6674,-2.6708,-2.6792,0.0,0.0,-2.1388,-2.1287,-2.2217,-2.3308,-2.3677,-2.4285,-2.4816,-2.5039,-2.4667,-2.4503,-2.5167,-2.5188,-2.5001,-2.4729,-2.4511,-2.4458,-2.4624,-2.485,-2.492,-2.4694,-2.4978,0.0,0.0,0.0,0.0,-2.6938,-2.6938,-2.6788,-2.6348,-2.5779,-2.5252,-2.482,-2.4329,-2.4082,-2.4082,-2.4082,-2.3853,-2.3396,-2.2245,-2.166,-2.1664,-2.0864,-2.0382,-2.02,-2.0555,-2.063,-2.052,-2.0768,-2.0998,-2.1228,-2.1931,-2.2818,-2.3816,-2.479,-2.5549,-2.6156,-2.6504,-2.6623,-2.6623,-2.6589,-2.6572,-2.6572,-2.6623,-2.6623,-2.664,-2.6691,-2.6691,-2.6691,-2.6691,-2.6505,-2.6298,-2.6298,-2.6104,-2.5908,-2.5908,-2.5908,-2.5854,-2.5687,-2.5649,-2.5559,-2.5335,-2.5297,-2.5354,-2.5486,-2.607,-2.6539,-2.6674,-2.6691,-2.6691,-2.6691,-2.647,-2.6298,-2.6298,-2.563,-2.5196,-2.5196,-2.4755,-2.4491,-2.4491,-2.4254,-2.4491,-2.522,-2.416,-2.4348,-2.5861,-2.5069,-2.5201,-2.6244,-2.628,-2.6332,-1.7805,-1.9379,-2.0926,-2.058,-2.159,-2.2684,-2.2672,-2.3187,-2.3827,-2.4551,-2.3606,-2.2892,-2.3512,-2.3624,-2.3824,-2.44,-2.4252,-2.4147,-2.4334,-2.4549,-2.4607,-2.4392,-2.4549,-2.4778,0.0,0.0,0.0,-2.6146,-2.6213,-2.6028,-2.5628,-2.5077,-2.4573,-2.4143,-2.3852,-2.3689,-2.3689,-2.3613,-2.3101,-2.2168,-2.1288,-2.076,-2.0521,-2.0098,-1.9884,-1.9884,-1.9884,-1.9884,-1.9884,-1.9884,-2.0159,-2.0585,-2.1033,-2.2025,-2.3248,-2.3973,-2.4814,-2.5668,-2.6137,-2.6313,-2.6278,-2.61,-2.6046,-2.603,-2.6083,-2.6101,-2.6103,-2.6157,-2.621,-2.621,-2.6176,-2.5998,-2.5852,-2.5799,-2.558,-2.5392,-2.5392,-2.5392,-2.5351,-2.5141,-2.5118,-2.504,-2.4808,-2.4891,-2.4989,-2.4989,-2.5654,-2.6158,-2.6158,-2.6158,-2.6176,-2.6228,-2.6015,-2.5854,-2.5872,-2.5425,-2.5127,-2.5127,-2.4893,-2.4797,-2.4962,-2.458,-2.478,-2.5648,-2.4459,-2.4463,-2.5707,-2.4941,-2.4957,-2.5707,-2.5762,-2.5783,-1.6782,-1.8353,-1.9738,-2.0697,-2.0908,-2.0963,-2.1079,-2.1094,-2.1609,-2.3445,-2.2378,-2.1082,0.0,0.0,-2.1819,-2.3709,-2.3996,-2.4008,-2.406,-2.405,-2.4054,0.0,0.0,0.0,0.0,0.0,0.0,-2.5999,0.0,-2.6024,-2.5861,-2.477,-2.4069,-2.3918,-2.3357,-2.3046,-2.3002,-2.2736,-2.1959,-2.0669,-2.0639,-2.0299,-1.9708,-1.9708,-1.9708,-1.9708,-1.9708,-1.9708,-1.9708,-1.9708,-1.9723,-1.9813,-2.0434,-2.1402,-2.2499,-2.3154,-2.4135,-2.5202,-2.5594,-2.5742,-2.5705,-2.5297,-2.5182,-2.5182,-2.5182,-2.5182,-2.5202,-2.5202,-2.5294,-2.5368,-2.5221,-2.5275,-2.5329,-2.5202,-2.5163,-2.5144,-2.5144,-2.5144,-2.5028,-2.4628,-2.4563,-2.4436,-2.4051,-2.4307,-2.4542,-2.4542,-2.4871,-2.5144,-2.5202,-2.5202,-2.524,-2.5387,-2.5368,-2.5387,-2.5446,-2.5406,-2.5349,-2.5349,-2.5256,-2.5373,-2.576,-2.4726,-2.4657,-2.5744,-2.4673,-2.4451,-2.5163,-2.5144,-2.5144,-2.5163,-2.5163,-2.5163,-1.5751,-1.6468,-1.6877,-1.7116,-1.7173,-1.7609,-1.9271,-1.9647,-1.977,-2.026,-1.9965,-1.9802,0.0,0.0,0.0,-2.2711,-2.2756,0.0,-2.3492,-2.3583,0.0,-2.3582,0.0,-2.4083,-2.4083,-2.4083,0.0,0.0,-2.465,-2.4421,-2.3926,-2.358,-2.3176,-2.2738,-2.2478,-2.217,-2.1768,-2.0769,-2.0249,-2.0255,-1.9752,-1.9579,-1.9708,-1.9708,-1.9708,-1.9708,-1.9708,-1.9708,-1.9708,-1.9708,-1.9989,-2.0449,-2.0628,-2.1488,-2.2677,-2.3139,-2.3847,-2.4538,-2.4655,-2.4902,-2.5179,-2.504,-2.4981,-2.4985,-2.5028,-2.5047,-2.5067,-2.5182,-2.5221,-2.524,-2.5221,-2.5005,-2.4803,-2.4748,-2.4522,-2.4307,-2.4307,-2.4307,-2.4245,-2.4042,-2.3915,-2.3831,-2.3717,-2.3788,-2.3837,-2.3837,-2.3943,-2.4287,-2.5105,-2.5202,-2.5221,-2.524,-2.4985,-2.4823,-2.4827,-2.4808,-2.4803,-2.4803,-2.5047,-2.524,-2.5354,-2.5064,-2.5064,-2.5354,-2.4677,-2.442,-2.4597,-2.4302,-2.4302,-2.4612,-2.4708,-2.4748,-1.5388,-1.5793,-1.5813,-1.5807,-1.5781,-1.6115,-1.7381,-1.7658,-1.7927,-1.8913,-1.9104,0.0,0.0,0.0,0.0,0.0,0.0,0.0,-2.324,-2.3201,-2.3125,0.0,-2.3641,0.0,-2.4083,-2.4083,-2.4083,0.0,-2.4083,-2.3939,-2.36,-2.3093,-2.2525,-2.1976,-2.1582,-2.1096,-2.0478,-1.9746,-1.9409,-1.941,-1.9199,-1.9232,-1.9453,-1.9636,-1.9708,-1.9708,-1.9708,-1.9872,-2.0109,-1.9828,-2.0094,-2.0703,-2.0703,-2.1335,-2.2319,-2.2839,-2.3437,-2.3994,-2.3994,-2.4168,-2.4384,-2.4343,-2.4338,-2.4338,-2.4384,-2.4405,-2.4389,-2.4471,-2.4532,-2.4572,-2.4511,-2.4364,-2.423,-2.4173,-2.3979,-2.3818,-2.3818,-2.3818,-2.3797,-2.3739,-2.3653,-2.3595,-2.3595,-2.3595,-2.3595,-2.3595,-2.3595,-2.3815,-2.443,-2.4491,-2.4532,-2.4588,-2.4379,-2.4271,-2.4333,-2.4271,-2.4251,-2.4251,-2.4405,-2.4592,-2.4803,-2.4608,-2.4592,-2.4803,-2.4302,-2.4053,-2.4053,-2.3831,-2.3831,-2.4053,-2.4131,-2.4152,-1.5223,-1.5634,-1.5706,-1.5708,-1.5746,-1.5809,-1.5809,-1.5791,-1.6385,-1.8519,0.0,-1.8967,-1.9067,-1.9123,-1.9835,-2.188,0.0,-2.1658,-2.2891,-2.2669,-2.2543,-2.3017,-2.321,-2.348,-2.3865,-2.4024,-2.4054,-2.4054,-2.4018,-2.4005,-2.4083,-2.3027,-2.206,-2.1302,-2.0561,-1.9879,-1.9238,-1.9141,-1.8875,-1.8403,-1.8765,-1.8988,-1.9101,-1.9472,-1.9654,-1.9708,-1.9798,-2.0168,-2.0658,-2.0168,-2.0303,-2.0823,-2.0823,-2.1246,-2.1889,-2.2493,-2.3092,-2.3595,-2.3595,-2.3595,-2.3595,-2.3595,-2.3595,-2.3595,-2.3595,-2.3595,-2.3595,-2.3595,-2.3674,-2.3739,-2.3616,-2.3696,-2.3739,-2.3616,-2.3595,-2.3595,-2.3595,-2.3595,-2.3595,-2.3595,-2.3595,-2.3595,-2.3595,-2.3595,-2.3595,-2.3595,-2.3595,-2.3595,-2.3595,-2.3595,-2.3653,-2.376,-2.376,-2.3818,-2.394,-2.3839,-2.376,-2.376,-2.3674,-2.3767,-2.4198,-2.3824,-2.3803,-2.4198,-2.3824,-2.3595,-2.3595,-2.3595,-2.3595,-2.3595,-2.3595,-2.3595,-1.4356,-1.4852,-1.5161,-1.5275,-1.5559,-1.5798,-1.5798,-1.5808,0.0,0.0,0.0,-1.8378,-1.898,-1.9321,-1.9788,-2.0628,0.0,0.0,0.0,0.0,-2.1227,0.0,0.0,0.0,0.0,0.0,0.0,0.0,-2.3466,-2.3459,-2.407,-2.3001,-2.1695,-2.0152,-1.9068,-1.846,-1.8327,-1.7824,-1.7692,-1.7908,-1.7988,-1.8403,-1.9101,-1.9176,-1.9398,-1.9738,-2.0288,0.0,-2.0733,-2.1171,-2.1425,-2.153,-2.153,-2.1934,-2.2538,-2.2658,-2.3092,-2.3595,-2.3595,-2.3595,-2.3595,-2.3595,-2.3595,-2.3595,-2.3595,-2.3595,-2.3595,-2.3595,-2.3616,-2.3616,-2.3595,-2.3616,-2.3616,-2.3595,-2.3595,-2.3595,-2.3595,-2.3595,-2.3595,-2.3595,-2.3595,-2.3595,-2.3595,-2.3595,-2.3595,-2.3595,-2.3595,-2.3595,-2.3595,-2.3595,-2.3595,-2.3616,-2.3616,-2.3653,-2.3674,-2.3653,-2.3616,-2.3616,-2.3595,-2.3653,-2.3717,-2.3638,-2.3653,-2.3724,-2.3638,-2.3595,-2.3595,-2.3595,-2.3595,-2.3595,-2.3595,-2.3595,-1.4022,-1.4364,-1.4581,-1.4848,-1.5177,-1.5411,-1.5226,0.0,0.0,0.0,-1.7721,-1.8231,-1.8975,0.0,0.0,0.0,0.0,0.0,0.0,0.0,0.0,0.0,0.0,0.0,0.0,0.0,0.0,-2.3293,-2.2809,-2.2816,-2.3587,-2.1982,-2.0388,-1.8963,-1.8074,-1.763,-1.763,-1.7342,-1.7303,-1.7496,-1.77,-1.8008,-1.8436,-1.8976,-1.9294,-1.9532,-2.0168,-2.0782,-2.1313,-2.1283,-2.1652,-2.2224,-2.2224,-2.2418,-2.2733,-2.3062,-2.334,-2.3595,-2.3595,-2.3595,-2.3595,-2.3595,-2.3595,-2.3595,-2.3595,-2.3595,-2.3595,-2.3595,-2.3595,-2.3595,-2.3595,-2.3595,-2.3595,-2.3595,-2.3595,-2.3595,-2.3595,-2.3595,-2.3595,-2.3595,-2.3595,-2.3595,-2.3595,-2.3595,-2.3595,-2.3595,-2.3595,-2.3595,-2.3595,-2.3595,-2.3595,-2.3595,-2.3595,-2.3595,-2.3595,-2.3595,-2.3595,-2.3595,-2.3595,-2.3595,-2.3595,-2.3595,-2.3595,-2.3595,-2.3595,-2.3595,-2.3595,-2.3595,-2.3595,-2.3595,-2.3595,-2.3595,-1.3808,-1.4021,-1.4165,-1.4425,-1.4776,-1.5007,-1.4681,-1.5166,0.0,0.0,-1.7417,-1.812,-1.8952,0.0,0.0,0.0,0.0,0.0,0.0,0.0,0.0,0.0,0.0,0.0,0.0,0.0,0.0,-2.2162,-2.1731,-2.1776,-2.2538,-2.0769,-1.9183,-1.8061,-1.7449,-1.7136,-1.7136,-1.7136,-1.7136,-1.7136,-1.7455,-1.7726,-1.7984,-1.8776,-1.9259,-1.953,-2.0146,-2.091,-2.1722,-2.1327,-2.172,-2.2572,-2.2572,-2.2651,-2.2795,-2.3264,-2.3508,-2.3595,-2.3595,-2.3595,-2.3595,-2.3595,-2.3595,-2.3595,-2.3595,-2.3595,-2.3595,-2.3595,-2.3595,-2.3595,-2.3595,-2.3595,-2.3595,-2.3595,-2.3595,-2.3595,-2.3595,-2.3595,-2.3595,-2.3595,-2.3595,-2.3595,-2.3595,-2.3595,-2.3595,-2.3595,-2.3595,-2.3595,-2.3595,-2.3595,-2.3595,-2.3595,-2.3595,-2.3595,-2.3595,-2.3595,-2.3595,-2.3595,-2.3595,-2.3595,-2.3595,-2.3595,-2.3595,-2.3595,-2.3595,-2.3595,-2.3595,-2.3595,-2.3595,-2.3595,-2.3595,-2.3595,-1.3521,-1.3811,-1.4093,-1.4129,-1.4389,-1.4652,-1.462,0.0,0.0,-1.6669,-1.7191,-1.7794,-1.8898,-1.9067,-1.9067,-1.9183,0.0,0.0,0.0,0.0,0.0,0.0,0.0,0.0,0.0,0.0,0.0,-2.0269,-1.988,-1.9897,-2.0527,-1.9847,-1.8898,-1.7782,-1.7213,-1.6918,-1.6918,-1.6918,-1.6918,-1.6918,-1.696,-1.7494,-1.843,-1.8526,-1.9137,-2.016,-2.0803,-2.117,0.0,-2.1786,-2.2071,-2.216,-2.216,-2.2449,-2.2884,-2.2942,-2.3224,-2.3595,-2.3595,-2.3595,-2.3595,-2.3595,-2.3595,-2.3595,-2.3595,-2.3595,-2.3595,-2.3595,-2.3595,-2.3595,-2.3595,-2.3595,-2.3595,-2.3595,-2.3595,-2.3595,-2.3595,-2.3595,-2.3595,-2.3595,-2.3595,-2.3595,-2.3595,-2.3595,-2.3595,-2.3595,-2.3595,-2.3595,-2.3595,-2.3595,-2.3595,-2.3595,-2.3595,-2.3595,-2.3595,-2.3595,-2.3595,-2.3595,-2.3595,-2.3595,-2.3595,-2.3595,-2.3595,-2.3595,-2.3595,-2.3595,-2.3595,-2.3595,-2.3595,-2.3595,-2.3595,-2.3595,-1.3389,-1.3637,-1.3739,-1.3739,-1.4029,-1.4241,-1.4002,0.0,-1.5452,-1.6333,-1.7002,-1.775,-1.8898,-1.888,-1.8776,-1.9056,-1.887,-1.8787,-1.9067,0.0,0.0,0.0,0.0,0.0,0.0,0.0,-1.9279,-1.8899,-1.87,-1.8466,-1.8074,-1.8265,-1.8014,-1.7247,-1.7012,-1.6897,-1.6897,-1.6897,-1.6897,-1.6897,-1.7222,-1.7613,-1.803,-1.8721,-1.9291,-1.9738,-2.0335,-2.078,0.0,-2.1346,-2.1595,-2.1866,-2.1866,-2.1983,-2.217,-2.217,-2.2346,-2.2589,-2.2589,-2.2634,-2.2748,-2.3054,-2.3179,-2.3224,-2.3508,-2.3595,-2.3595,-2.3595,-2.3595,-2.3595,-2.3595,-2.3595,-2.3595,-2.3595,-2.3595,-2.3595,-2.3595,-2.3595,-2.3595,-2.3595,-2.3595,-2.3595,-2.3595,-2.3595,-2.3595,-2.3595,-2.3595,-2.3595,-2.3595,-2.3595,-2.3595,-2.3595,-2.3595,-2.3595,-2.3595,-2.3595,-2.3595,-2.3595,-2.3595,-2.3595,-2.3595,-2.3595,-2.3595,-2.3595,-2.3595,-2.3465,-2.3179,-2.3465,-2.3443,-2.3201,-2.3465,-2.3595,-1.3228,-1.3418,-1.3492,-1.3492,-1.3811,-1.3989,0.0,-1.4374,-1.5401,-1.615,-1.6888,-1.775,-1.8898,-1.8839,-1.8725,0.0,-1.8828,-1.8735,-1.9056,0.0,0.0,0.0,0.0,0.0,0.0,-1.8513,-1.805,-1.7849,-1.7694,-1.7378,-1.6853,-1.7133,-1.7003,-1.6386,-1.65,-1.6662,-1.6804,-1.6968,-1.7135,-1.7279,-1.7673,-1.7941,-1.8178,-1.8956,-1.9441,-1.9656,-2.0028,-2.0422,0.0,-2.0746,-2.0955,-2.1269,-2.1269,-2.1366,-2.1496,-2.1496,-2.1629,-2.1856,-2.1894,-2.1964,-2.2105,-2.2535,-2.2777,-2.2957,-2.329,-2.3486,-2.3595,-2.3595,-2.3595,-2.3595,-2.3595,-2.3595,-2.3595,-2.3595,-2.3595,-2.3595,-2.3595,-2.3595,-2.3595,-2.3595,-2.3486,-2.3443,-2.3573,-2.3341,-2.3253,-2.3551,-2.3486,-2.3443,-2.3573,-2.3595,-2.3595,-2.3595,-2.3595,-2.3595,-2.3595,-2.3595,-2.3595,-2.3595,-2.3421,-2.3334,-2.3334,-2.315,-2.3047,-2.3047,-2.3047,-2.2883,-2.2543,-2.2905,-2.2942,-2.2626,-2.3143,-2.3399,-1.3009,-1.325,-1.3492,-1.3492,-1.3811,-1.3989,0.0,-1.4374,-1.5401,-1.615,-1.6888,-1.775,-1.8898,-1.9098,-1.9098,-1.9108,-1.9098,-1.9098,-1.9108,0.0,0.0,0.0,0.0,0.0,-1.8455,-1.7574,-1.7074,-1.7217,-1.6712,0.0,-1.7254,-1.6716,-1.6012,-1.5154,-1.5579,-1.6063,-1.6604,-1.7124,-1.7674,-1.8191,-1.8191,-1.8539,-1.9192,-1.9204,-1.9559,-2.0195,-2.0207,-2.0207,0.0,-2.0207,-2.0207,-2.0233,-2.0233,-2.0535,-2.1017,-2.1017,-2.1307,-2.1734,-2.1856,-2.1894,-2.1917,-2.2058,-2.2466,-2.2889,-2.2912,-2.3224,-2.3595,-2.3595,-2.3595,-2.3595,-2.3595,-2.3595,-2.3595,-2.3595,-2.3595,-2.3595,-2.3595,-2.3595,-2.3595,-2.3595,-2.3224,-2.3046,-2.3508,-2.277,-2.2452,-2.3465,-2.3201,-2.3068,-2.353,-2.3595,-2.3595,-2.3595,-2.3595,-2.3595,-2.3595,-2.3595,-2.3595,-2.3595,-2.3031,-2.2694,-2.2694,-2.2077,-2.172,-2.172,-2.172,-2.172,-2.1697,-2.1856,-2.1917,-2.1941,-2.2603,-2.2912,-1.2953,-1.3227,-1.3517,-1.3517,-1.3792,-1.408,-1.3929,-1.4579,-1.5477,-1.6491,-1.7087,-1.775,-1.8898,-1.9108,-1.9108,-1.9108,-1.9108,0.0,0.0,0.0,0.0,0.0,0.0,0.0,0.0,0.0,-1.6615,-1.6648,-1.6488,-1.6336,-1.6208,-1.6024,-1.5814,-1.5589,-1.573,-1.587,-1.6056,-1.6209,-1.6539,-1.6973,-1.7748,-1.8238,-1.8459,-1.9245,-1.9724,-1.9939,-1.9939,-1.9939,-1.9939,-1.9939,-1.9939,-1.9939,-1.9939,-2.0029,-2.0169,-2.0169,-2.0321,-2.0547,-2.0585,-2.066,-2.082,-2.1321,-2.1609,-2.1823,-2.2221,-2.2942,-2.3595,-2.3595,-2.3595,-2.3595,-2.3595,-2.3595,-2.3508,-2.3201,-2.3113,-2.3024,-2.2657,-2.2566,-2.2566,-2.2566,-2.2452,-2.2278,-2.2074,-2.2002,-2.1836,-2.147,-2.1874,-2.2294,-2.2475,-2.2871,-2.3246,-2.3573,-2.3231,-2.3143,-2.3551,-2.3595,-2.3421,-2.3009,-2.2807,-2.2498,-2.2053,-2.1805,-2.1697,-2.1697,-2.1697,-2.1544,-2.121,-2.1582,-2.1758,-2.1771,-2.2407,-2.2474,0.0,-1.315,-1.3499,-1.3526,-1.3941,-1.4275,-1.4287,-1.5045,-1.5896,-1.6434,-1.7191,-1.7954,-1.8674,-1.8975,-1.9108,-1.9108,-1.8942,0.0,0.0,0.0,0.0,0.0,0.0,0.0,0.0,-1.7037,-1.656,-1.6423,-1.6413,-1.6278,-1.5998,-1.5949,-1.5896,-1.5766,-1.5755,-1.5867,-1.6058,-1.6268,-1.6594,-1.7037,-1.7748,-1.8095,-1.8133,-1.8821,-1.9279,-1.95,-1.95,-1.9618,0.0,-1.9798,-1.9798,-1.9798,-1.9798,-1.9798,-1.9798,-1.9798,-1.9862,-1.9926,-1.999,-2.0042,-2.0207,-2.0684,-2.0993,-2.1296,-2.187,-2.2498,-2.3017,-2.3017,-2.3017,-2.3017,-2.3017,-2.3017,-2.2965,-2.2672,-2.2603,-2.2512,-2.2175,-2.2105,-2.2105,-2.2105,-2.1955,-2.1713,-2.1372,-2.1207,-2.0952,-2.0472,-2.0905,-2.1478,-2.1938,-2.2469,-2.2951,-2.3238,-2.292,-2.2748,-2.2868,-2.2891,-2.2719,-2.2346,-2.2105,-2.1799,-2.139,-2.1124,-2.0988,-2.0988,-2.0988,-2.083,-2.0547,-2.1131,-2.1522,-2.1768,-2.2141,-2.2222,0.0,-1.2996,-1.35,-1.3619,-1.4147,-1.4596,-1.4637,-1.5618,0.0,-1.6109,-1.7177,-1.8202,-1.8236,-1.861,-1.8957,-1.8957,-1.8523,0.0,0.0,0.0,0.0,0.0,-1.8628,0.0,-1.7678,-1.7255,-1.6831,-1.6444,-1.6413,-1.6413,-1.6413,-1.6413,-1.6216,-1.5753,-1.5759,-1.5979,-1.6433,-1.6927,-1.7467,-1.7984,-1.8011,-1.8038,-1.8038,-1.8093,-1.8402,0.0,-1.8934,-1.9239,-1.9747,-1.9695,-1.9721,-1.9798,-1.9759,-1.9773,-1.9798,-1.9798,-1.9798,-1.9837,-1.9926,-1.999,-2.0016,-2.0131,-2.061,-2.1199,-2.1657,-2.1941,-2.2105,-2.2105,-2.2105,-2.2105,-2.2105,-2.2105,-2.2081,-2.2058,-2.2035,-2.2035,-2.2011,-2.1988,-2.1988,-2.1988,-2.166,-2.1315,-2.1215,-2.0444,-1.9944,-2.0235,-2.0259,-2.0642,-2.1693,-2.223,-2.2538,-2.2565,-2.2575,-2.23,-2.1687,-2.1687,-2.1673,-2.1639,-2.1113,-2.0771,-2.0721,-2.0131,-1.9798,-1.9798,-1.9849,-1.9861,-1.9861,-2.0596,-2.1235,-2.1784,-2.1882,-2.2155,-1.2974,0.0,-1.3254,-1.3848,-1.4329,-1.4723,0.0,-1.5544,-1.6079,0.0,0.0,-1.7123,-1.7545,-1.749,-1.7434,-1.7434,0.0,0.0,0.0,0.0,0.0,0.0,-1.8071,-1.7598,-1.7126,-1.7022,-1.6831,-1.6444,-1.6413,-1.6413,-1.6413,-1.6413,-1.6361,-1.6247,-1.6255,-1.6123,-1.5899,-1.5997,-1.6312,-1.6807,-1.7224,-1.7424,-1.7424,-1.7902,-1.8174,-1.8321,-1.8321,-1.8643,-1.9133,-1.8697,-1.9004,-1.9759,-1.9344,-1.9448,-1.9798,-1.9798,-1.9798,-1.9798,-1.9837,-1.9837,-1.9862,-2.0003,-2.0233,-2.0472,-2.056,-2.1296,-2.2105,-2.2105,-2.2105,-2.2105,-2.2105,-2.2105,-2.2011,-2.166,-2.1565,-2.1482,-2.1106,-2.1033,-2.1033,-2.1033,-2.0934,-2.0713,-2.0236,-2.0211,-2.002,-1.9341,-1.953,-1.9886,-2.0199,-2.0614,-2.1023,-2.1434,-2.1335,-2.1175,-2.1028,-2.1424,-2.1496,-2.1053,-2.0894,-2.0572,-2.0055,-1.9875,-1.9798,-1.9798,-2.0264,-2.049,-2.049,-2.1083,-2.143,-2.1568,-2.1999,-2.2065,-1.3297,-1.3359,-1.3623,-1.4049,-1.4397,-1.4765,-1.5109,0.0,0.0,0.0,0.0,0.0,-1.6714,-1.6844,0.0,0.0,-1.6932,0.0,0.0,0.0,0.0,-1.7896,-1.7484,-1.7048,0.0,-1.6432,-1.6148,-1.575,-1.572,-1.572,-1.572,-1.572,-1.572,-1.572,-1.572,-1.5812,-1.6011,-1.6029,-1.6164,-1.6413,-1.6684,-1.6842,-1.6842,-1.7179,-1.7446,-1.7683,-1.7683,-1.8038,-1.8563,-1.8228,-1.8471,-1.903,-1.9001,-1.9172,-1.9448,-1.9695,-1.9798,-1.9798,-1.9798,-1.9798,-1.9798,-1.9888,-2.0003,-2.0105,-2.0105,-2.0635,-2.1261,-2.1348,-2.142,-2.1468,-2.1468,-2.1468,-2.1396,-2.1131,-2.1082,-2.1021,-2.0749,-2.0699,-2.0699,-2.0699,-2.0699,-2.0504,-1.9904,-1.9977,-1.9837,-1.8956,-1.922,-1.9584,-1.984,-2.0251,-2.0628,-2.0937,-2.0855,-2.0789,-2.0759,-2.0803,-2.0695,-2.0346,-2.0346,-2.0182,-1.9837,-1.9798,-1.9924,-2.0214,-2.0528,-2.0817,-2.1069,-2.1594,-2.187,-2.1882,-2.2406,-2.2493,-1.3665,-1.3952,-1.4197,-1.4272,-1.4479,-1.4771,-1.5112,0.0,0.0,0.0,0.0,0.0,0.0,0.0,0.0,0.0,0.0,0.0,0.0,0.0,0.0,-1.727,-1.697,0.0,-1.6196,-1.5804,-1.5451,-1.5015,-1.4921,-1.4893,-1.4893,-1.4893,-1.4893,-1.4893,-1.4893,-1.5342,-1.6288,-1.6288,-1.6316,-1.6413,-1.6413,-1.6413,-1.6413,-1.6413,-1.6637,-1.7073,-1.7073,0.0,-1.7957,-1.7875,-1.7929,-1.8147,-1.8563,-1.8762,-1.8922,-1.9357,-1.954,-1.9566,-1.9643,-1.9721,-1.9798,-1.9798,-1.9888,-1.9965,-1.9965,-2.0054,-2.0207,-2.0385,-2.0524,-2.0624,-2.0624,-2.0624,-2.0624,-2.0624,-2.0624,-2.0624,-2.0624,-2.0624,-2.0624,-2.0624,-2.0624,-2.0442,-1.9949,-1.9936,-1.9768,-1.9029,-1.9334,-1.9764,-2.0065,-2.0435,-2.0671,-2.0682,-2.0738,-2.0771,-2.0707,-2.0314,-2.0062,-2.0062,-1.9899,-1.9849,-1.9924,-1.9936,-2.0239,-2.0805,-2.0893,-2.1169,-2.1606,-2.2171,-2.2406,-2.2418,-2.2895,-2.3108,-1.4409,-1.4612,-1.4609,-1.4618,-1.4882,-1.5112,-1.518,0.0,0.0,0.0,0.0,0.0,0.0,0.0,0.0,0.0,0.0,-1.6199,0.0,0.0,-1.6707,-1.6707,0.0,-1.6462,-1.5987,-1.6044,-1.5886,-1.544,-1.5081,-1.4893,-1.4893,-1.4893,-1.4893,-1.4893,-1.4893,-1.5186,-1.5788,-1.5827,-1.6,-1.6413,-1.6413,-1.6413,-1.6413,-1.6413,-1.6431,-1.6506,0.0,-1.6814,-1.7285,-1.6853,-1.7245,-1.8066,-1.7644,-1.7793,-1.8267,-1.8336,-1.8363,-1.8444,-1.8948,-1.9422,-1.9798,-1.9798,-1.9798,-1.9824,-1.9824,-1.9914,-2.0042,-2.0067,-2.0156,-2.0283,-2.0283,-2.0283,-2.0283,-2.0283,-2.0283,-2.0283,-2.0283,-2.0283,-2.0283,-2.0283,-2.0283,-2.0258,-2.0143,-2.0566,-2.0681,-2.0066,-2.0438,-2.0617,-2.0219,-2.0155,-2.013,-2.0131,-2.0486,-2.0697,-2.0706,-2.1043,-2.123,-2.123,-2.0326,-2.0024,-2.0541,-2.0566,-2.0817,-2.1383,-2.182,-2.2096,-2.2184,-2.2706,-2.2982,-2.2982,-2.3058,-2.3108,-1.4061,-1.4216,-1.4418,-1.4665,-1.4949,-1.5163,-1.4975,0.0,0.0,0.0,0.0,0.0,0.0,0.0,0.0,0.0,0.0,-1.6272,-1.6403,-1.6289,-1.6167,0.0,0.0,-1.6018,-1.5546,-1.5435,-1.5204,-1.4769,-1.4366,-1.4142,-1.4142,-1.4142,-1.4142,-1.4142,-1.4142,-1.438,-1.4872,-1.4902,-1.5254,-1.6029,-1.572,-1.573,-1.6029,-1.6029,-1.6144,-1.6413,0.0,-1.6534,-1.674,-1.6506,-1.6705,-1.719,-1.7213,-1.7368,-1.7644,-1.7984,-1.8093,-1.8147,-1.8429,-1.8883,-1.9419,-1.9713,-2.0025,-2.0352,-2.0627,-2.0742,-2.0745,-2.0455,-2.0524,-2.0604,-2.0284,-2.0438,-2.0604,-2.0284,-2.0207,-2.0297,-2.0617,-2.0681,-2.077,-2.1051,-2.1102,-2.1102,-2.1102,-2.1359,-2.1422,-2.1048,-2.1226,-2.1248,-2.0941,-2.0862,-2.0808,-2.0808,-2.1008,-2.1257,-2.1531,-2.1506,-2.1493,-2.1493,-2.1004,-2.0828,-2.1131,-2.1131,-2.1368,-2.192,-2.2184,-2.2431,-2.2732,-2.2982,-2.3108,-2.3108,-2.3108,-2.3108,-1.4008,-1.4017,-1.417,-1.447,-1.4821,-1.5043,-1.4855,0.0,0.0,0.0,0.0,0.0,0.0,0.0,0.0,-1.6095,-1.633,-1.6356,-1.6189,-1.5977,-1.5805,-1.5805,-1.5805,-1.5685,-1.5377,-1.4949,-1.4555,-1.4256,-1.3785,-1.3511,-1.3511,-1.3511,-1.3511,-1.3511,-1.3511,-1.3722,-1.4189,-1.41,-1.4538,-1.5498,-1.5098,-1.5128,-1.5527,-1.5643,-1.5914,-1.623,-1.6355,-1.6413,-1.6413,-1.6413,-1.6413,-1.6431,-1.6842,-1.7065,-1.7207,-1.7668,-1.7985,-1.8226,-1.8226,-1.8626,-1.9175,-1.9606,-2.0044,-2.0505,-2.0895,-2.1018,-2.096,-2.0514,-2.0777,-2.1001,-2.0283,-2.0462,-2.0679,-2.0233,-2.0105,-2.0284,-2.0883,-2.0998,-2.1164,-2.1697,-2.1812,-2.1812,-2.1812,-2.1914,-2.1924,-2.1688,-2.1863,-2.1933,-2.1722,-2.1681,-2.1681,-2.1681,-2.1681,-2.1907,-2.2431,-2.2121,-2.187,-2.187,-2.1631,-2.1543,-2.1681,-2.1681,-2.1945,-2.2498,-2.2498,-2.2681,-2.3108,-2.3108,-2.3108,-2.3108,-2.3108,-2.3108,-1.5142,-1.4746,-1.4101,-1.4136,-1.4435,0.0,-1.5112,-1.4923,0.0,0.0,0.0,0.0,0.0,-1.5823,-1.621,-1.5882,-1.6158,-1.627,-1.5891,0.0,-1.5805,-1.5805,-1.5805,-1.5788,-1.5762,-1.5112,-1.4675,-1.4649,-1.3939,-1.3511,-1.3511,-1.3511,-1.3511,-1.3511,-1.3511,-1.3722,-1.4189,-1.3761,-1.4022,-1.4951,-1.4922,-1.4922,-1.4981,-1.5459,-1.5711,-1.5769,-1.6202,-1.6413,-1.6413,-1.6413,-1.6413,-1.6413,-1.6431,-1.669,-1.7024,-1.7044,-1.7711,-1.8556,-1.8556,-1.8944,-1.9469,-1.9492,-1.9544,-1.9603,-1.9638,-1.9649,-1.9649,-1.9603,-2.0399,-2.1066,-2.0081,-1.9862,-1.9874,-1.9837,-1.9824,-1.9987,-2.0592,-2.0718,-2.0882,-2.1408,-2.1521,-2.1521,-2.1521,-2.1936,-2.2112,-2.1597,-2.2359,-2.2836,-2.2322,-2.2246,-2.2246,-2.2246,-2.2246,-2.2443,-2.2995,-2.3007,-2.2982,-2.2982,-2.2058,-2.1719,-2.2234,-2.2246,-2.2481,-2.3032,-2.3045,-2.3058,-2.3108,-2.3108,-2.3108,-2.3108,-2.3108,-2.3108,-1.4692,-1.4214,-1.3785,-1.4042,0.0,0.0,0.0,0.0,0.0,0.0,0.0,0.0,0.0,0.0,-1.6293,-1.6156,-1.6251,-1.6293,-1.6201,-1.5951,-1.5805,-1.5805,-1.5805,-1.5805,-1.5805,-1.5129,-1.4684,-1.4684,-1.3956,-1.3511,-1.3511,-1.3511,-1.3511,-1.3511,-1.3511,-1.3601,-1.3761,-1.3601,-1.3692,-1.4022,-1.4022,-1.4172,-1.4458,-1.4666,-1.4931,-1.5225,-1.54,-1.5459,-1.5459,-1.5459,-1.5662,-1.6,-1.6298,-1.6653,-1.7017,-1.7017,-1.7447,-1.8048,-1.8048,-1.8434,-1.901,-1.934,-1.9696,-2.0057,-2.0408,-2.0499,-2.043,-2.0091,-2.0319,-2.061,-2.0314,-2.0541,-2.0853,-2.0853,-2.0589,-2.0616,-2.1493,-2.1681,-2.1845,-2.2397,-2.2481,-2.2481,-2.2481,-2.2656,-2.2732,-2.2518,-2.2844,-2.3032,-2.2819,-2.2794,-2.2794,-2.2794,-2.2794,-2.2882,-2.3083,-2.3108,-2.3108,-2.3108,-2.2706,-2.2581,-2.2782,-2.2794,-2.2895,-2.3108,-2.3108,-2.3108,-2.3108,-2.3108,-2.3108,-2.3108,-2.3108,-2.3108,-1.4545,-1.3962,-1.3571,0.0,0.0,0.0,0.0,0.0,0.0,0.0,0.0,0.0,0.0,0.0,0.0,0.0,-1.6041,-1.592,-1.5839,-1.5405,-1.507,-1.507,-1.5284,-1.5319,-1.5106,-1.4671,-1.4272,-1.4032,-1.3501,-1.3169,-1.3169,-1.3381,-1.3511,-1.3511,-1.3511,-1.3511,-1.3511,-1.3511,-1.3511,-1.3511,-1.3511,-1.3662,-1.3971,-1.413,-1.4369,-1.4686,-1.4834,-1.4893,-1.4893,-1.4893,-1.5175,-1.5664,-1.5988,-1.6467,-1.6949,-1.7134,-1.7481,-1.79,-1.809,-1.8417,-1.8825,-1.919,-1.9573,-1.9987,-2.0352,-2.0484,-2.0385,-2.002,-2.0077,-2.0259,-2.0345,-2.0786,-2.1172,-2.1172,-2.1054,-2.1207,-2.2108,-2.2309,-2.2443,-2.2995,-2.3108,-2.3108,-2.3108,-2.3108,-2.3108,-2.3108,-2.3108,-2.3108,-2.3108,-2.3108,-2.3108,-2.3108,-2.3108,-2.3108,-2.3108,-2.3108,-2.3108,-2.3108,-2.3108,-2.3108,-2.3108,-2.3108,-2.3108,-2.3108,-2.3108,-2.3108,-2.3108,-2.3108,-2.3108,-2.3108,-2.3108,-2.3108,-1.5035,-1.4201,-1.3511,0.0,0.0,0.0,0.0,0.0,0.0,0.0,0.0,0.0,-1.5655,0.0,0.0,-1.5715,-1.5445,-1.5051,-1.4657,-1.3962,-1.3499,-1.3499,-1.4142,-1.4286,-1.3571,-1.3619,-1.3351,-1.2557,-1.2489,-1.2473,-1.2473,-1.313,-1.348,-1.348,-1.348,-1.348,-1.348,-1.348,-1.3472,-1.3472,-1.3511,-1.3511,-1.3511,-1.3971,-1.4189,-1.4219,-1.4686,-1.4893,-1.4893,-1.4893,-1.5128,-1.5496,-1.5496,-1.6015,-1.6869,-1.7386,-1.7893,-1.8371,-1.8908,-1.9098,-1.9098,-1.9108,-1.9108,-1.9108,-1.9108,-1.9108,-1.9108,-1.9108,-1.9584,-2.0107,-2.0107,-2.0297,-2.0512,-2.05,-2.1014,-2.1644,-2.2196,-2.2322,-2.2456,-2.2995,-2.3108,-2.3108,-2.3108,-2.3108,-2.3108,-2.3108,-2.3108,-2.3108,-2.3108,-2.3108,-2.3108,-2.3108,-2.3108,-2.3108,-2.3108,-2.3108,-2.3108,-2.3108,-2.3108,-2.3108,-2.3108,-2.3108,-2.3108,-2.3108,-2.3108,-2.3108,-2.3108,-2.3108,-2.3108,-2.3108,-2.3108,-2.3108,-1.493,-1.4201,0.0,0.0,0.0,0.0,0.0,0.0,0.0,0.0,0.0,-1.4867,-1.5655,0.0,0.0,-1.4848,-1.4416,-1.3967,-1.3833,-1.3644,-1.3499,-1.3499,-1.3673,-1.3745,-1.3535,-1.312,-1.2759,-1.2523,-1.2074,-1.1795,-1.1795,-1.1981,-1.2104,-1.2104,-1.2104,-1.2104,-1.2104,-1.2573,-1.2787,-1.2787,-1.326,-1.3511,-1.3511,-1.3631,-1.3722,-1.3731,-1.3842,-1.3932,-1.3932,-1.427,-1.4626,-1.5043,-1.5373,-1.6015,-1.6803,-1.6968,-1.7293,-1.775,-1.8337,-1.8539,-1.8607,-1.8975,-1.9108,-1.9108,-1.9108,-1.9108,-1.9108,-1.9108,-1.9231,-1.9396,-1.9396,-1.9792,-2.0458,-2.1402,-2.1854,-2.2221,-2.2744,-2.2857,-2.2907,-2.307,-2.3108,-2.3108,-2.3108,-2.3108,-2.3108,-2.3108,-2.3108,-2.3108,-2.3108,-2.3108,-2.3108,-2.3108,-2.3108,-2.3108,-2.3108,-2.3108,-2.3108,-2.3108,-2.3108,-2.3108,-2.3108,-2.3108,-2.3108,-2.3108,-2.3108,-2.3108,-2.3108,-2.3108,-2.3108,-2.3108,-2.3108,-2.3108,-1.494,0.0,0.0,0.0,0.0,0.0,0.0,0.0,0.0,0.0,0.0,-1.4322,-1.4812,-1.3861,0.0,-1.4034,-1.3528,-1.3025,-1.3025,-1.2769,-1.2542,-1.2542,-1.2842,-1.2866,-1.2415,-1.22,-1.1933,-1.1512,-1.1247,-1.1094,-1.1094,-1.1361,-1.1516,-1.1516,-1.1516,-1.1516,-1.1516,-1.1888,-1.2228,-1.2512,-1.2917,-1.323,-1.3511,-1.3511,-1.3511,-1.3519,-1.3673,-1.3742,-1.3781,-1.4232,-1.4616,-1.4983,-1.5263,-1.5791,-1.644,-1.6634,-1.6859,-1.7166,-1.7759,-1.81,-1.8337,-1.8674,-1.8942,-1.9108,-1.9108,-1.9108,-1.9108,-1.9108,-1.9108,-1.9108,-1.9108,-1.9584,-2.0291,-2.1101,-2.1566,-2.1892,-2.225,-2.2322,-2.2372,-2.2659,-2.2689,-2.2781,-2.3035,-2.3108,-2.3108,-2.3108,-2.3108,-2.3108,-2.3108,-2.3108,-2.3108,-2.3108,-2.3108,-2.3108,-2.3108,-2.3108,-2.3108,-2.3108,-2.3108,-2.3108,-2.3108,-2.3108,-2.3108,-2.3108,-2.3108,-2.3108,-2.3108,-2.3108,-2.3108,-2.3108,-2.3108,-2.3108,-1.5026,0.0,0.0,0.0,0.0,0.0,0.0,0.0,0.0,0.0,0.0,-1.3426,-1.3499,-1.2769,-1.2445,-1.3244,-1.2732,-1.2194,-1.2194,-1.1558,-1.1111,-1.1111,-1.1718,-1.1756,-1.0779,-1.1112,-1.0958,-0.9986,-1.0206,-1.0421,-1.0421,-1.1,-1.1329,-1.1329,-1.1329,-1.1329,-1.1329,-1.1392,-1.1703,-1.2328,-1.2389,-1.2757,-1.342,-1.3472,-1.3528,-1.3579,-1.3939,-1.4119,-1.4179,-1.4538,-1.4889,-1.5215,-1.5215,-1.5454,-1.5867,-1.6342,-1.6542,-1.6612,-1.7132,-1.7691,-1.8168,-1.8269,-1.864,-1.9042,-1.9108,-1.9108,-1.9108,-1.9108,-1.9108,-1.9108,-1.9108,-1.9551,-1.9998,-1.9998,-2.0581,-2.1092,-2.1092,-2.1092,-2.1282,-2.1896,-2.2009,-2.2206,-2.2823,-2.2975,-2.3035,-2.3078,-2.3108,-2.3108,-2.3108,-2.3108,-2.312,-2.3183,-2.3183,-2.3208,-2.3258,-2.3258,-2.3233,-2.3183,-2.3233,-2.3233,-2.3183,-2.3133,-2.3108,-2.3108,-2.3108,-2.3108,-2.3108,-2.3108,-2.3108,-2.3108,-2.3108,-2.3108,0.0,-1.4708,0.0,0.0,0.0,0.0,0.0,0.0,0.0,0.0,-1.3528,-1.2732,-1.339,-1.2328,-1.1632,-1.2445,-1.1892,-1.1372,-1.1372,-1.1223,-1.1111,-1.1111,-1.1077,-1.0966,-1.0725,-1.0435,-1.0162,-0.9907,-0.9791,-0.9702,-0.9702,-0.9856,-0.9919,-0.9919,-0.9919,-0.9919,-0.9919,-1.0446,-1.0793,-1.0944,-1.1461,-1.2074,-1.2726,-1.326,-1.3673,-1.3973,-1.4059,-1.4273,-1.4564,-1.4649,-1.4889,-1.5215,-1.5215,-1.5454,-1.5797,-1.5938,-1.5964,-1.6035,-1.6577,-1.6846,-1.7123,-1.8022,-1.8371,-1.8539,-1.8965,-1.9108,-1.9108,-1.9108,-1.9108,-1.9108,-1.9108,-1.9198,-1.933,-1.933,-2.0226,-2.1092,-2.1092,-2.1092,-2.1123,-2.1282,-2.1313,-2.1345,-2.1502,-2.197,-2.2494,-2.3005,-2.3108,-2.3108,-2.3108,-2.3108,-2.3283,-2.3766,-2.3816,-2.3991,-2.4399,-2.4424,-2.4249,-2.3841,-2.4186,-2.4268,-2.3828,-2.3346,-2.3108,-2.3108,-2.3108,-2.3108,-2.3108,-2.3108,-2.3108,-2.3108,-2.3108,-2.3108,0.0,0.0,0.0,0.0,0.0,0.0,0.0,0.0,0.0,-1.3491,-1.2842,-1.2298,-1.2321,-1.1663,-1.1223,-1.1669,-1.1372,-1.1111,-1.1111,-1.1111,-1.1063,-1.0936,-1.0803,-1.0587,-1.0334,-1.0063,-0.9853,-0.9727,-0.9594,-0.9516,-0.9516,-0.9516,-0.9516,-0.9516,-0.9516,-0.9516,-0.9516,-0.9862,-1.0174,-1.0485,-1.085,-1.1454,-1.2264,-1.3312,-1.4007,-1.4384,-1.4555,-1.4752,-1.4949,-1.5137,-1.5326,-1.5497,-1.5497,-1.5625,-1.5805,-1.5805,-1.5805,-1.5841,-1.6105,-1.6403,-1.6707,-1.7295,-1.7647,-1.793,-1.8192,-1.8496,-1.8707,-1.8707,-1.8898,-1.9108,-1.9108,-1.9108,-1.9108,-1.9108,-1.9616,-2.0128,-2.0128,-2.0128,-2.0226,-2.0549,-2.0613,-2.0837,-2.1459,-2.2113,-2.2689,-2.3047,-2.3108,-2.3108,-2.3108,-2.3346,-2.3665,-2.3966,-2.4243,-2.4506,-2.4763,-2.4439,-2.4282,-2.4374,-2.4278,-2.427,-2.4374,-2.4073,-2.3785,-2.3521,-2.3246,-2.3108,-2.3108,-2.3108,-2.3108,-2.3108,-2.3108,-2.3108,0.0,0.0,0.0,0.0,0.0,0.0,0.0,0.0,0.0,-1.2114,-1.2077,-1.1892,-1.1223,-1.1111,-1.1074,-1.1037,-1.1037,-1.1019,-1.094,-1.0969,-1.0886,-1.0581,-1.0545,-1.036,-0.9849,-0.9759,-0.9646,-0.9432,-0.942,-0.9414,-0.9446,-0.9478,-0.9484,-0.9484,-0.9516,-0.9516,-0.9516,-0.9516,-0.9766,-1.0333,-1.0453,-1.0978,-1.1872,-1.3204,-1.4037,-1.4388,-1.4672,-1.483,-1.4948,-1.5406,-1.5576,-1.5611,-1.5761,-1.5805,-1.5805,-1.5805,-1.5805,-1.5805,-1.5805,-1.6105,-1.6473,-1.6568,-1.689,-1.727,-1.7373,-1.7759,-1.8168,-1.8269,-1.8607,-1.8965,-1.9075,-1.9108,-1.9108,-1.9108,-1.9108,-1.9108,-1.9108,-1.9108,-1.9264,-1.9813,-2.0009,-2.0477,-2.1808,-2.2497,-2.2917,-2.3197,-2.3033,-2.2936,-2.3157,-2.3567,-2.3835,-2.3894,-2.4412,-2.48,-2.4888,-2.4302,-2.4186,-2.4893,-2.4406,-2.4352,-2.4926,-2.4926,-2.4707,-2.4155,-2.3547,-2.3208,-2.3108,-2.3108,-2.3108,-2.3108,-2.3108,-2.3108,0.0,0.0,0.0,0.0,0.0,0.0,0.0,0.0,-1.2114,0.0,-1.126,-1.1223,-1.1111,-1.1111,-1.1037,-1.085,-1.085,-1.0736,-1.0379,-1.0456,-1.0421,-0.9955,-0.9938,-0.9783,-0.9484,-0.9259,-0.9121,-0.9087,-0.9055,-0.9145,-0.9306,-0.9338,-0.9376,-0.9484,-0.9516,-0.9516,-0.9516,-0.9516,-0.9548,-0.9638,-1.0238,-1.0861,-1.1587,-1.2356,-1.2878,-1.3145,-1.3182,-1.3396,-1.3793,-1.4478,-1.4752,-1.4824,-1.5541,-1.5805,-1.5805,-1.5805,-1.5805,-1.5805,-1.5805,-1.5832,-1.5973,-1.6438,-1.6638,-1.6777,-1.727,-1.7451,-1.7613,-1.8168,-1.8337,-1.8506,-1.8975,-1.9108,-1.9108,-1.9108,-1.9108,-1.9108,-1.9108,-1.9108,-1.9131,-1.9231,-1.9554,-2.0268,-2.1625,-2.1778,-2.2227,-2.366,-2.2803,-2.2365,-2.3391,-2.3301,-2.3215,-2.3386,-2.4077,-2.474,-2.5199,-2.513,-2.5203,-2.549,-2.5882,-2.5945,-2.5511,-2.5485,-2.5247,-2.4687,-2.4167,-2.364,-2.3108,-2.3108,-2.3108,-2.3108,-2.3108,-2.3108,-1.5712,0.0,0.0,0.0,0.0,0.0,0.0,0.0,-1.1335,-1.085,-1.0775,-1.0812,-1.0925,-1.085,-1.0738,-1.0663,-1.0553,-1.0383,-1.0206,-1.0166,-0.9828,-0.909,-0.9017,-0.8759,-0.8165,-0.7928,-0.7854,-0.794,-0.7869,-0.8032,-0.8549,-0.8651,-0.8888,-0.9376,-0.9446,-0.9516,-0.9516,-0.9516,-0.9516,-0.9522,-1.0102,-1.0537,-1.0845,-1.1433,-1.2257,-1.3258,-1.3258,-1.3331,-1.3535,-1.3854,-1.425,-1.4645,-1.4974,-1.539,-1.5805,-1.5805,-1.5805,-1.5805,-1.5805,-1.5805,-1.5841,-1.607,-1.6132,-1.6211,-1.6421,-1.6716,-1.7019,-1.727,-1.7818,-1.8337,-1.8607,-1.8865,-1.917,-1.943,-1.9492,-1.9554,-1.9768,-1.9427,-1.9181,-1.944,-2.0165,-2.0933,-2.154,-2.1665,-2.2003,-2.3024,-2.2395,-2.2098,-2.2884,-2.308,-2.3188,-2.3281,-2.3874,-2.4354,-2.4612,-2.4636,-2.4862,-2.5391,-2.5669,-2.5706,-2.5448,-2.5436,-2.501,-2.4132,-2.4034,-2.3715,-2.3108,-2.3108,-2.3047,-2.2987,-2.2987,-2.2939,0.0,0.0,0.0,0.0,0.0,0.0,0.0,0.0,-1.0663,0.0,-1.0475,-1.0406,-1.0363,-1.0244,-1.0153,-1.0092,-0.9785,-0.9482,-0.9364,-0.9216,-0.8821,-0.7986,-0.7938,-0.7729,-0.7035,-0.6868,-0.6838,-0.695,-0.6864,-0.7018,-0.7637,-0.7934,-0.8361,-0.9011,-0.9312,-0.9478,-0.9516,-0.9516,-0.9516,-0.9522,-0.9979,-1.0232,-1.031,-1.0767,-1.1704,-1.2872,-1.2872,-1.2872,-1.2908,-1.3098,-1.3637,-1.435,-1.453,-1.5089,-1.5805,-1.5805,-1.5805,-1.5805,-1.5805,-1.5805,-1.5805,-1.5805,-1.5805,-1.5805,-1.5805,-1.607,-1.6438,-1.6568,-1.7192,-1.792,-1.8236,-1.8687,-1.9188,-1.9675,-1.9886,-2.0017,-2.0348,-1.9893,-1.9585,-2.0052,-2.0829,-2.1452,-2.1629,-2.1636,-2.1879,-2.2571,-2.1981,-2.1733,-2.2546,-2.2874,-2.2996,-2.2941,-2.3469,-2.3913,-2.4072,-2.4108,-2.4528,-2.5558,-2.5594,-2.5523,-2.5312,-2.5312,-2.4656,-2.3313,-2.3697,-2.3548,-2.2854,-2.2616,-2.2567,-2.2653,-2.258,-2.2635,0.0,0.0,0.0,0.0,0.0,0.0,0.0,0.0,-1.0519,-1.0513,-1.0368,-0.9986,-0.9226,-0.9226,-0.9263,-0.8945,-0.824,-0.7558,-0.703,-0.7119,-0.705,-0.6552,-0.6739,-0.6813,-0.6638,-0.6505,-0.6473,-0.6621,-0.6501,-0.6527,-0.6752,-0.7377,-0.7902,-0.8236,-0.8947,-0.9376,-0.9484,-0.9516,-0.9516,-0.9516,-0.9793,-1.0051,-1.0304,-1.0581,-1.0912,-1.1217,-1.1217,-1.1217,-1.1292,-1.204,-1.2849,-1.3637,-1.4314,-1.5089,-1.5805,-1.5805,-1.5805,-1.5805,-1.5805,-1.5805,-1.5805,-1.5805,-1.5805,-1.5805,-1.5805,-1.5841,-1.5938,-1.6473,-1.6638,-1.695,-1.8032,-1.8601,-1.9059,-1.9654,-2.0079,-2.0354,-2.0385,-2.0354,-2.0457,-2.0948,-2.1062,-2.1329,-2.1973,-2.1553,-2.1615,-2.3035,-2.1683,-2.1071,-2.2768,-2.2615,-2.2226,-2.1903,-2.258,-2.335,-2.4047,-2.4108,-2.4779,-2.6349,-2.643,-2.6094,-2.5347,-2.5312,-2.4412,-2.2503,-2.3233,-2.3147,-2.2132,-2.133,-2.1279,-2.1951,-2.1753,-2.2044,0.0,0.0,0.0,0.0,0.0,0.0,-1.1365,-1.0763,-1.0255,-1.0143,-0.9652,-0.9115,-0.8743,-0.8756,-0.8578,-0.7955,-0.7408,-0.7032,-0.6834,-0.6699,-0.6408,-0.5785,-0.5789,-0.5709,-0.5416,-0.5191,-0.5153,-0.5348,-0.5188,-0.5282,-0.5767,-0.6588,-0.7312,-0.7869,-0.8818,-0.9376,-0.9484,-0.9516,-0.9516,-0.9516,-0.9781,-1.0039,-1.0304,-1.0563,-1.0864,-1.1111,-1.1111,-1.1111,-1.1111,-1.1409,-1.1996,-1.2813,-1.36,-1.4358,-1.5089,-1.5611,-1.5805,-1.5805,-1.5805,-1.5805,-1.5805,-1.5805,-1.5805,-1.5805,-1.5805,-1.5805,-1.5832,-1.6035,-1.6528,-1.7178,-1.797,-1.8736,-1.9497,-2.0411,-2.0979,-2.1311,-2.1311,-2.1073,-2.0917,-2.1083,-2.1352,-2.1634,-2.1886,-2.1459,-2.1392,-2.2195,-2.1476,-2.1167,-2.2092,-2.2066,-2.1912,-2.1825,-2.2073,-2.2327,-2.2606,-2.3091,-2.3632,-2.4227,-2.5194,-2.5158,-2.3863,-2.4767,-2.4412,-2.2503,-2.2661,-2.2275,-2.1267,-2.1447,-2.1353,-2.1069,-2.1345,-2.1545,-1.5373,0.0,0.0,0.0,0.0,0.0,-1.1026,0.0,-0.9974,-0.9906,-0.9463,-0.8902,-0.8203,-0.807,-0.7748,-0.6893,-0.6339,-0.6005,-0.5954,-0.5814,-0.5514,-0.5017,-0.4951,-0.4876,-0.4643,-0.4414,-0.4382,-0.4613,-0.4412,-0.4495,-0.4951,-0.5771,-0.6687,-0.7674,-0.8748,-0.9338,-0.9446,-0.9484,-0.9558,-0.9648,-0.9913,-1.0172,-1.0436,-1.0695,-1.0942,-1.1111,-1.1111,-1.1111,-1.1111,-1.1111,-1.1558,-1.2342,-1.2879,-1.3709,-1.4681,-1.5204,-1.5576,-1.5805,-1.5805,-1.5805,-1.5805,-1.5805,-1.5805,-1.5805,-1.5805,-1.5805,-1.5822,-1.5951,-1.6445,-1.7099,-1.7786,-1.8669,-1.9617,-2.0509,-2.1116,-2.1492,-2.1492,-2.1408,-2.1342,-2.1342,-2.159,-2.1807,-2.1807,-2.1424,-2.1269,-2.1735,-2.1414,-2.128,-2.1745,-2.1807,-2.1807,-2.1807,-2.1807,-2.1921,-2.2176,-2.2703,-2.3102,-2.335,-2.4324,-2.4324,-2.3038,-2.3973,-2.3717,-2.2,-2.213,-2.1625,-2.0369,-2.0772,-2.0726,-2.0279,-2.0473,-2.0773,0.0,0.0,0.0,0.0,0.0,0.0,-1.0717,0.0,-0.9631,-0.9863,-0.9873,-0.9343,-0.7603,-0.7166,-0.6773,-0.58,-0.5017,-0.446,-0.4317,-0.43,-0.43,-0.43,-0.43,-0.4346,-0.4492,-0.4368,-0.4346,-0.4495,-0.4363,-0.43,-0.43,-0.4954,-0.6063,-0.7642,-0.8716,-0.9306,-0.9306,-0.9446,-0.9642,-0.9907,-1.016,-1.0424,-1.0695,-1.0985,-1.1105,-1.1111,-1.1111,-1.1111,-1.1111,-1.1111,-1.1558,-1.2268,-1.2298,-1.32,-1.453,-1.4565,-1.5089,-1.5761,-1.5761,-1.577,-1.5805,-1.5805,-1.5805,-1.5805,-1.5805,-1.5805,-1.5874,-1.6197,-1.6353,-1.664,-1.7489,-1.8488,-1.9344,-1.9809,-2.0421,-2.0905,-2.0905,-2.1377,-2.1807,-2.1807,-2.1807,-2.1807,-2.1807,-2.1435,-2.129,-2.1735,-2.1424,-2.13,-2.1745,-2.1807,-2.1807,-2.1807,-2.1807,-2.2101,-2.2889,-2.2964,-2.3276,-2.3975,-2.4047,-2.3731,-2.3001,-2.3001,-2.2376,-2.097,-2.17,-2.1257,-1.9526,-1.9318,-1.936,-1.9572,-1.9198,-1.977,-1.5098,0.0,0.0,0.0,0.0,0.0,0.0,0.0,-0.9378,-0.9626,-0.9179,-0.8401,-0.737,-0.6654,-0.5895,-0.4854,-0.4515,-0.4336,-0.4306,-0.43,-0.43,-0.43,-0.43,-0.4346,-0.4492,-0.4368,-0.4346,0.0,-0.4363,-0.43,-0.43,-0.5448,-0.6593,-0.7674,-0.8495,-0.9055,-0.9306,-0.9338,-0.9539,-0.9907,-0.9979,-1.025,-1.0689,-1.0797,-1.093,-1.1111,-1.1111,-1.1111,-1.1111,-1.1111,-1.1223,-1.1484,-1.2077,-1.2556,-1.3025,-1.36,-1.4286,-1.4939,-1.4939,-1.5311,-1.5805,-1.5805,-1.5805,-1.5805,-1.5805,-1.5805,-1.5874,-1.6278,-1.655,-1.7061,-1.8294,-1.9153,-1.9849,-2.0479,-2.0789,-2.1021,-2.1454,-2.1693,-2.1807,-2.1807,-2.1807,-2.1807,-2.1807,-2.1694,-2.1652,-2.1787,-2.1694,-2.1662,-2.1787,-2.1807,-2.1807,-2.1807,-2.1807,-2.1883,-2.2101,-2.2138,-2.2214,-2.2419,-2.2979,-2.2953,-2.2138,-2.3191,-2.3178,-2.181,-2.2089,-2.1659,-2.0432,-2.0104,-1.9601,-1.9052,-1.9653,-2.008,0.0,0.0,0.0,0.0,0.0,0.0,-1.0401,-0.9679,-0.913,0.0,-0.9016,-0.8327,-0.7179,-0.6589,-0.5842,-0.4532,-0.43,-0.43,-0.43,-0.43,-0.43,-0.43,-0.43,-0.4325,-0.4393,-0.4341,-0.4327,-0.4427,-0.4338,-0.43,-0.43,-0.5646,-0.6629,-0.7149,-0.8236,-0.8944,-0.9204,-0.9262,-0.958,-1.0128,-1.0083,-1.034,-1.0882,-1.0882,-1.0966,-1.1111,-1.1111,-1.1111,-1.1111,-1.1111,-1.1111,-1.1149,-1.1632,-1.2003,-1.2378,-1.2849,-1.3673,-1.4601,-1.4601,-1.5125,-1.5805,-1.5805,-1.5805,-1.5805,-1.5805,-1.5908,-1.615,-1.6482,-1.697,-1.7562,-1.8368,-1.8856,-1.9204,-1.9608,-1.9883,-2.0284,-2.0895,-2.1213,-2.1492,-2.1769,-2.1807,-2.1807,-2.1807,-2.1807,-2.1807,-2.1807,-2.1807,-2.1807,-2.1807,-2.1807,-2.1807,-2.1807,-2.1807,-2.1807,-2.1807,-2.1807,-2.1807,-2.1807,-2.2252,-2.2252,-2.1693,-2.2531,-2.2641,-2.1877,-2.1914,-2.159,-2.0846,-2.0132,-1.9363,-1.8617,-1.9449,-1.9954,0.0,0.0,0.0,0.0,0.0,0.0,-1.1202,-1.0083,-0.899,0.0,-0.9168,-0.8682,-0.7048,-0.6783,-0.6211,-0.4517,-0.4267,-0.4267,-0.43,-0.4267,-0.4267,-0.43,-0.4267,-0.4267,-0.43,-0.43,-0.43,-0.43,-0.43,-0.43,-0.43,-0.5646,-0.64,-0.64,-0.7944,-0.8881,-0.9086,-0.9231,-0.9657,-1.0359,-1.0343,-1.0599,-1.1074,-1.1074,-1.1111,-1.1111,-1.1111,-1.1111,-1.1111,-1.1111,-1.1111,-1.1111,-1.1111,-1.1558,-1.215,-1.215,-1.3091,-1.435,-1.4458,-1.4982,-1.5691,-1.5761,-1.5805,-1.5805,-1.5805,-1.6098,-1.6476,-1.6858,-1.7453,-1.8,-1.8,-1.8,-1.804,-1.8072,-1.8634,-1.9271,-1.9864,-2.0537,-2.1136,-2.1693,-2.1807,-2.1807,-2.1807,-2.1807,-2.1807,-2.1807,-2.1807,-2.1807,-2.1807,-2.1807,-2.1807,-2.1807,-2.1807,-2.1807,-2.1807,-2.1807,-2.1807,-2.1807,-2.1769,-2.1693,-2.154,-2.1502,-2.1502,-2.154,-2.1499,-2.1254,-2.0814,-1.9819,-1.9018,-1.8427,-1.9098,-1.9653,0.0,0.0,0.0,0.0,0.0,0.0,-1.0828,-0.9923,-0.9165,0.0,-0.8965,-0.8468,-0.6847,-0.6565,-0.5961,-0.4177,-0.3995,-0.4131,-0.4267,-0.4164,-0.4131,-0.4267,-0.4164,-0.4131,-0.43,-0.43,-0.43,-0.43,-0.43,-0.43,-0.43,-0.5646,-0.64,-0.64,-0.7819,-0.8723,-0.9086,-0.9142,-0.9491,-1.0147,-1.0312,-1.0555,-1.085,-1.1037,-1.1111,-1.1111,-1.1111,-1.1111,-1.1111,-1.1111,-1.1111,-1.1111,-1.1111,-1.1186,-1.1335,-1.1335,-1.1922,-1.2842,-1.3499,-1.4214,-1.4939,-1.5576,-1.5805,-1.5805,-1.5805,-1.6098,-1.6527,-1.7205,-1.7689,-1.8,-1.8,-1.8,-1.8161,-1.8683,-1.9292,-1.9904,-2.0547,-2.1175,-2.1655,-2.1769,-2.1807,-2.1807,-2.1807,-2.1807,-2.1807,-2.1807,-2.1807,-2.1807,-2.1807,-2.1807,-2.1807,-2.1807,-2.1807,-2.1807,-2.1807,-2.1807,-2.1807,-2.1807,-2.1655,-2.1617,-2.1731,-2.1578,-2.1578,-2.1731,-2.137,-2.0884,-2.0344,-2.0211,-1.9788,-1.9033,-2.0186,-2.0165,0.0,0.0,0.0,-1.345,0.0,0.0,0.0,-1.0338,-0.9464,-0.915,-0.8882,-0.8281,-0.6936,-0.6701,-0.6238,-0.4834,-0.4495,-0.4395,-0.4431,-0.4195,-0.4028,-0.4131,-0.4061,-0.4051,-0.4248,-0.4268,-0.43,-0.43,-0.43,-0.43,-0.43,-0.5646,-0.64,-0.64,-0.789,-0.883,-0.916,-0.924,-0.9593,-1.0146,-1.0204,-1.0383,-1.0663,-1.085,-1.0962,-1.0962,-1.1074,-1.1111,-1.1111,-1.1111,-1.1111,-1.1111,-1.1111,-1.1111,-1.1111,-1.1111,-1.1595,-1.2378,-1.2776,-1.3637,-1.4681,-1.5089,-1.5461,-1.584,-1.6011,-1.6456,-1.7059,-1.7595,-1.7846,-1.8,-1.8,-1.8,-1.808,-1.8442,-1.8984,-1.9648,-2.0265,-2.0895,-2.1454,-2.1731,-2.1807,-2.1807,-2.1807,-2.1807,-2.1769,-2.1655,-2.1731,-2.1769,-2.1655,-2.1731,-2.1807,-2.1807,-2.1807,-2.1807,-2.1807,-2.1807,-2.1807,-2.1807,-2.1693,-2.1617,-2.1502,-2.1502,-2.154,-2.1655,-2.1504,-2.1315,-2.0987,-2.1087,-2.0627,-1.9707,-2.0549,-2.061,0.0,0.0,0.0,0.0,0.0,-1.2336,0.0,0.0,0.0,-0.948,-0.895,0.0,0.0,0.0,0.0,-0.5554,0.0,0.0,0.0,-0.4259,0.0,-0.3961,-0.3961,-0.4038,-0.4189,-0.4254,-0.4299,-0.4333,-0.4299,-0.4291,-0.4303,-0.5675,-0.6432,-0.64,-0.8027,-0.9008,-0.92,-0.9406,-0.9719,-1.0143,-1.0129,-1.0251,-1.0443,-1.0663,-1.0738,-1.0738,-1.0962,-1.1037,-1.1037,-1.1074,-1.1111,-1.1111,-1.1111,-1.1111,-1.1111,-1.1111,-1.1521,-1.2114,-1.2409,-1.3346,-1.443,-1.4716,-1.5317,-1.5985,-1.6422,-1.6978,-1.7591,-1.7929,-1.8,-1.8,-1.8,-1.8,-1.8,-1.8,-1.8514,-1.9112,-1.952,-2.0187,-2.0818,-2.1252,-2.1367,-2.1492,-2.1693,-2.1731,-2.1655,-2.1474,-2.1617,-2.1693,-2.1512,-2.1693,-2.1807,-2.1807,-2.1807,-2.1769,-2.1731,-2.1769,-2.1769,-2.1693,-2.1693,-2.154,-2.1282,-2.1397,-2.1502,-2.1502,-2.1655,-2.1731,-2.1731,-2.1769,-2.1308,-2.038,-2.0784,-2.1022,0.0,0.0,0.0,0.0,-1.3734,0.0,0.0,0.0,-1.0496,-0.9882,0.0,0.0,0.0,0.0,0.0,0.0,0.0,0.0,-0.4453,-0.4289,-0.4156,-0.3859,-0.3825,-0.3936,-0.4189,-0.4223,-0.4282,-0.4452,-0.4317,-0.424,-0.4306,-0.5748,-0.6533,-0.6404,-0.8027,-0.9008,-0.92,-0.9462,-0.9706,-0.9922,-1.0115,-1.019,-1.0255,-1.0443,-1.0513,-1.055,-1.0738,-1.0812,-1.085,-1.1037,-1.1111,-1.1111,-1.1111,-1.1111,-1.1111,-1.1111,-1.1149,-1.1446,-1.2872,-1.3499,-1.3861,-1.5213,-1.5984,-1.6458,-1.7162,-1.7437,-1.7591,-1.7929,-1.8,-1.8,-1.8,-1.8,-1.8,-1.8,-1.8514,-1.8913,-1.8576,-1.9274,-1.9933,-1.9659,-1.9855,-2.0421,-2.1387,-2.154,-2.1474,-2.1244,-2.1397,-2.154,-2.1502,-2.1693,-2.1807,-2.1807,-2.1807,-2.1731,-2.154,-2.1693,-2.1655,-2.1282,-2.1282,-2.132,-2.1474,-2.1512,-2.1502,-2.1502,-2.1512,-2.154,-2.154,-2.1693,-2.1501,-2.1015,-2.147,-2.1394,0.0,0.0,0.0,0.0,0.0,0.0,-1.2812,0.0,-1.1493,0.0,0.0,0.0,0.0,0.0,0.0,0.0,-0.6465,0.0,0.0,0.0,-0.4353,0.0,0.0,0.0,-0.406,-0.4217,-0.4368,-0.4474,-0.43,-0.4485,-0.5199,-0.6227,-0.6994,-0.7443,-0.8658,-0.936,-0.9421,-0.9658,-0.9825,-0.9922,-0.9992,-1.003,-1.003,-1.0218,-1.0331,-1.0331,-1.0556,-1.0625,-1.0625,-1.07,-1.0738,-1.0738,-1.0738,-1.0812,-1.0925,-1.0775,-1.1111,-1.1706,-1.2402,-1.3433,-1.4702,-1.6003,-1.6696,-1.7055,-1.7091,-1.7423,-1.7755,-1.7674,-1.7838,-1.7959,-1.7716,-1.7838,-1.7959,-1.7716,-1.8112,-1.8545,-1.8336,-1.8749,-1.9088,-1.893,-1.9049,-1.9246,-1.958,-2.0391,-2.0876,-2.0508,-2.1031,-2.1474,-2.1359,-2.1059,-2.1088,-2.1578,-2.1049,-2.0972,-2.1617,-2.154,-2.1436,-2.1397,-2.1177,-2.1167,-2.1512,-2.1282,-2.1215,-2.132,-2.1436,-2.1502,-2.1502,-2.1693,-2.1704,-2.1518,-2.1714,-2.1666,-1.6976,0.0,0.0,0.0,0.0,0.0,0.0,0.0,0.0,0.0,0.0,0.0,0.0,0.0,0.0,0.0,0.0,-0.6859,0.0,-0.5312,0.0,0.0,0.0,0.0,0.0,-0.4167,-0.4329,-0.4453,-0.4348,-0.4738,-0.5835,-0.659,-0.7343,-0.8155,-0.9124,-0.9614,-0.9614,-0.9803,-0.9884,-0.9884,-0.9884,-0.9884,-0.9922,-1.0067,-1.0105,-1.0143,-1.0331,-1.0406,-1.0406,-1.0481,-1.0513,-1.0475,-1.0443,-1.0558,-1.0729,-1.0541,-1.1122,-1.2008,-1.2232,-1.362,-1.5469,-1.6412,-1.6904,-1.7091,-1.6835,-1.7249,-1.7757,-1.7473,-1.7595,-1.7757,-1.7473,-1.7514,-1.7587,-1.727,-1.7546,-1.7813,-1.774,-1.7917,-1.806,-1.7931,-1.8012,-1.802,-1.7747,-1.8948,-1.9835,-1.9432,-2.0099,-2.0586,-2.043,-2.0012,-2.0002,-2.0653,-2.0255,-2.0294,-2.1136,-2.1233,-2.1282,-2.132,-2.1061,-2.1022,-2.132,-2.1061,-2.0984,-2.1205,-2.1359,-2.1436,-2.1502,-2.1693,-2.1807,-2.1807,-2.1807,-2.1807,0.0,0.0,0.0,-1.6216,0.0,0.0,0.0,0.0,-1.3001,0.0,0.0,0.0,0.0,0.0,0.0,0.0,0.0,0.0,0.0,0.0,0.0,0.0,0.0,0.0,0.0,-0.3977,-0.4066,-0.438,-0.439,-0.4823,-0.5839,-0.6664,-0.7443,-0.816,-0.9124,-0.9614,-0.9614,-0.9803,-0.9884,-0.9884,-0.9884,-0.9884,-0.9884,-0.9922,-0.9922,-0.9916,-1.0105,-1.0218,-1.0218,-1.0406,-1.0513,-1.0481,-1.0293,-1.0368,-1.0601,-1.0534,-1.1085,-1.1998,-1.2782,-1.4174,-1.566,-1.6079,-1.6238,-1.6309,-1.6611,-1.7057,-1.7432,-1.7392,-1.74,-1.7432,-1.7392,-1.7066,-1.673,-1.6738,-1.673,-1.6656,-1.6252,-1.6492,-1.6648,-1.6252,-1.6492,-1.6656,-1.6252,-1.7399,-1.8301,-1.8078,-1.827,-1.8421,-1.8372,-1.8523,-1.8674,-1.8683,-1.9601,-2.0051,-1.9717,-2.0789,-2.132,-2.0945,-2.0906,-2.0906,-2.0906,-2.0906,-2.0984,-2.1205,-2.1215,-2.132,-2.1502,-2.1693,-2.1807,-2.1807,-2.1807,-2.1807,-1.8084,-1.7279,-1.6443,-1.6652,0.0,0.0,0.0,0.0,0.0,0.0,0.0,0.0,0.0,0.0,0.0,0.0,0.0,0.0,0.0,0.0,0.0,0.0,0.0,0.0,0.0,0.0,-0.4833,-0.5359,-0.5724,-0.6462,-0.7691,-0.8027,-0.852,-0.9311,-0.9649,-0.9803,-0.9803,-0.9879,-0.9884,-0.9884,-0.9884,-0.9884,-0.9884,-0.9884,-0.9884,-0.9922,-0.996,-0.9997,-0.9992,-1.0067,-1.0105,-1.0121,-1.0215,-1.0334,-1.04,-1.039,-1.108,-1.2294,-1.4212,-1.5364,-1.6126,-1.6766,-1.6758,-1.6498,-1.6337,-1.6615,-1.6861,-1.6615,-1.6738,-1.6861,-1.6615,-1.6615,-1.6607,-1.6376,-1.6294,-1.6252,-1.6128,-1.5963,-1.5797,-1.568,-1.5756,-1.5797,-1.568,-1.6031,-1.6583,-1.7253,-1.79,-1.8301,-1.8301,-1.7842,-1.7762,-1.8332,-1.8381,-1.8749,-1.9708,-2.0605,-2.1051,-2.0906,-2.078,-2.078,-2.0906,-2.078,-2.0731,-2.0809,-2.1051,-2.1244,-2.132,-2.1655,-2.1807,-2.1807,-2.1807,-2.1807,-1.7854,-1.7307,-1.6835,-1.6949,-1.626,-1.5467,-1.516,0.0,-1.5173,0.0,0.0,0.0,0.0,0.0,0.0,0.0,0.0,0.0,0.0,-0.6756,0.0,0.0,0.0,0.0,0.0,0.0,-0.5392,-0.6219,-0.6676,0.0,0.0,-0.8808,-0.9158,-0.9884,-0.9884,-0.9884,-0.9884,-0.9884,-0.9884,-0.9884,-0.9884,-0.9884,-0.9884,-0.9884,-0.9884,-0.9884,-0.9884,-0.9884,-0.9884,-0.9884,-0.9884,-0.9943,-1.0196,-1.0342,-1.0417,-1.0417,-1.1266,-1.2711,-1.4631,-1.5574,-1.5992,-1.6503,-1.6492,-1.6203,-1.5922,-1.617,-1.6451,-1.617,-1.6294,-1.6409,-1.617,-1.617,-1.6162,-1.5922,-1.5846,-1.5846,-1.5846,-1.5597,-1.5389,-1.5389,-1.5389,-1.5389,-1.5389,-1.5389,-1.5624,-1.6337,-1.6903,-1.7261,-1.7261,-1.678,-1.6657,-1.722,-1.7261,-1.7819,-1.9216,-1.9638,-1.9854,-1.9854,-2.005,-2.0216,-2.0342,-2.0489,-2.0644,-2.0693,-2.0974,-2.1138,-2.1205,-2.154,-2.1693,-2.1693,-2.1769,-2.1807]},{"header":{"parameterUnit":"m.s-1","parameterCategory":1,"la1":30.6,"la2":29.2853,"lo1":-89.7004,"lo2":-87.6739,"dy":0.0162,"dx":0.0183,"nx":112,"ny":82,"refTime":"2025-03-21T18:00:00:Z","depth":0,"parameterNumber":3,"parameterNumberName":"V-component_of_WINDS"},"data":[0.0,0.0,0.0,0.0,0.0,0.0,0.0,0.0,0.0,0.0,0.0,0.0,0.0,0.0,0.0,0.0,0.0,0.0,0.0,0.0,0.0,0.0,0.0,0.0,0.0,0.0,0.0,0.0,0.0,0.0,0.0,0.0,0.0,0.0,0.0,0.0,0.0,0.0,0.0,0.0,0.0,0.0,0.0,0.0,0.0,0.0,0.0,0.0,0.0,0.0,0.0,0.0,0.0,0.0,0.0,0.0,0.0,0.0,0.0,0.0,0.0,0.0,0.0,0.0,0.0,0.0,0.0,0.0,0.0,0.0,0.0,0.0,0.0,0.0,0.0,0.0,0.0,0.0,0.0,0.0,0.0,0.0,0.0,0.0,0.0,0.0,0.0,0.0,0.0,0.0,0.077,0.0907,0.0331,-0.0101,-0.0168,-0.1538,-0.2382,-0.2321,0.0,0.0,0.0,0.0,0.0,0.0,0.0,0.0,0.0,0.0,0.0,0.0,0.0,0.0,0.0,0.0,0.0,0.0,0.0,0.0,0.0,0.0,0.0,0.0,0.0,0.0,0.0,0.0,0.0,0.0,0.0,0.0,0.0,0.0,0.0,0.0,0.0,0.0,0.0,0.0,0.0,0.0,0.0,0.0,0.0,0.0,0.0,0.0,0.0,0.0,0.0,0.0,0.0,0.0,0.0,0.0,0.0,0.0,0.0,0.0,0.0,0.0,0.0,0.0,0.0,0.0,0.0,0.0,0.0,0.0,0.0,0.0,0.0,0.0,0.0,0.0,0.0,0.0,0.0,0.0,0.0,0.0,0.0,0.0,0.0,0.0,0.0,0.0,0.0,0.0,0.0,0.0,0.0,0.0,0.0,0.0,0.0,0.0,0.0,0.0,0.0,0.0,0.0,0.0,0.1138,0.1896,0.1409,0.0874,0.0403,-0.046,-0.1278,-0.1945,0.0,0.0,0.0,0.0,0.0,0.0,0.0,0.0,0.0,0.0,0.0,0.0,0.0,0.0,0.0,0.0,0.0,0.0,0.0,0.0,0.0,0.0,0.0,0.0,0.0,0.0,0.0,0.0,0.0,0.0,0.0,0.0,0.0,0.0,0.0,0.0,0.0,0.0,0.0,0.0,0.0,0.0,0.0,0.0,0.0,0.0,0.0,0.0,0.0,0.0,0.0,0.0,0.0,0.0,0.0,0.0,0.0,0.0,0.0,0.0,0.0,0.0,0.0,0.0,0.0,0.0,0.0,0.0,0.0,0.0,0.0,0.0,0.0,0.0,0.0,0.0,0.0,0.0,0.0,0.0,0.0,0.0,0.0,0.0,0.0,0.0,0.0,0.0,0.0,0.0,0.0,0.0,0.0,0.0,0.0,0.0,0.0,0.0,0.0,0.0,0.0,0.0,0.0,0.1094,0.1701,0.2144,0.1648,0.1076,0.0538,-0.0266,-0.1067,-0.1854,-0.2555,0.0,0.0,0.0,0.0,0.0,0.0,0.0,0.0,0.0,0.0,0.0,0.0,0.0,0.0,0.0,0.0,0.0,0.0,0.0,0.0,0.0,0.0,0.0,0.0,0.0,0.0,0.0,0.0,0.0,0.0,0.0,0.0,0.0,0.0,0.0,0.0,0.0,0.0,0.0,0.0,0.0,0.0,0.0,0.0,0.0,0.0,0.0,0.0,0.0,0.0,0.0,0.0,0.0,0.0,0.0,0.0,0.0,0.0,0.0,0.0,0.0,0.0,0.0,0.0,0.0,0.0,0.0,0.0,0.0,0.0,0.0,0.0,0.0,0.0,0.0,0.0,0.0,0.0,0.0,0.0,0.0,0.0,0.0,0.0,0.0,0.0,0.0,0.0,0.0,0.0,0.0,0.0,0.0,0.0,0.0,0.0,0.0,0.0,0.0,0.0,0.0,0.0,0.2164,0.2232,0.2216,0.1783,0.1244,0.0571,-0.01,-0.0849,-0.1749,-0.209,0.0,0.0,0.0,0.0,0.0,0.0,0.0,0.0,0.0,0.0,0.0,0.0,0.0,0.0,0.0,0.0,0.0,0.0,0.0,0.0,0.0,0.0,0.0,0.0,0.0,0.0,0.0,0.0,0.0,0.0,0.0,0.0,0.0,0.0,0.0,0.0,0.0,0.0,0.0,0.0,0.0,0.0,0.0,0.0,0.0,0.0,0.0,0.0,0.0,0.0,0.0,0.0,0.0,0.0,0.0,0.0,0.0,0.0,0.0,0.0,0.0,0.0,0.0,0.0,0.0,0.0,0.0,0.0,0.0,0.0,0.0,0.0,0.0,0.0,0.0,0.0,0.0,0.0,0.0,0.0,0.0,0.0,0.0,0.0,0.0,0.0,0.0,0.0,0.0,0.0,0.0,0.0,0.0,0.0,0.0,0.0,0.0,0.0,0.0,0.0,0.0,0.0,0.2399,0.2547,0.2221,0.2154,0.1681,0.0605,0.0492,-0.0064,-0.1445,-0.1737,0.0,0.0,0.0,0.0,0.0,0.0,0.0,0.0,0.0,0.0,0.0,0.0,0.0,0.0,0.0,0.0,0.0,0.0,0.0,0.0,0.0,0.0,0.0,0.0,0.0,0.0,0.0,0.0,0.0,0.0,0.0,0.0,0.0,0.0,0.0,0.0,0.0,0.0,0.0,0.0,0.0,0.0,0.0,0.0,0.0,0.0,0.0,0.0,0.0,0.0,0.0,0.0,0.0,0.0,0.0,0.0,0.0,0.0,0.0,0.0,0.0,0.0,0.0,0.0,0.0,0.0,0.0,0.0,0.0,0.0,0.0,0.0,0.0,0.0,0.0,0.0,0.0,0.0,0.0,0.0,0.0,0.0,0.0,0.0,0.0,0.0,0.0,0.0,0.0,0.0,0.0,0.0,0.0,0.0,0.0,0.0,0.0,0.0,0.0,0.0,0.0,0.0,0.2682,0.2832,0.0,0.252,0.2116,0.1076,0.1015,0.0479,-0.0846,0.0,0.0,0.0,0.0,0.0,0.0,0.0,0.0,0.0,0.0,0.0,0.0,0.0,0.0,0.0,0.0,0.0,0.0,0.0,0.0,0.0,0.0,0.0,0.0,0.0,0.0,0.0,0.0,0.0,0.0,0.0,0.0,0.0,0.0,0.0,0.0,0.0,0.0,0.0,0.0,0.0,0.0,0.0,0.0,0.0,0.0,0.0,0.0,0.0,0.0,0.0,0.0,0.0,0.0,0.0,0.0,0.0,0.0,0.0,0.0,0.0,0.0,0.0,0.0,0.0,0.0,0.0,0.0,0.0,0.0,0.0,0.0,0.0,0.0,0.0,0.0,0.0,0.0,0.0,0.0,0.0,0.0,0.0,0.0,0.0,0.0,0.0,0.0,0.0,0.0,0.0,0.0,0.0,0.0,0.0,0.0,0.0,0.0,0.0,0.0,0.0,0.0,0.2676,0.306,0.3189,0.0,0.2855,0.2511,0.1659,0.1614,0.1038,-0.0308,0.0,0.0,0.0,0.0,0.0,0.0,0.0,0.0,0.0,0.0,0.0,0.0,0.0,0.0,0.0,0.0,0.0,0.0,0.0,0.0,0.0,0.0,0.0,0.0,0.0,0.0,0.0,0.0,0.0,0.0,0.0,0.0,0.0,0.0,0.0,0.0,0.0,0.0,0.0,0.0,0.0,0.0,0.0,0.0,0.0,0.0,0.0,0.0,0.0,0.0,0.0,0.0,0.0,0.0,0.0,0.0,0.0,0.0,0.0,0.0,0.0,0.0,0.0,0.0,0.0,0.0,0.0,0.0,0.0,0.0,0.0,0.0,0.0,0.0,0.0,0.0,0.0,0.0,0.0,0.0,0.0,0.0,0.0,0.0,0.0,0.0,0.0,0.0,0.0,0.0,0.0,0.0,0.0,0.0,0.0,0.0,0.0,0.0,0.0,0.0,0.0,0.0,0.3057,0.3464,0.3656,0.3259,0.319,0.292,0.2254,0.2281,0.1689,0.0,0.0,0.0,0.0,0.0,0.0,0.0,0.0,0.0,0.0,0.0,0.0,0.0,0.0,0.0,0.0,0.0,0.0,0.0,0.0,0.0,0.0,0.0,0.0,0.0,0.0,0.0,0.0,0.0,0.0,0.0,0.0,0.0,0.0,0.0,0.0,0.0,0.0,0.0,0.0,0.0,0.0,0.0,0.0,0.0,0.0,0.0,0.0,0.0,0.0,0.0,0.0,0.0,0.0,0.0,0.0,0.0,0.0,0.0,0.0,0.0,0.0,0.0,0.0,0.0,0.0,0.0,0.0,0.0,0.0,0.0,0.0,0.0,0.0,0.0,0.0,0.0,0.0,0.0,0.0,0.0,0.0,0.0,0.0,0.0,0.0,0.0,0.0,0.0,0.0,0.0,0.0,0.0,0.0,0.0,0.0,0.0,0.0,0.0,0.0,0.0,0.0,0.0,0.335,0.3726,0.3876,0.3517,0.3485,0.3283,0.2748,0.2666,0.2231,0.128,0.0,0.0,0.0,0.0,0.0,0.0,0.0,0.0,0.0,0.0,0.0,0.0,0.0,0.0,0.0,0.0,0.0,0.0,0.0,0.0,0.0,0.0,0.0,0.0,0.0,0.0,0.0,0.0,0.0,0.0,0.0,0.0,0.0,0.0,0.0,0.0,0.0,0.0,0.0,0.0,0.0,0.0,0.0,0.0,0.0,0.0,0.0,0.0,0.0,0.0,0.0,0.0,0.0,0.0,0.0,0.0,0.0,0.0,0.0,0.0,0.0,0.0,0.0,0.0,0.0,0.0,0.0,0.0,0.0,0.0,0.0,0.0,0.0,0.0,0.0,0.0,0.0,0.0,0.0,0.0,0.0,0.0,0.0,0.0,0.0,0.0,0.0,0.0,0.0,0.0,0.0,0.0,0.0,0.0,0.0,0.0,0.0,0.0,0.0,0.0,0.0,0.0,0.3618,0.3848,0.3948,0.3726,0.3726,0.3587,0.3299,0.3232,0.2859,0.2075,0.0,0.0,0.0,0.0,0.0,0.0,0.0,0.0,0.0,0.0,0.0,0.0,0.0,0.0,0.0,0.0,0.0,0.0,0.0,0.0,0.0,0.0,0.0,0.0,0.0,0.0,0.0,0.0,0.0,0.0,0.0,0.0,0.0,0.0,0.0,0.0,0.0,0.0,0.0,0.0,0.0,0.0,0.0,0.0,0.0,0.0,0.0,0.0,0.0,0.0,0.0,0.0,0.0,0.0,0.0,0.0,0.0,0.0,0.0,0.0,0.0,0.0,0.0,0.0,0.0,0.0,0.0,0.0,0.0,0.0,0.0,0.0,0.0,0.0,0.0,0.0,0.0,0.0,0.0,0.0,0.0,0.0,0.0,0.0,0.0,0.0,0.0,0.0,0.0,0.0,0.0,0.0,0.0,0.0,0.0,0.0,0.0,0.0,0.0,0.0,0.0,0.0,0.3809,0.3849,0.3887,0.3917,0.3887,0.3868,0.3778,0.3767,0.3431,0.2601,0.0,0.0,0.0,0.0,0.0,0.0,0.0,0.0,0.0,0.0,0.0,0.0,0.0,0.0,0.0,0.0,0.0,0.0,0.0,0.0,0.0,0.0,0.0,0.0,0.0,0.0,0.0,0.0,0.0,0.0,0.0,0.0,0.0,0.0,0.0,0.0,0.0,0.0,0.0,0.0,0.0,0.0,0.0,0.0,0.0,0.0,0.0,0.0,0.0,0.0,0.0,0.0,0.0,0.0,0.0,0.0,0.0,0.0,0.0,0.0,0.592,0.4873,0.0,0.0,0.0,0.0,0.0,0.0,0.0,0.0,0.0,0.0,0.0,0.0,0.0,0.0,0.0,0.0,0.0,0.0,0.0,0.0,0.0,0.0,0.0,0.0,0.0,0.0,0.0,0.0,0.0,0.0,0.0,0.0,0.0,0.0,0.0,0.0,0.0,0.0,0.0,0.0,0.392,0.3863,0.3851,0.3971,0.3883,0.3775,0.366,0.3649,0.3439,0.2991,0.2907,0.0,0.0,0.0,0.0,0.0,0.0,0.0,0.0,0.0,0.0,0.0,0.0,0.0,0.0,0.0,0.0,0.0,0.0,0.0,0.0,0.0,0.0,0.0,0.0,0.0,0.0,0.0,0.0,0.0,0.0,0.0,0.0,0.0,0.0,0.0,0.0,0.0,0.0,0.0,0.0,0.0,0.0,0.0,0.0,0.0,0.0,0.0,0.0,0.0,0.0,0.0,0.0,0.0,0.0,0.0,0.0,0.0,0.0,0.0,0.7441,0.6792,0.0,0.0,0.0,0.0,0.0,0.0,0.0,0.0,0.0,0.0,0.0,0.0,0.0,0.0,0.0,0.0,0.0,0.0,0.0,0.0,0.0,0.0,0.0,0.0,0.0,0.0,0.0,0.0,0.0,0.0,0.0,0.0,0.0,0.0,0.0,0.0,0.0,0.0,0.0,0.0,0.4311,0.46,0.4685,0.4462,0.4377,0.4151,0.3722,0.3691,0.3608,0.3357,0.3188,0.0,0.0,0.0,0.0,0.0,0.0,0.0,0.0,0.0,0.0,0.0,0.0,0.0,0.0,0.0,0.0,0.0,0.0,0.0,0.0,0.0,0.0,0.0,0.0,0.0,0.0,0.0,0.0,0.0,0.0,0.0,0.0,0.0,0.0,0.0,0.0,0.0,0.0,0.0,0.0,0.0,0.0,0.0,0.0,0.0,0.0,0.0,0.0,0.0,0.0,0.0,0.0,0.0,0.8728,0.8723,0.8582,0.8761,0.8777,0.875,0.8981,0.8845,0.8448,0.7996,0.0,0.0,0.0,0.0,0.0,0.0,0.0,0.0,0.0,0.0,0.0,0.0,0.0,0.0,0.0,0.0,0.0,0.0,0.0,0.0,0.0,0.0,0.702,0.702,0.6967,0.6645,0.5735,0.0,0.0,0.0,0.0,0.0,0.0,0.0,0.0,0.0,0.0,0.0,0.4986,0.5462,0.5609,0.5144,0.5062,0.4814,0.4208,0.4153,0.4045,0.383,0.3577,0.338,0.0,0.0,0.0,0.0,0.0,0.0,0.0,0.0,0.0,0.0,0.0,0.0,0.0,0.0,0.0,0.0,0.0,0.0,0.0,0.0,0.0,0.0,0.0,0.0,0.0,0.0,0.0,0.0,0.0,0.0,0.0,0.0,1.1368,1.1368,0.0,0.0,0.0,0.0,0.0,0.0,0.0,0.0,0.0,0.0,0.0,0.0,0.0,0.9532,0.9656,0.9632,0.937,0.8846,0.967,0.9681,0.8969,0.971,0.9934,0.972,0.9756,0.0,0.8521,0.8619,0.0,0.0,0.0,0.0,0.0,0.0,0.0,0.0,0.0,0.0,0.0,0.0,0.0,0.0,0.0,0.0,0.0,0.0,0.0,0.0,0.0,0.0,0.8766,0.8766,0.8428,0.7932,0.7469,0.6677,0.6107,0.624,0.6081,0.0,0.0,0.0,0.0,0.0,0.0,0.0,0.6058,0.5962,0.5823,0.5846,0.5741,0.5637,0.5555,0.5527,0.5308,0.4763,0.4677,0.4432,0.391,0.3882,0.0,0.0,0.0,0.0,0.0,0.0,0.0,0.0,0.0,0.0,0.0,0.0,0.0,0.0,0.0,0.0,0.0,0.0,0.0,0.0,0.0,0.0,0.0,0.0,0.0,0.0,0.0,0.0,0.0,1.1797,1.2117,1.2019,1.1994,1.1901,0.0,0.0,0.0,0.0,0.0,0.0,0.0,0.0,0.0,1.0987,1.0834,1.0993,1.1438,1.1194,1.0883,1.0419,1.083,1.0699,1.0136,1.0523,1.0634,1.0516,1.0516,1.0283,0.9868,0.9351,0.8992,0.8799,0.0,0.0,0.0,0.0,0.8348,0.8436,0.8012,0.7965,0.8078,0.7865,0.0,0.0,0.0,0.0,0.0,0.0,0.0,0.8239,0.8725,0.9078,0.9293,0.9137,0.8921,0.8699,0.8536,0.7898,0.7172,0.0,0.6285,0.608,0.5662,0.0,0.0,0.0,0.0,0.6182,0.6636,0.6867,0.6891,0.6642,0.6561,0.6372,0.5959,0.59,0.5769,0.5418,0.5418,0.5281,0.5034,0.5011,0.4814,0.0,0.0,0.0,0.0,0.0,0.0,0.0,0.0,0.0,0.0,0.0,0.0,0.0,0.0,0.0,0.0,0.0,0.0,0.0,0.0,0.0,0.0,0.0,0.0,0.0,0.0,0.0,0.0,1.273,1.2902,1.2444,1.2948,1.306,0.0,0.0,0.0,0.0,0.0,0.0,1.2099,1.1502,1.1472,1.2111,1.2136,1.2383,1.2893,1.2404,1.2019,1.1687,1.16,1.1353,1.0989,1.1066,1.1059,1.0982,1.0982,1.0982,1.094,1.0127,0.9682,0.9489,0.9462,0.9196,0.8843,0.9139,0.9271,0.9302,0.9148,0.9233,0.932,0.8981,0.881,0.8651,0.8254,0.0,0.0,0.0,0.0,0.8818,0.9446,0.9644,0.9589,0.9376,0.9303,0.9254,0.9254,0.8887,0.8228,0.0,0.6846,0.6633,0.6285,0.0,0.0,0.0,0.0,0.7014,0.7236,0.7636,0.7741,0.7354,0.73,0.7079,0.6529,0.6497,0.6394,0.6154,0.6127,0.6073,0.5909,0.5909,0.5664,0.5195,0.0,0.0,0.0,0.0,0.0,0.0,0.0,0.0,0.0,0.0,0.0,0.0,0.0,0.0,0.0,0.0,0.0,0.0,0.0,0.0,0.0,0.0,0.0,0.0,0.0,0.0,0.0,0.0,0.0,1.2723,1.3898,0.0,0.0,0.0,0.0,1.3445,1.3103,1.2928,1.2944,1.2964,1.2988,1.302,1.3344,1.3388,1.3188,1.2582,1.2199,1.197,1.1582,1.1281,1.0996,1.1249,1.1254,1.0982,1.0982,1.0982,1.0982,1.094,1.0466,0.9856,1.0593,0.9957,0.8716,0.9561,0.953,0.91,0.9088,0.9077,0.9054,0.9302,0.9105,0.88,0.8769,0.8909,0.0,0.0,0.9731,0.9919,0.9951,0.9983,0.9983,0.997,0.9799,0.9677,0.9677,0.9464,0.92,0.0,0.8539,0.8027,0.7503,0.0,0.7413,0.7413,0.7225,0.7356,0.8126,0.803,0.7901,0.7875,0.7848,0.7848,0.7821,0.7788,0.7574,0.7058,0.7031,0.6783,0.6209,0.6182,0.6095,0.595,0.5955,0.0,0.0,0.0,0.0,0.0,0.0,0.0,0.0,0.0,0.0,0.0,0.0,0.0,0.0,0.0,0.0,0.0,0.0,0.0,0.0,0.0,0.0,0.0,0.0,0.0,0.0,0.0,0.0,1.4642,1.5518,0.0,1.4778,1.5056,1.5109,1.4688,1.4404,1.416,1.403,1.4045,1.4088,1.4088,1.4438,1.4704,1.4856,1.4155,1.3745,1.3663,1.3268,1.2893,1.262,1.2717,1.2701,1.2612,1.2612,1.2612,1.2612,1.2612,1.181,1.0656,1.1326,1.1109,1.0496,1.1194,1.121,1.0882,1.0833,1.0721,1.0425,0.9741,0.9427,0.9336,0.9412,0.9753,1.0214,1.075,1.1069,1.118,1.0748,1.0654,1.0488,0.9949,0.9747,0.9707,0.9707,0.9477,0.9349,0.9455,0.903,0.8565,0.8357,0.819,0.8082,0.8082,0.8003,0.8032,0.8319,0.8277,0.8215,0.8215,0.8141,0.8088,0.8088,0.7981,0.7821,0.7628,0.7628,0.7521,0.73,0.73,0.7106,0.6723,0.6696,0.6453,0.0,0.0,0.0,0.0,0.0,0.0,0.0,0.0,0.0,0.0,0.0,0.0,0.0,0.0,0.0,0.0,0.0,0.0,0.0,0.0,0.0,0.0,0.0,0.0,0.0,0.0,1.6672,1.5486,1.65,1.6811,1.5657,1.5912,1.6042,1.5748,1.5176,1.4905,1.5106,1.4661,1.4468,1.4629,1.4887,1.5146,1.5386,1.4745,1.4396,1.4403,1.4004,1.372,1.3511,1.3511,1.3511,1.3502,1.3352,1.3361,1.3502,1.3472,1.2819,1.1864,1.2279,1.2108,1.1682,1.225,1.2223,1.1914,1.1684,1.1578,1.138,1.0385,1.017,1.0278,1.0389,1.0731,1.119,1.1634,1.1971,1.2074,1.1602,1.1516,1.1372,1.0786,1.0652,1.0652,1.0652,1.0516,1.0425,1.0611,0.9641,0.8809,0.8809,0.858,0.8395,0.8395,0.8395,0.8395,0.8395,0.8395,0.8395,0.8395,0.8321,0.8275,0.8275,0.8115,0.8008,0.8055,0.812,0.8169,0.819,0.8169,0.7973,0.7613,0.7507,0.7155,0.6492,0.0,0.0,0.0,0.0,0.0,0.0,0.0,0.0,0.0,0.0,0.0,0.0,0.0,0.0,0.0,0.0,0.0,0.0,0.0,0.0,0.0,0.0,0.0,1.6168,1.6869,1.691,1.5204,1.6789,1.7366,1.5674,1.5808,1.6173,1.6627,1.5505,1.518,1.6066,1.4808,1.4287,1.4715,1.4661,1.4649,1.4634,1.4232,1.4036,1.4036,1.3691,1.3541,1.3541,1.3541,1.3541,1.3524,1.3134,1.3177,1.3545,1.3465,1.3468,1.3541,1.3511,1.2909,1.2104,1.2642,1.2504,1.1997,1.1466,1.1529,1.1773,1.1221,1.1319,1.1628,1.1656,1.1877,1.2158,1.2158,1.237,1.2573,1.2543,1.2543,1.2543,1.2512,1.2512,1.2512,1.2512,1.2512,1.2512,1.2504,1.0559,0.8918,0.8918,0.8687,0.85,0.85,0.8467,0.0,0.846,0.8427,0.8427,0.8427,0.8401,0.8395,0.8395,0.8268,0.8275,0.8407,0.8532,0.8676,0.8781,0.8676,0.8593,0.8586,0.8338,0.7981,0.753,0.0,0.0,0.0,0.0,0.0,0.0,0.0,0.0,0.0,0.0,0.0,0.0,0.0,0.0,0.0,0.0,0.0,0.0,0.0,0.0,0.0,1.7767,1.7901,1.7047,1.7753,1.8057,1.7265,1.7948,1.8337,1.7828,1.8176,1.8202,1.7584,1.7256,1.689,1.6437,1.6034,1.5729,1.5506,1.5473,1.5458,1.5398,1.4701,1.4504,1.4773,1.4417,1.4228,1.4228,1.4228,1.4228,1.4228,1.412,1.4129,1.4219,1.4209,1.4198,1.4198,1.395,1.3541,1.313,1.3541,1.3548,1.3357,1.3204,1.3048,1.2788,1.2259,1.2279,1.2562,1.2648,1.2873,1.3228,1.3693,1.39,1.3851,1.3351,1.323,1.31,1.2634,1.2512,1.2543,1.2704,1.2734,1.2765,1.2848,1.2142,1.148,1.122,1.0938,1.0717,1.0717,1.0124,0.0,0.9715,0.9105,0.8699,0.8699,0.8606,0.8547,0.8547,0.8421,0.843,0.8682,0.8716,0.8754,0.8809,0.876,0.8665,0.8462,0.8582,0.8557,0.0,0.0,0.0,0.0,0.0,0.0,0.0,0.0,0.0,0.0,0.0,0.0,0.0,0.0,0.0,0.0,0.0,0.0,0.0,0.0,0.0,0.0,1.8544,1.8617,1.8356,1.8455,1.8364,1.7787,1.8119,1.8403,1.8403,1.8654,1.872,1.8539,1.8204,1.7819,1.7447,1.6859,1.6407,1.6128,1.5761,1.5525,1.5486,1.4907,1.4676,1.4854,1.4676,1.4565,1.4515,1.4515,1.4444,1.4328,1.4161,1.4116,1.4164,1.3979,1.4109,1.4414,0.0,0.0,0.0,0.0,1.4173,1.4121,1.3975,1.3846,1.3716,1.3244,1.3316,1.3585,1.3644,1.3803,1.401,1.4387,1.4536,1.4488,1.4112,1.4052,1.4022,1.3644,1.3554,1.3584,1.3713,1.3713,1.3743,1.3833,1.3717,0.0,1.3353,1.2495,1.178,1.1724,1.1269,1.0813,1.0566,1.007,0.9669,0.948,0.9399,0.9366,0.9366,0.9242,0.0,0.0,0.0,0.9597,0.9597,0.9597,0.0,0.0,0.0,0.0,0.0,0.0,0.0,0.0,0.7693,0.772,0.0,0.0,0.0,0.0,0.0,0.0,0.0,0.0,0.0,0.0,0.0,0.0,0.0,0.0,0.0,0.0,1.9884,1.9872,1.9866,1.9171,1.8424,1.7655,1.79,1.8167,1.8269,1.828,1.8621,1.9447,1.8746,1.8416,1.8778,0.0,0.0,0.0,0.0,1.5429,1.5371,1.5079,1.4863,1.4764,1.4804,1.4775,1.4654,1.4604,1.4403,1.4091,1.3737,1.367,1.3741,1.3332,1.3626,1.4327,1.4497,1.4575,1.4575,1.4575,1.4575,1.4519,1.4142,0.0,0.0,1.4095,1.4262,1.4545,1.4506,1.4545,1.4545,1.4545,1.4616,1.4745,1.4745,1.4872,1.5,1.5,1.5,1.5,1.5029,1.5029,1.5029,1.5029,1.5059,1.5059,1.5059,1.3588,1.2388,1.2276,1.2159,1.1853,1.1274,1.1153,1.0955,1.0569,0.0,0.0,1.0504,1.0401,1.0169,0.9769,1.0356,1.0732,1.0732,1.0732,1.0568,1.0218,0.9799,0.962,0.9743,0.9336,0.9072,0.8831,0.802,0.7928,0.0,0.0,0.0,0.0,0.0,0.0,0.0,0.0,0.0,0.0,0.0,0.0,0.0,0.0,0.0,2.086,2.1222,2.1375,2.0888,2.0588,2.0118,1.9338,1.9077,1.922,1.9863,1.9939,2.0008,2.0201,2.003,1.9803,1.9518,1.8843,1.8286,1.7917,1.7296,1.6782,1.6404,1.6348,1.6291,1.6262,0.0,0.0,1.5623,1.5147,1.4656,1.4251,1.4176,1.4166,1.4138,1.375,1.3873,1.4327,1.4751,1.4891,1.4891,1.4891,1.4891,1.4872,1.4817,1.4845,1.4872,1.4622,1.4718,1.4862,1.4565,1.4684,0.0,1.4725,1.4813,1.4941,1.4941,1.497,1.5,1.5,1.5,1.5039,1.5156,1.5156,1.5176,1.5303,1.5332,1.5332,1.5332,1.4819,1.4424,1.4404,1.3717,1.3019,1.2587,1.2151,1.1734,1.1326,1.1585,1.1589,1.1151,1.1101,1.0968,1.0657,1.0773,1.092,1.1019,1.092,1.0701,1.0372,1.0517,1.0631,1.0657,1.029,1.0252,1.0413,0.9132,0.8496,0.0,0.0,0.0,0.0,0.0,0.0,0.0,0.0,0.0,0.0,0.0,2.0954,2.1542,0.0,2.2046,2.2311,2.2362,2.2383,2.2353,2.1939,2.1257,2.0188,1.9701,1.9688,2.035,2.0396,2.05,2.0776,2.0799,2.0465,1.9695,1.939,1.8897,1.8171,1.7651,1.7296,1.7062,1.6922,1.681,1.6715,1.6539,1.6407,1.6273,1.57,1.5125,1.4525,1.4234,1.401,1.3928,1.4139,1.4378,1.46,1.5032,1.5108,1.5,1.5,1.5,1.5,1.5,1.5,1.497,1.4872,1.4911,1.498,1.4803,1.4862,1.497,1.4872,1.497,1.5098,1.5098,1.5147,1.5196,1.5196,1.5196,1.5225,1.5284,1.5313,1.5313,1.5381,1.541,1.541,1.541,1.5303,1.5167,1.5117,1.4664,1.4173,1.3709,1.3412,1.3111,1.2699,1.2833,1.2743,1.2228,1.1731,1.1524,1.1679,1.1421,1.1421,1.179,1.173,1.1617,1.1451,1.1277,1.1196,1.1196,1.0868,1.0788,1.0952,1.0444,0.9768,0.0,0.0,0.0,0.0,0.0,0.0,0.0,0.0,2.0811,2.1302,2.1841,2.2443,2.3174,2.3029,2.3039,2.3764,2.3511,2.3381,2.3807,2.325,2.2374,2.1296,2.0511,2.0271,2.0695,2.0742,2.0916,2.1356,2.138,2.102,2.0143,1.99,1.9425,1.8598,1.8027,1.7722,1.7722,1.7501,1.7296,1.7163,1.7185,1.7129,1.6957,1.6303,1.5567,1.4815,1.4201,1.3834,1.3753,1.4703,1.5,1.4901,1.5377,1.5303,1.4974,1.5059,1.5088,1.5088,1.5088,1.5088,1.5059,1.5059,1.5059,1.5059,1.5029,1.5029,1.5059,1.5059,1.5147,1.5235,1.5235,1.5313,1.541,1.541,1.541,1.541,1.541,1.541,1.541,1.541,1.541,1.541,1.541,1.541,1.5362,1.5264,1.5235,1.5052,1.4525,1.4544,1.4458,1.4045,1.4074,1.3922,1.3439,1.2478,1.2102,1.2618,1.2104,1.1993,1.2529,1.2505,1.2505,1.2505,1.1977,1.1738,1.1809,1.1539,1.1451,1.1552,1.1759,1.1169,2.0086,1.9672,1.9949,2.2197,2.1961,2.1602,0.0,0.0,2.2458,2.2857,2.3135,2.3476,2.3916,2.4389,2.4712,2.4821,2.4796,2.4782,2.4836,2.4408,2.4037,2.3864,2.2462,2.1603,2.1966,2.2009,2.2032,2.2092,2.2092,2.2044,2.1925,2.1003,2.044,2.0327,1.9356,1.8827,1.8827,1.8801,1.8762,1.8735,1.8228,1.7984,1.7907,1.6846,1.585,1.4945,1.4334,1.4148,1.4386,1.5619,1.568,1.5068,1.5886,1.5622,1.4874,1.5216,1.5352,1.5352,1.5352,1.5352,1.5332,1.5205,1.5254,1.5303,1.5059,1.5167,1.5332,1.5205,1.5254,1.5391,1.5391,1.5381,1.541,1.541,1.541,1.541,1.541,1.541,1.541,1.541,1.541,1.541,1.541,1.541,1.5381,1.5391,1.5391,1.5235,1.4816,1.506,1.5128,1.4728,1.502,1.5012,1.4474,1.3518,1.301,1.3199,1.2704,1.2471,1.2676,1.2554,1.2505,1.2505,1.2431,1.2551,1.2908,1.2877,1.3092,1.3474,1.2986,1.2265,2.2412,2.1987,0.0,0.0,2.3245,2.3138,2.3919,2.3784,2.3528,2.3689,2.4081,2.443,2.4583,2.4996,2.5229,0.0,2.5159,2.5285,2.5285,2.4708,2.435,2.4509,2.3505,2.275,2.2604,2.2371,2.2197,2.2197,2.2197,2.2053,2.1753,2.1007,2.0454,2.0141,1.9396,1.8987,1.8987,1.8987,1.8987,1.8987,1.8735,1.8463,1.8142,1.7307,1.6207,1.4992,1.474,1.466,1.4793,1.5568,1.5685,1.5351,1.5461,1.5386,1.5232,1.534,1.541,1.541,1.541,1.541,1.5381,1.5332,1.5362,1.5391,1.5274,1.5303,1.5381,1.5332,1.5362,1.541,1.541,1.541,1.541,1.541,1.541,1.541,1.541,1.541,1.541,1.541,1.541,1.541,1.541,1.541,1.541,1.541,1.541,1.5352,1.5176,1.5303,1.5342,1.5166,1.5088,1.4952,1.4749,1.3862,1.3352,1.3404,1.2991,1.2759,1.2808,1.2759,1.2841,1.3092,1.2776,1.2953,1.3614,1.3499,1.3691,1.4155,1.4129,1.3945,2.4209,0.0,0.0,2.4566,2.4739,2.4689,2.4749,2.4763,2.475,2.4764,2.5024,2.5282,2.5393,2.5535,2.5522,2.5286,2.5453,2.5592,2.5592,2.5118,2.4794,2.4992,2.4439,2.3901,2.356,2.2836,2.234,2.2228,2.2197,2.206,2.1693,2.1041,2.0475,2.0148,1.9429,1.9052,1.9052,1.9052,1.9052,1.9052,1.8948,1.8682,1.8269,1.7391,1.6303,1.5115,1.5079,1.5183,1.5372,1.5775,1.5886,1.5772,1.5689,1.5558,1.5416,1.5634,1.5584,1.541,1.541,1.541,1.541,1.541,1.541,1.541,1.541,1.541,1.541,1.541,1.541,1.541,1.541,1.541,1.541,1.541,1.541,1.541,1.541,1.541,1.5439,1.5613,1.5661,1.569,1.5864,1.5892,1.5835,1.5661,1.5661,1.5575,1.541,1.541,1.541,1.541,1.5137,1.4961,1.4961,1.4287,1.3857,1.3857,1.3457,1.3232,1.3232,1.3115,1.3252,1.3646,1.3196,1.3339,1.4218,1.4063,1.4238,1.4678,1.4974,1.5088,0.0,0.0,2.4631,2.6533,2.6562,2.6182,2.6376,2.6428,2.6449,2.6437,2.6134,2.6007,2.6371,2.6134,2.5895,2.5862,2.5877,2.5893,2.5893,2.5866,2.5866,2.5866,2.5453,2.5147,2.5119,2.3754,2.2696,2.2216,2.2197,2.2235,2.2365,2.137,2.0844,2.0949,1.9824,1.9196,1.9196,1.9196,1.9196,1.9196,1.879,1.8609,1.8522,1.6955,1.5904,1.5368,1.5308,1.5618,1.6197,1.6664,1.6582,1.6279,1.7237,1.6588,1.5216,1.613,1.6007,1.541,1.541,1.541,1.541,1.541,1.541,1.541,1.541,1.541,1.541,1.541,1.541,1.541,1.541,1.541,1.541,1.541,1.541,1.541,1.541,1.541,1.5575,1.6169,1.6283,1.6472,1.7034,1.7146,1.695,1.6358,1.6283,1.6054,1.5468,1.541,1.541,1.541,1.54,1.5391,1.5391,1.5,1.4774,1.4774,1.4309,1.4065,1.4065,1.3685,1.3656,1.4075,1.3675,1.3906,1.4766,1.4766,1.498,1.5362,1.5381,1.5313,0.0,0.0,2.532,2.6642,2.6892,2.6813,2.6879,2.6912,2.6904,2.691,2.6802,2.6741,2.6871,2.6717,2.6518,2.6345,2.6228,2.6171,2.6176,2.6015,2.5975,2.6136,2.5865,0.0,0.0,0.0,0.0,2.3728,2.3728,2.3544,2.3157,2.2115,2.1378,2.1012,1.9922,1.9328,1.9328,1.9328,1.9144,1.8778,1.7934,1.754,1.7504,1.6596,1.6104,1.5925,1.5915,1.6009,1.6213,1.6372,1.6553,1.6735,1.6753,1.6807,1.6792,1.6369,1.6276,1.6265,1.5768,1.5604,1.5604,1.5701,1.573,1.573,1.5643,1.5604,1.5575,1.5449,1.541,1.541,1.541,1.569,1.5997,1.5997,1.6312,1.6585,1.6585,1.6585,1.6669,1.6961,1.7017,1.7118,1.7413,1.7468,1.7385,1.7191,1.633,1.5633,1.5439,1.541,1.541,1.541,1.5748,1.5997,1.5997,1.5629,1.5403,1.5403,1.4582,1.4104,1.4104,1.3968,1.4104,1.4561,1.4625,1.5067,1.5925,1.6048,1.6132,1.6122,1.6026,1.5979,2.6838,2.7105,2.7148,2.8068,2.8264,2.82,2.806,2.7941,2.7836,2.7749,2.7639,2.7525,2.759,2.7417,2.7166,2.6862,2.6758,2.6642,2.6498,2.6326,2.6272,2.6445,2.6326,2.6111,0.0,0.0,0.0,2.4542,2.4498,2.4325,2.3951,2.2878,2.2126,2.1786,2.0461,1.9746,1.9746,1.9379,1.8832,1.8153,1.7471,1.7037,1.6804,1.6457,1.6318,1.6318,1.6318,1.6318,1.6318,1.6318,1.6507,1.6819,1.673,1.7015,1.744,1.6942,1.6895,1.6989,1.6332,1.6085,1.6142,1.6428,1.6513,1.6503,1.6418,1.6389,1.635,1.6226,1.614,1.614,1.6159,1.6443,1.6708,1.6754,1.7052,1.733,1.733,1.733,1.7424,1.7727,1.7793,1.7902,1.819,1.8043,1.7907,1.7907,1.694,1.6187,1.6187,1.6187,1.6159,1.6112,1.6454,1.6669,1.6641,1.6433,1.6318,1.6318,1.5706,1.527,1.5073,1.51,1.526,1.5525,1.5733,1.6192,1.6894,1.7021,1.7032,1.6894,1.681,1.6743,2.8491,2.9158,2.9892,3.0613,3.0564,3.0218,2.9826,2.9505,2.9203,2.9017,2.8642,2.8426,0.0,0.0,2.7864,2.7576,2.7483,2.7316,2.6957,2.6887,2.6832,0.0,0.0,0.0,0.0,0.0,0.0,2.4726,0.0,2.4642,2.4757,2.3609,2.3041,2.3198,2.1402,2.0434,2.0395,1.9332,1.8344,1.742,1.7395,1.7071,1.65,1.65,1.65,1.65,1.65,1.65,1.65,1.65,1.6513,1.6588,1.7184,1.7331,1.7264,1.7726,1.7818,1.7605,1.7101,1.6877,1.6933,1.7468,1.7633,1.7633,1.7633,1.7633,1.7605,1.7605,1.7506,1.7435,1.7578,1.7534,1.749,1.7605,1.766,1.7688,1.7688,1.7688,1.7852,1.8432,1.8551,1.875,1.9303,1.8948,1.8578,1.8578,1.807,1.7688,1.7605,1.7605,1.755,1.7407,1.7435,1.7407,1.7285,1.7379,1.7462,1.7462,1.7562,1.7357,1.6849,1.6954,1.6986,1.6838,1.6997,1.728,1.766,1.7688,1.7688,1.766,1.766,1.766,2.8785,2.9482,3.0059,3.0641,3.0743,3.0654,3.0542,3.0254,3.0011,2.9966,2.967,2.9426,0.0,0.0,0.0,2.92,2.8417,0.0,2.8372,2.7735,0.0,2.7248,0.0,2.6806,2.6806,2.6806,0.0,0.0,2.6204,2.6017,2.5545,2.4418,2.3585,2.3139,2.185,2.0901,2.0388,1.9282,1.8433,1.7841,1.7437,1.6982,1.65,1.65,1.65,1.65,1.65,1.65,1.65,1.65,1.6773,1.7197,1.7348,1.7872,1.8487,1.816,1.8298,1.8617,1.8494,1.8093,1.7672,1.7902,1.7984,1.7945,1.7852,1.7825,1.7797,1.7633,1.7578,1.755,1.7578,1.7918,1.8228,1.8271,1.8605,1.8948,1.8948,1.8948,1.9028,1.9253,1.941,1.9514,1.9682,1.9566,1.9475,1.9475,1.9345,1.8847,1.7743,1.7605,1.7578,1.755,1.7945,1.8201,1.8163,1.819,1.8228,1.8228,1.7825,1.755,1.7385,1.7428,1.7428,1.7385,1.797,1.8319,1.8409,1.8859,1.8859,1.8421,1.8325,1.8271,3.0038,3.0664,3.1202,3.1446,3.1394,3.1289,3.1276,3.1053,3.074,3.0489,3.0278,0.0,0.0,0.0,0.0,0.0,0.0,0.0,2.8956,2.8208,2.756,0.0,2.7196,0.0,2.6806,2.6806,2.6806,0.0,2.6806,2.6646,2.6268,2.5092,2.4155,2.3464,2.2058,2.0776,1.9647,1.9027,1.8419,1.7903,1.7439,1.7052,1.6799,1.6586,1.65,1.65,1.65,1.6638,1.6873,1.66,1.6861,1.741,1.741,1.7903,1.8645,1.8536,1.8852,1.9344,1.9344,1.9095,1.8753,1.8806,1.8845,1.8845,1.8753,1.8727,1.8715,1.8608,1.8528,1.8474,1.8555,1.878,1.9016,1.9056,1.9331,1.9591,1.9591,1.9591,1.9617,1.9656,1.9759,1.9798,1.9798,1.9798,1.9798,1.9798,1.9798,1.9501,1.8661,1.8581,1.8528,1.8486,1.8792,1.8963,1.8883,1.8963,1.8989,1.8989,1.8727,1.8447,1.8228,1.8459,1.8447,1.8228,1.8859,1.9176,1.9176,1.9514,1.9514,1.9176,1.9109,1.9083,3.156,3.2055,3.2562,3.2475,3.2195,3.1969,3.1969,3.1759,3.1391,3.0821,0.0,3.0502,3.0001,2.9872,2.9897,3.0046,0.0,2.9069,2.9233,2.8562,2.7963,2.7675,2.7539,2.731,2.6974,2.6858,2.6832,2.6832,2.6733,2.6718,2.6806,2.5575,2.45,2.3659,2.1953,2.0362,1.8905,1.881,1.8467,1.7888,1.7537,1.7323,1.7199,1.6778,1.6565,1.65,1.6575,1.6923,1.7373,1.6923,1.7036,1.7511,1.7511,1.7827,1.8367,1.8832,1.9334,1.9798,1.9798,1.9798,1.9798,1.9798,1.9798,1.9798,1.9798,1.9798,1.9798,1.9798,1.9734,1.9656,1.9773,1.9708,1.9656,1.9773,1.9798,1.9798,1.9798,1.9798,1.9798,1.9798,1.9798,1.9798,1.9798,1.9798,1.9798,1.9798,1.9798,1.9798,1.9798,1.9798,1.9759,1.963,1.963,1.9591,1.9473,1.9565,1.963,1.963,1.9734,1.9592,1.9119,1.9552,1.9578,1.9119,1.9552,1.9798,1.9798,1.9798,1.9798,1.9798,1.9798,1.9798,3.1684,3.2123,3.2605,3.2573,3.2438,3.2301,3.2301,3.2056,0.0,0.0,0.0,3.0814,3.0448,3.0255,3.0326,3.0871,0.0,0.0,0.0,0.0,2.895,0.0,0.0,0.0,0.0,0.0,0.0,0.0,2.6466,2.6342,2.6791,2.5546,2.4041,2.2381,2.0992,2.0145,1.987,1.9324,1.8807,1.8383,1.8305,1.7888,1.7199,1.7115,1.6863,1.6525,1.7024,0.0,1.7436,1.7765,1.7978,1.8066,1.8066,1.8405,1.887,1.897,1.9334,1.9798,1.9798,1.9798,1.9798,1.9798,1.9798,1.9798,1.9798,1.9798,1.9798,1.9798,1.9773,1.9773,1.9798,1.9773,1.9773,1.9798,1.9798,1.9798,1.9798,1.9798,1.9798,1.9798,1.9798,1.9798,1.9798,1.9798,1.9798,1.9798,1.9798,1.9798,1.9798,1.9798,1.9798,1.9773,1.9773,1.9759,1.9734,1.9759,1.9773,1.9773,1.9798,1.9759,1.9682,1.9747,1.9759,1.9643,1.9747,1.9798,1.9798,1.9798,1.9798,1.9798,1.9798,1.9798,3.2345,3.2644,3.2846,3.277,3.264,3.2401,3.2012,0.0,0.0,0.0,3.1085,3.1106,3.0589,0.0,0.0,0.0,0.0,0.0,0.0,0.0,0.0,0.0,0.0,0.0,0.0,0.0,0.0,2.6619,2.5952,2.5789,2.6253,2.4413,2.2643,2.1061,2.0074,1.958,1.958,1.9261,1.9007,1.8803,1.8611,1.8285,1.7882,1.7968,1.7914,1.7742,1.8319,1.863,1.865,1.8624,1.8616,1.8607,1.8607,1.877,1.9033,1.9309,1.9585,1.9798,1.9798,1.9798,1.9798,1.9798,1.9798,1.9798,1.9798,1.9798,1.9798,1.9798,1.9798,1.9798,1.9798,1.9798,1.9798,1.9798,1.9798,1.9798,1.9798,1.9798,1.9798,1.9798,1.9798,1.9798,1.9798,1.9798,1.9798,1.9798,1.9798,1.9798,1.9798,1.9798,1.9798,1.9798,1.9798,1.9798,1.9798,1.9798,1.9798,1.9798,1.9798,1.9798,1.9798,1.9798,1.9798,1.9798,1.9798,1.9798,1.9798,1.9798,1.9798,1.9798,1.9798,1.9798,3.3031,3.3132,3.307,3.2979,3.2802,3.246,3.1664,3.1976,0.0,0.0,3.0942,3.1306,3.0626,0.0,0.0,0.0,0.0,0.0,0.0,0.0,0.0,0.0,0.0,0.0,0.0,0.0,0.0,2.6353,2.567,2.5272,2.5252,2.3219,2.1493,2.0191,1.9507,1.9157,1.9157,1.9157,1.9157,1.9157,1.8841,1.872,1.8745,1.8899,1.8967,1.9026,1.9625,1.993,1.9948,1.9628,1.9514,1.9493,1.9493,1.9431,1.9383,1.9826,1.9901,1.9798,1.9798,1.9798,1.9798,1.9798,1.9798,1.9798,1.9798,1.9798,1.9798,1.9798,1.9798,1.9798,1.9798,1.9798,1.9798,1.9798,1.9798,1.9798,1.9798,1.9798,1.9798,1.9798,1.9798,1.9798,1.9798,1.9798,1.9798,1.9798,1.9798,1.9798,1.9798,1.9798,1.9798,1.9798,1.9798,1.9798,1.9798,1.9798,1.9798,1.9798,1.9798,1.9798,1.9798,1.9798,1.9798,1.9798,1.9798,1.9798,1.9798,1.9798,1.9798,1.9798,1.9798,1.9798,3.336,3.3241,3.3101,3.3086,3.2995,3.2622,3.1714,0.0,0.0,3.062,3.0935,3.1291,3.0613,3.0439,3.0439,3.0551,0.0,0.0,0.0,0.0,0.0,0.0,0.0,0.0,0.0,0.0,0.0,2.6716,2.5908,2.4902,2.3614,2.2731,2.1692,2.0411,1.9715,1.9376,1.9376,1.9376,1.9376,1.9376,1.9339,1.9387,1.9506,1.9523,1.9559,1.9639,2.0266,2.0533,0.0,2.0992,2.1175,2.1167,2.1167,2.0888,2.047,2.0522,2.0232,1.9798,1.9798,1.9798,1.9798,1.9798,1.9798,1.9798,1.9798,1.9798,1.9798,1.9798,1.9798,1.9798,1.9798,1.9798,1.9798,1.9798,1.9798,1.9798,1.9798,1.9798,1.9798,1.9798,1.9798,1.9798,1.9798,1.9798,1.9798,1.9798,1.9798,1.9798,1.9798,1.9798,1.9798,1.9798,1.9798,1.9798,1.9798,1.9798,1.9798,1.9798,1.9798,1.9798,1.9798,1.9798,1.9798,1.9798,1.9798,1.9798,1.9798,1.9798,1.9798,1.9798,1.9798,1.9798,3.314,3.3334,3.3271,3.3271,3.315,3.2655,3.1266,0.0,3.2035,3.0003,3.0593,3.1293,3.0613,3.0141,2.9976,3.0423,3.0125,2.9992,3.0439,0.0,0.0,0.0,0.0,0.0,0.0,0.0,2.7153,2.5716,2.5329,2.4505,2.3082,2.2455,2.1421,1.9841,1.9527,1.9395,1.9395,1.9395,1.9395,1.9395,1.9811,2.004,2.0113,2.0884,2.1238,2.1305,2.195,2.2042,0.0,2.196,2.188,2.1582,2.1582,2.1462,2.1269,2.1269,2.1113,2.0881,2.0881,2.0832,2.0708,2.0396,2.0283,2.0232,1.9901,1.9798,1.9798,1.9798,1.9798,1.9798,1.9798,1.9798,1.9798,1.9798,1.9798,1.9798,1.9798,1.9798,1.9798,1.9798,1.9798,1.9798,1.9798,1.9798,1.9798,1.9798,1.9798,1.9798,1.9798,1.9798,1.9798,1.9798,1.9798,1.9798,1.9798,1.9798,1.9798,1.9798,1.9798,1.9798,1.9798,1.9798,1.9798,1.9798,1.9798,1.9952,2.0283,1.9952,1.9978,2.0258,1.9952,1.9798,3.2741,3.3212,3.3393,3.3393,3.3241,3.2657,0.0,3.1633,3.1929,2.9591,3.0388,3.1293,3.0613,3.0075,2.9893,0.0,3.0059,2.991,3.0423,0.0,0.0,0.0,0.0,0.0,0.0,2.8103,2.6886,2.5197,2.5211,2.4646,2.3196,2.2892,2.1861,1.9878,1.9708,1.9725,1.9937,1.9823,1.9886,2.0097,2.0556,2.0867,2.105,2.1952,2.2463,2.2612,2.3091,2.3083,0.0,2.274,2.2521,2.217,2.217,2.2077,2.1922,2.1922,2.1819,2.1619,2.1609,2.1537,2.1393,2.0968,2.0734,2.0535,2.0156,1.9927,1.9798,1.9798,1.9798,1.9798,1.9798,1.9798,1.9798,1.9798,1.9798,1.9798,1.9798,1.9798,1.9798,1.9798,1.9927,1.9978,1.9824,2.0067,2.0169,1.985,1.9927,1.9978,1.9824,1.9798,1.9798,1.9798,1.9798,1.9798,1.9798,1.9798,1.9798,1.9798,2.0003,2.0105,2.0105,2.0257,2.0345,2.0345,2.0345,2.0559,2.093,2.0534,2.0522,2.087,2.0295,2.0029,3.2198,3.2795,3.3393,3.3393,3.3241,3.2657,0.0,3.1633,3.1929,2.9591,3.0388,3.1293,3.0613,3.0489,3.0489,3.0506,3.0489,3.0489,3.0506,0.0,0.0,0.0,0.0,0.0,2.9463,2.8125,2.6801,2.5586,2.5919,0.0,2.3967,2.4321,2.3407,2.0857,2.0395,2.0514,2.1157,2.0865,2.1017,2.168,2.168,2.1948,2.2471,2.2485,2.2799,2.3282,2.3297,2.3297,0.0,2.3297,2.3297,2.3275,2.3275,2.2957,2.2489,2.2489,2.2161,2.1687,2.1619,2.1609,2.1585,2.1441,2.1042,2.061,2.0585,2.0232,1.9798,1.9798,1.9798,1.9798,1.9798,1.9798,1.9798,1.9798,1.9798,1.9798,1.9798,1.9798,1.9798,1.9798,2.0232,2.0434,1.9901,2.0683,2.1028,1.9952,2.0258,2.0409,1.9875,1.9798,1.9798,1.9798,1.9798,1.9798,1.9798,1.9798,1.9798,1.9798,2.0421,2.0795,2.0795,2.1366,2.1673,2.1673,2.1673,2.1673,2.1697,2.1619,2.1585,2.1561,2.0894,2.0585,3.1271,3.1834,3.2433,3.2433,3.2295,3.2,3.1469,3.1991,3.2087,3.0294,3.0747,3.1293,3.0613,3.0506,3.0506,3.0506,3.0506,0.0,0.0,0.0,0.0,0.0,0.0,0.0,0.0,0.0,2.6398,2.6007,2.6132,2.5766,2.478,2.4852,2.3893,2.1555,2.1355,2.1398,2.16,2.1559,2.1848,2.2524,2.2717,2.2877,2.3051,2.3191,2.3351,2.3501,2.3501,2.3501,2.3501,2.3501,2.3501,2.3501,2.3501,2.3399,2.3253,2.3253,2.312,2.292,2.2912,2.2844,2.2672,2.2175,2.1894,2.168,2.1272,2.0522,1.9798,1.9798,1.9798,1.9798,1.9798,1.9798,1.9901,2.0258,2.0359,2.0459,2.0807,2.0906,2.0906,2.0906,2.1028,2.0957,2.0316,2.025,2.0141,1.9674,1.9869,1.9986,1.9753,2.0101,2.0207,1.9824,2.0194,2.0295,1.985,1.9798,2.0003,2.0446,2.0671,2.0979,2.139,2.1615,2.1697,2.1697,2.1697,2.1875,2.2253,2.1866,2.1663,2.1677,2.1923,2.1798,0.0,3.1168,3.1995,3.1963,3.2061,3.2063,3.1716,3.199,3.1969,3.0747,3.0935,3.1176,3.0773,3.0589,3.0506,3.0506,3.0609,0.0,0.0,0.0,0.0,0.0,0.0,0.0,0.0,2.7332,2.6501,2.6219,2.6202,2.5987,2.554,2.5524,2.4772,2.3101,2.2658,2.2556,2.2828,2.2702,2.2998,2.3666,2.3822,2.3904,2.39,2.4035,2.4021,2.3867,2.3867,2.3745,0.0,2.3595,2.3595,2.3595,2.3595,2.3595,2.3595,2.3595,2.3566,2.3538,2.3509,2.3466,2.3297,2.2822,2.2512,2.2198,2.1633,2.0979,2.0408,2.0408,2.0408,2.0408,2.0408,2.0408,2.0497,2.082,2.0894,2.0993,2.1321,2.1393,2.1393,2.1393,2.1575,2.1431,2.0549,2.0524,2.0366,1.9597,1.9623,1.9724,1.971,1.9879,2.0039,2.0156,2.0547,2.0708,2.0546,2.0521,2.0682,2.1113,2.1393,2.1704,2.2053,2.2308,2.2409,2.2409,2.2409,2.2583,2.292,2.281,2.263,2.2394,2.3281,2.3366,0.0,3.0618,3.1804,3.1796,3.2248,3.2497,3.1749,3.1758,0.0,3.1028,3.0987,3.1055,3.1035,3.0744,3.0485,3.0485,3.0751,0.0,0.0,0.0,0.0,0.0,2.9884,0.0,2.8497,2.7748,2.7,2.6252,2.6202,2.6202,2.6202,2.6202,2.5887,2.5209,2.4209,2.3971,2.4536,2.4175,2.4319,2.4981,2.4962,2.4942,2.4942,2.4902,2.4699,0.0,2.4343,2.4078,2.3638,2.3681,2.3659,2.3595,2.3653,2.3616,2.3595,2.3595,2.3595,2.3588,2.3538,2.3509,2.3487,2.3363,2.2889,2.2291,2.1846,2.1561,2.1393,2.1393,2.1393,2.1393,2.1393,2.1393,2.1417,2.1441,2.1465,2.1465,2.1489,2.1513,2.1513,2.1513,2.1898,2.1881,2.0712,2.131,2.1434,1.9842,1.9649,1.9674,1.9748,1.941,1.9592,2.0677,2.0868,2.1161,2.1734,2.1734,2.172,2.1781,2.2346,2.2717,2.2762,2.3312,2.3595,2.3595,2.3655,2.367,2.367,2.4276,2.4267,2.3669,2.4842,2.5097,2.8387,0.0,3.0123,3.0564,3.0729,3.1041,0.0,3.2315,3.2162,0.0,0.0,3.1618,3.1408,3.0834,3.0349,3.0349,0.0,0.0,0.0,0.0,0.0,0.0,3.0224,2.9506,2.8787,2.7846,2.7,2.6252,2.6202,2.6202,2.6202,2.6202,2.6119,2.5937,2.5701,2.5369,2.4956,2.487,2.5178,2.5881,2.5535,2.5351,2.5351,2.504,2.4843,2.4759,2.4759,2.4517,2.4162,2.4477,2.4214,2.3653,2.3994,2.3909,2.3595,2.3595,2.3595,2.3595,2.3588,2.3588,2.3566,2.3473,2.3275,2.3038,2.2934,2.2198,2.1393,2.1393,2.1393,2.1393,2.1393,2.1393,2.1489,2.1898,2.1992,2.21,2.2486,2.2555,2.2555,2.2555,2.2646,2.2505,2.1748,2.1532,2.1282,2.0741,2.0401,2.0192,2.0155,2.0569,2.0795,2.0654,2.1616,2.2314,2.2452,2.1993,2.1922,2.2429,2.2603,2.2897,2.3377,2.353,2.3595,2.3595,2.4096,2.4365,2.4365,2.5015,2.5259,2.5141,2.5929,2.5949,2.7956,2.8811,2.9894,3.0214,3.0525,3.0956,3.1766,0.0,0.0,0.0,0.0,0.0,3.1106,3.0702,0.0,0.0,3.0944,0.0,0.0,0.0,0.0,3.1232,3.059,2.9827,0.0,2.8176,2.7346,2.6605,2.6555,2.6555,2.6555,2.6555,2.6555,2.6555,2.6555,2.625,2.5624,2.559,2.5805,2.6202,2.5937,2.5811,2.5811,2.5589,2.5384,2.5195,2.5195,2.4942,2.4578,2.4803,2.4623,2.4194,2.4266,2.4156,2.3909,2.3681,2.3595,2.3595,2.3595,2.3595,2.3595,2.3545,2.3473,2.3385,2.3385,2.2867,2.2258,2.2203,2.2133,2.2086,2.2086,2.2086,2.2156,2.2463,2.2509,2.2592,2.2843,2.2888,2.2888,2.2888,2.2888,2.2722,2.2106,2.1801,2.1506,2.1146,2.0747,2.0592,2.0861,2.1062,2.1268,2.154,2.2267,2.2938,2.3515,2.2952,2.2733,2.3098,2.3098,2.3268,2.3588,2.3595,2.3744,2.4036,2.441,2.4754,2.5053,2.5734,2.6063,2.6078,2.6761,2.6866,2.8017,2.9006,3.0274,3.026,3.0875,3.1407,3.1244,0.0,0.0,0.0,0.0,0.0,0.0,0.0,0.0,0.0,0.0,0.0,0.0,0.0,0.0,3.156,3.1012,0.0,2.9521,2.8733,2.7947,2.7228,2.7057,2.7006,2.7006,2.7006,2.7006,2.7006,2.7006,2.6775,2.6257,2.6257,2.6239,2.6202,2.6202,2.6202,2.6202,2.6202,2.599,2.5612,2.5612,0.0,2.5001,2.5059,2.502,2.4863,2.4578,2.4451,2.4328,2.3958,2.3809,2.3788,2.3724,2.3659,2.3595,2.3595,2.3545,2.3531,2.3531,2.3429,2.3297,2.3194,2.3045,2.2955,2.2955,2.2955,2.2955,2.2955,2.2955,2.2955,2.2955,2.2955,2.2955,2.2955,2.2955,2.2803,2.2302,2.2287,2.2149,2.1603,2.1331,2.1334,2.1801,2.1535,2.1688,2.2719,2.2931,2.3426,2.4515,2.4156,2.3909,2.3909,2.3714,2.3655,2.3744,2.3759,2.4066,2.4739,2.4844,2.5173,2.5749,2.6422,2.6761,2.6776,2.7345,2.76,2.8279,2.9227,3.012,3.0138,3.0683,3.1244,3.1211,0.0,0.0,0.0,0.0,0.0,0.0,0.0,0.0,0.0,0.0,3.1202,0.0,0.0,3.184,3.184,0.0,3.1373,3.0629,2.9626,2.8733,2.7998,2.7348,2.7006,2.7006,2.7006,2.7006,2.7006,2.7006,2.6842,2.6537,2.6537,2.6433,2.6202,2.6202,2.6202,2.6202,2.6202,2.6168,2.6097,0.0,2.583,2.5446,2.5828,2.5567,2.4922,2.5198,2.5118,2.4799,2.4724,2.4704,2.4643,2.4307,2.3931,2.3595,2.3595,2.3595,2.3573,2.3573,2.3523,2.3466,2.3444,2.3341,2.3231,2.3231,2.3231,2.3231,2.3231,2.3231,2.3231,2.3231,2.3231,2.3231,2.3231,2.3231,2.3201,2.312,2.3555,2.3739,2.3083,2.3407,2.3561,2.3106,2.3084,2.3157,2.3363,2.3933,2.4395,2.4567,2.5023,2.53,2.53,2.4223,2.3864,2.4425,2.4455,2.4754,2.5427,2.6004,2.6333,2.6437,2.7121,2.745,2.745,2.754,2.76,2.7973,2.8747,2.9562,2.9985,3.065,3.1089,3.0703,0.0,0.0,0.0,0.0,0.0,0.0,0.0,0.0,0.0,0.0,3.2371,3.272,3.2406,3.2161,0.0,0.0,3.1865,3.1096,3.0211,2.9363,2.8599,2.7818,2.7384,2.7384,2.7384,2.7384,2.7384,2.7384,2.726,2.7039,2.7023,2.6825,2.6415,2.6555,2.6572,2.6415,2.6415,2.6345,2.6202,0.0,2.6079,2.5901,2.6097,2.597,2.5605,2.5519,2.5389,2.5198,2.4981,2.4902,2.4863,2.4679,2.4333,2.4034,2.4398,2.4346,2.4201,2.4582,2.4664,2.4559,2.4216,2.3978,2.3755,2.3386,2.3563,2.3755,2.3386,2.3297,2.34,2.3769,2.3843,2.3946,2.4323,2.4382,2.4382,2.4382,2.4625,2.4752,2.4481,2.4688,2.4824,2.4573,2.4588,2.4634,2.4634,2.4925,2.5277,2.5659,2.563,2.5615,2.5615,2.5031,2.4822,2.5128,2.5128,2.5465,2.6123,2.6437,2.6791,2.7151,2.745,2.76,2.76,2.76,2.76,2.7716,2.8345,2.9053,2.9667,3.0387,3.0843,3.0457,0.0,0.0,0.0,0.0,0.0,0.0,0.0,0.0,3.309,3.3388,3.3441,3.3284,3.2757,3.2406,3.2406,3.2406,3.216,3.1528,3.065,2.9843,2.9228,2.8263,2.7701,2.7701,2.7701,2.7701,2.7701,2.7701,2.7597,2.7404,2.745,2.7198,2.6708,2.6891,2.6875,2.6691,2.6623,2.6485,2.6292,2.6238,2.6202,2.6202,2.6202,2.6202,2.6168,2.5811,2.5782,2.5875,2.5587,2.5508,2.5552,2.5552,2.5287,2.5046,2.5551,2.5483,2.5265,2.5804,2.5955,2.5826,2.5333,2.5093,2.4752,2.3644,2.3748,2.3999,2.3481,2.3385,2.3541,2.4236,2.4369,2.4562,2.5236,2.537,2.537,2.537,2.5488,2.5556,2.545,2.5711,2.5908,2.583,2.5839,2.5839,2.5839,2.5839,2.6108,2.6791,2.6363,2.6063,2.6063,2.5779,2.5674,2.5839,2.5839,2.6153,2.6811,2.6811,2.7091,2.76,2.76,2.76,2.76,2.76,2.76,2.796,2.8479,2.8912,2.8983,2.9597,0.0,3.0984,3.0598,0.0,0.0,0.0,0.0,0.0,3.2353,3.3143,3.2564,3.3038,3.3266,3.2581,0.0,3.2406,3.2406,3.2406,3.2371,3.2318,3.0984,3.0088,3.0036,2.8579,2.7701,2.7701,2.7701,2.7701,2.7701,2.7701,2.7597,2.7404,2.76,2.7446,2.6973,2.6989,2.6989,2.6957,2.6708,2.6606,2.6571,2.631,2.6202,2.6202,2.6202,2.6202,2.6202,2.6168,2.6581,2.7179,2.7143,2.7273,2.751,2.751,2.7244,2.692,2.6952,2.6962,2.6919,2.6967,2.6983,2.6983,2.6919,2.701,2.6543,2.4198,2.3618,2.3633,2.3588,2.3573,2.3767,2.4433,2.4582,2.4776,2.5457,2.5591,2.5591,2.5591,2.6084,2.6294,2.5681,2.6647,2.7215,2.6602,2.6512,2.6512,2.6512,2.6512,2.6806,2.7465,2.748,2.745,2.745,2.6288,2.5884,2.6497,2.6512,2.6851,2.751,2.7525,2.754,2.76,2.76,2.76,2.76,2.76,2.76,2.7559,2.7896,2.8263,2.8789,0.0,0.0,0.0,0.0,0.0,0.0,0.0,0.0,0.0,0.0,3.3406,3.3125,3.3318,3.3406,3.3125,3.2704,3.2406,3.2406,3.2406,3.2406,3.2406,3.1019,3.0106,3.0106,2.8614,2.7701,2.7701,2.7701,2.7701,2.7701,2.7701,2.7657,2.76,2.7657,2.7612,2.7446,2.7446,2.7369,2.7263,2.7152,2.7006,2.6842,2.6742,2.6708,2.6708,2.6708,2.6589,2.6433,2.6273,2.6651,2.7298,2.7298,2.7651,2.8125,2.8125,2.785,2.7531,2.7944,2.7934,2.7797,2.8218,2.8345,2.825,2.7844,2.7775,2.7413,2.5768,2.5085,2.4852,2.4852,2.4537,2.4515,2.5615,2.5839,2.6033,2.6692,2.6851,2.6851,2.6851,2.7061,2.7151,2.6896,2.7285,2.751,2.7255,2.7225,2.7225,2.7225,2.7225,2.733,2.757,2.76,2.76,2.76,2.7121,2.6971,2.721,2.7225,2.7345,2.76,2.76,2.76,2.76,2.76,2.76,2.76,2.76,2.76,2.7283,2.7476,2.7824,0.0,0.0,0.0,0.0,0.0,0.0,0.0,0.0,0.0,0.0,0.0,0.0,0.0,3.3442,3.3564,3.33,3.2943,3.269,3.269,3.259,3.2574,3.2673,3.1195,3.026,3.0351,2.8788,2.7844,2.7844,2.7742,2.7701,2.7701,2.7701,2.7701,2.7701,2.7701,2.7701,2.7701,2.7701,2.7627,2.7494,2.7434,2.731,2.7119,2.7038,2.7006,2.7006,2.7006,2.7027,2.7063,2.6873,2.7406,2.8278,2.8167,2.8596,2.921,2.9092,2.884,2.8645,2.913,2.9086,2.8946,2.9406,2.9528,2.9454,2.8994,2.874,2.8468,2.7684,2.6664,2.5855,2.5855,2.5371,2.5217,2.6348,2.6587,2.6806,2.7465,2.76,2.76,2.76,2.76,2.76,2.76,2.76,2.76,2.76,2.76,2.76,2.76,2.76,2.76,2.76,2.76,2.76,2.76,2.76,2.76,2.76,2.76,2.76,2.76,2.76,2.76,2.76,2.76,2.76,2.76,2.76,2.76,2.7194,2.7353,2.7701,0.0,0.0,0.0,0.0,0.0,0.0,0.0,0.0,0.0,3.2457,0.0,0.0,3.258,3.3312,3.3706,3.292,3.3093,3.3306,3.3306,3.3016,3.2954,3.3276,3.1604,3.0614,3.0885,2.9156,2.8098,2.8098,2.784,2.7716,2.7716,2.7716,2.7716,2.7716,2.7716,2.7698,2.7698,2.7701,2.7701,2.7701,2.7494,2.7404,2.7388,2.7119,2.7006,2.7006,2.7006,2.7433,2.81,2.81,2.9041,3.0354,3.0038,3.0376,3.0955,3.063,3.0489,3.0489,3.0506,3.0506,3.0506,3.0506,3.0506,3.0506,3.0506,3.0156,2.981,2.981,2.8129,2.6432,2.6416,2.6009,2.5794,2.6452,2.6602,2.6821,2.7465,2.76,2.76,2.76,2.76,2.76,2.76,2.76,2.76,2.76,2.76,2.76,2.76,2.76,2.76,2.76,2.76,2.76,2.76,2.76,2.76,2.76,2.76,2.76,2.76,2.76,2.76,2.76,2.76,2.76,2.76,2.76,2.76,2.7074,2.7353,0.0,0.0,0.0,0.0,0.0,0.0,0.0,0.0,0.0,3.2718,3.2457,0.0,0.0,3.277,3.3154,3.3409,3.319,3.3247,3.3306,3.3306,3.3214,3.3184,3.3291,3.1773,3.0802,3.0898,2.9331,2.8389,2.8389,2.8311,2.8259,2.8259,2.8259,2.8259,2.8259,2.8075,2.7978,2.7978,2.78,2.7701,2.7701,2.7642,2.7597,2.7615,2.7537,2.7491,2.7491,2.734,2.7726,2.8367,2.8168,2.9041,3.0391,3.0299,3.0721,3.1293,3.0975,3.0855,3.0814,3.0589,3.0506,3.0506,3.0506,3.0506,3.0506,3.0506,3.0405,3.03,3.03,2.9551,2.8615,2.7891,2.6988,2.6482,2.7165,2.73,2.736,2.7555,2.76,2.76,2.76,2.76,2.76,2.76,2.76,2.76,2.76,2.76,2.76,2.76,2.76,2.76,2.76,2.76,2.76,2.76,2.76,2.76,2.76,2.76,2.76,2.76,2.76,2.76,2.76,2.76,2.76,2.76,2.76,2.76,2.7091,0.0,0.0,0.0,0.0,0.0,0.0,0.0,0.0,0.0,0.0,3.2939,3.2786,3.3157,0.0,3.3063,3.3273,3.3494,3.3494,3.3592,3.3657,3.3657,3.3564,3.3409,3.3204,3.1886,3.0985,3.0789,2.9491,2.8713,2.8713,2.8566,2.8504,2.8504,2.8504,2.8504,2.8504,2.835,2.8206,2.8102,2.794,2.7815,2.7701,2.7701,2.7701,2.7719,2.8035,2.8175,2.8178,2.839,2.8919,2.9565,2.9399,3.0093,3.1164,3.1039,3.1294,3.1617,3.131,3.1114,3.0975,3.0773,3.0609,3.0506,3.0506,3.0506,3.0506,3.0506,3.0506,3.0506,3.0506,3.0156,2.9661,2.9042,2.8233,2.7708,2.8097,2.8189,2.8125,2.7919,2.7894,2.782,2.7635,2.76,2.76,2.76,2.76,2.76,2.76,2.76,2.76,2.76,2.76,2.76,2.76,2.76,2.76,2.76,2.76,2.76,2.76,2.76,2.76,2.76,2.76,2.76,2.76,2.76,2.76,2.76,2.76,2.76,2.7177,0.0,0.0,0.0,0.0,0.0,0.0,0.0,0.0,0.0,0.0,3.3335,3.3306,3.3592,3.3734,3.3408,3.3606,3.3847,3.3847,3.4049,3.4197,3.4197,3.3911,3.3547,3.3052,3.193,3.1053,3.062,2.964,2.9026,2.9026,2.8749,2.8578,2.8578,2.8578,2.8578,2.8578,2.8554,2.8428,2.8183,2.8156,2.7992,2.7745,2.7698,2.7736,2.7841,2.8579,2.8947,2.907,2.9808,3.0527,3.1194,3.1194,3.1686,3.2354,3.2073,3.1948,3.1912,3.1635,3.1349,3.1075,3.1015,3.0794,3.0547,3.0506,3.0506,3.0506,3.0506,3.0506,3.0506,3.0506,3.0177,2.9859,2.9859,2.9461,2.9097,2.9097,2.9097,2.8958,2.8472,2.836,2.8231,2.781,2.7685,2.7635,2.7625,2.76,2.76,2.76,2.76,2.7615,2.769,2.769,2.772,2.7779,2.7779,2.775,2.769,2.775,2.775,2.769,2.763,2.76,2.76,2.76,2.76,2.76,2.76,2.76,2.76,2.76,2.76,0.0,2.7661,0.0,0.0,0.0,0.0,0.0,0.0,0.0,0.0,3.3273,3.3606,3.335,3.3757,3.4023,3.3734,3.3934,3.4111,3.4111,3.4161,3.4197,3.4197,3.3592,3.3135,3.3008,3.1644,3.0706,3.0604,2.98,2.9315,2.9315,2.9243,2.9222,2.9222,2.9222,2.9222,2.9222,2.8996,2.8868,2.8791,2.8547,2.8272,2.8006,2.78,2.8035,2.8649,2.8825,2.9263,2.986,3.0036,3.0527,3.1194,3.1194,3.1686,3.2388,3.2319,3.2284,3.2249,3.193,3.1766,3.1618,3.1137,3.0955,3.0855,3.0572,3.0506,3.0506,3.0506,3.0506,3.0506,3.0506,3.0426,3.0342,3.0342,2.9705,2.9097,2.9097,2.9097,2.9074,2.8958,2.8935,2.8912,2.8795,2.8439,2.8027,2.766,2.76,2.76,2.76,2.76,2.7809,2.8323,2.8382,2.8592,2.9142,2.9172,2.8963,2.8412,2.8888,2.8921,2.8397,2.7884,2.76,2.76,2.76,2.76,2.76,2.76,2.76,2.76,2.76,2.76,0.0,0.0,0.0,0.0,0.0,0.0,0.0,0.0,0.0,3.3288,3.3564,3.3788,3.3738,3.3992,3.4161,3.4011,3.4111,3.4197,3.4197,3.4197,3.4048,3.3658,3.325,3.2704,3.1924,3.1087,3.0437,3.0047,2.9638,2.9396,2.9396,2.9396,2.9396,2.9396,2.9396,2.9396,2.9396,2.9262,2.9134,2.9003,2.8827,2.8802,2.8892,2.8467,2.8719,2.9492,2.9843,3.0246,3.065,3.1036,3.1423,3.1774,3.1774,3.2037,3.2406,3.2406,3.2406,3.2388,3.2214,3.202,3.184,3.1524,3.1351,3.1213,3.1038,3.0858,3.0753,3.0753,3.0613,3.0506,3.0506,3.0506,3.0506,3.0506,3.0135,2.9772,2.9772,2.9772,2.9705,2.9483,2.9438,2.928,2.8803,2.8304,2.7894,2.765,2.76,2.76,2.76,2.7884,2.8203,2.8562,2.8891,2.9205,2.9577,2.9845,2.972,2.9112,2.9648,2.9705,2.9112,2.8753,2.8408,2.8094,2.7764,2.76,2.76,2.76,2.76,2.76,2.76,2.76,0.0,0.0,0.0,0.0,0.0,0.0,0.0,0.0,0.0,3.3855,3.3868,3.3934,3.4161,3.4197,3.4209,3.4221,3.4221,3.4165,3.4047,3.414,3.388,3.2932,3.282,3.2244,3.0767,3.0488,3.0134,2.9465,2.9427,2.9409,2.9399,2.9388,2.9407,2.9407,2.9396,2.9396,2.9396,2.9396,2.9294,2.9078,2.9014,2.9362,3.0044,2.9483,2.968,3.0508,3.1108,3.1444,3.1604,3.2208,3.2473,3.2456,3.2405,3.2406,3.2406,3.2406,3.2406,3.2406,3.2406,3.2214,3.1984,3.1912,3.1765,3.156,3.1504,3.131,3.1075,3.1015,3.0814,3.0572,3.0526,3.0506,3.0506,3.0506,3.0506,3.0506,3.0506,3.0506,3.0384,3.0006,3.0016,2.9794,2.8809,2.8474,2.8238,2.783,2.7941,2.8072,2.8092,2.8463,2.885,2.918,2.9614,2.9952,3.0057,3.0483,3.0475,2.9798,3.0274,3.0342,2.9771,2.9771,2.9445,2.8786,2.8124,2.772,2.76,2.76,2.76,2.76,2.76,2.76,0.0,0.0,0.0,0.0,0.0,0.0,0.0,0.0,3.3855,0.0,3.4148,3.4161,3.4197,3.4197,3.4221,3.4281,3.4281,3.4051,3.3426,3.3933,3.3821,3.231,3.2131,3.175,3.0779,3.0051,2.9603,2.9491,2.9501,2.9453,2.9402,2.9392,2.9401,2.9407,2.9396,2.9396,2.9396,2.9396,2.9386,2.9336,2.9112,2.9739,3.1095,3.0776,3.1091,3.1931,3.2022,3.2441,3.2994,3.2807,3.2749,3.2716,3.249,3.2406,3.2406,3.2406,3.2406,3.2406,3.2406,3.2371,3.2301,3.2002,3.1876,3.1803,3.156,3.1483,3.137,3.1075,3.0975,3.0875,3.0589,3.0506,3.0506,3.0506,3.0506,3.0506,3.0506,3.0506,3.0468,3.0405,3.0917,3.1062,3.0109,3.0744,3.0734,2.8766,2.9252,2.9882,3.0007,2.9557,2.9847,3.1532,3.1378,3.1382,3.1965,3.2093,3.1613,3.0445,3.0983,3.1057,3.0402,3.0372,3.0088,2.9487,2.8801,2.8173,2.76,2.76,2.76,2.76,2.76,2.76,2.7913,0.0,0.0,0.0,0.0,0.0,0.0,0.0,3.4124,3.4281,3.4305,3.4293,3.4257,3.4281,3.4316,3.434,3.3985,3.3568,3.3254,3.3123,3.2655,3.1569,3.1447,3.1318,3.1013,3.0248,2.9964,3.0426,3.0021,2.9715,2.957,2.9561,2.9531,2.9401,2.9399,2.9396,2.9396,2.9396,2.9396,2.9415,3.0191,3.093,3.1609,3.2397,3.2783,3.2814,3.2814,3.2995,3.3291,3.3139,3.297,3.2797,3.2669,3.254,3.2406,3.2406,3.2406,3.2406,3.2406,3.2406,3.2388,3.2232,3.2179,3.2161,3.2054,3.1857,3.1674,3.156,3.1254,3.0975,3.0814,3.0634,3.0605,3.1019,3.1118,3.1217,3.1636,3.109,3.0621,3.1035,3.1501,3.1701,3.1267,3.1085,3.0776,3.0142,3.0127,3.0346,3.0786,3.0908,3.1265,3.2117,3.2337,3.254,3.281,3.2841,3.2474,3.1637,3.184,3.1886,3.1566,3.1551,3.1092,3.0068,2.9091,2.8263,2.76,2.76,2.765,2.77,2.77,2.7765,0.0,0.0,0.0,0.0,0.0,0.0,0.0,0.0,3.434,0.0,3.4397,3.4439,3.4431,3.4446,3.4412,3.4206,3.3706,3.3204,3.2791,3.2406,3.1807,3.0879,3.0972,3.1145,3.1249,3.0506,3.0373,3.1188,3.0487,2.995,2.9799,2.9741,2.9644,2.9474,2.9421,2.9388,2.9396,2.9396,2.9396,2.9415,3.0827,3.1608,3.1849,3.3262,3.3751,3.3532,3.3532,3.3532,3.3518,3.3465,3.3229,3.2905,3.2827,3.2638,3.2406,3.2406,3.2406,3.2406,3.2406,3.2406,3.2406,3.2406,3.2406,3.2406,3.2406,3.2232,3.2002,3.1912,3.1581,3.1196,3.1035,3.0948,3.1008,3.1487,3.1747,3.2034,3.2564,3.1835,3.1267,3.2012,3.2305,3.2411,3.2293,3.1628,3.1174,3.1426,3.1102,3.111,3.1828,3.2217,3.2538,3.2839,3.3208,3.3371,3.3209,3.3182,3.2922,3.2203,3.2176,3.2231,3.2398,3.2398,3.1844,3.0658,2.9591,2.863,2.7785,2.7929,2.7993,2.7974,2.8008,2.8014,0.0,0.0,0.0,0.0,0.0,0.0,0.0,0.0,3.4404,3.4386,3.445,3.4542,3.4733,3.4733,3.442,3.3676,3.3674,3.3233,3.171,3.2111,3.1966,3.0336,3.0875,3.1378,3.1396,3.0605,3.0452,3.1319,3.0586,3.0061,2.9991,2.9864,2.975,2.9699,2.9493,2.9401,2.9407,2.9396,2.9396,2.9396,3.0251,3.105,3.1831,3.2685,3.3461,3.4142,3.4142,3.4142,3.4117,3.3881,3.3583,3.3229,3.2921,3.2638,3.2406,3.2406,3.2406,3.2406,3.2406,3.2406,3.2406,3.2406,3.2406,3.2406,3.2406,3.2388,3.2319,3.1984,3.1876,3.1711,3.1154,3.15,3.1955,3.1684,3.2133,3.2652,3.2702,3.2652,3.2818,3.3524,3.3707,3.3561,3.312,3.3348,3.3285,3.2294,3.2374,3.2915,3.3834,3.3371,3.3421,3.4631,3.4358,3.3815,3.3251,3.3182,3.2734,3.1611,3.1568,3.1796,3.237,3.2398,3.2031,3.1258,3.0622,2.9627,2.8264,2.8826,2.8888,2.8479,2.8606,2.8407,0.0,0.0,0.0,0.0,0.0,0.0,3.3124,3.3878,3.4484,3.4517,3.4658,3.4621,3.4112,3.4008,3.3932,3.3783,3.2907,3.205,3.1474,3.1183,3.0805,3.0292,3.049,3.1181,3.2362,3.1232,3.1,3.2393,3.1212,3.0344,3.0196,3.0028,2.988,2.9758,2.9532,2.9401,2.9407,2.9396,2.9396,2.9396,3.0214,3.1013,3.1831,3.263,3.3436,3.4197,3.4197,3.4197,3.4197,3.4099,3.3876,3.3597,3.3243,3.2923,3.2638,3.2456,3.2406,3.2406,3.2406,3.2406,3.2406,3.2406,3.2406,3.2406,3.2406,3.2406,3.2371,3.2249,3.2438,3.2563,3.2088,3.2371,3.2853,3.2984,3.3574,3.4104,3.4104,3.3723,3.3475,3.374,3.417,3.4454,3.4272,3.4011,3.3822,3.3933,3.363,3.371,3.4511,3.4388,3.4394,3.4842,3.4732,3.4546,3.4317,3.3993,3.3594,3.3193,3.2465,3.2492,3.3455,3.2792,3.2031,3.1258,3.177,3.1013,2.8872,2.8787,2.8857,2.9065,2.8912,2.8787,2.7521,0.0,0.0,0.0,0.0,0.0,3.3074,0.0,3.422,3.4545,3.471,3.4576,3.3844,3.3454,3.323,3.3138,3.2234,3.1443,3.1175,3.0625,3.0303,3.0389,3.04,3.1006,3.2522,3.141,3.1178,3.2565,3.1391,3.053,3.04,3.0216,3.0006,2.9809,2.9532,2.9392,2.9399,2.9407,2.9527,2.9805,3.0623,3.1422,3.224,3.3039,3.3677,3.4197,3.4197,3.4197,3.4197,3.4197,3.4049,3.3793,3.355,3.3199,3.2781,3.2606,3.2473,3.2406,3.2406,3.2406,3.2406,3.2406,3.2406,3.2406,3.2406,3.2406,3.2441,3.2704,3.2983,3.3199,3.3102,3.3421,3.3892,3.4387,3.4798,3.5071,3.5071,3.4595,3.4154,3.4154,3.4551,3.4899,3.4899,3.4286,3.4038,3.4783,3.427,3.4054,3.48,3.4899,3.4899,3.4899,3.4899,3.4828,3.4643,3.43,3.4009,3.3815,3.3097,3.3097,3.4075,3.3377,3.2718,3.216,3.2733,3.206,3.0057,2.9804,2.9669,2.9645,2.9512,2.9325,0.0,0.0,0.0,0.0,0.0,0.0,3.3606,0.0,3.3588,3.4395,3.4575,3.4418,3.3944,3.318,3.2385,3.168,3.1675,3.1483,3.0714,3.0598,3.0598,3.0598,3.0598,3.0926,3.1715,3.1081,3.0926,3.1734,3.1043,3.0598,3.0598,3.0419,3.0138,2.9817,2.9542,2.9402,2.9402,2.9399,2.9787,3.0604,3.1385,3.2202,3.3039,3.3807,3.4179,3.4197,3.4197,3.4197,3.4197,3.4197,3.4049,3.382,3.3788,3.3404,3.2827,3.2811,3.2638,3.2405,3.2405,3.2423,3.2406,3.2406,3.2406,3.2406,3.2406,3.2406,3.2546,3.3301,3.3529,3.365,3.414,3.4588,3.5078,3.5736,3.5638,3.5402,3.5402,3.5142,3.4899,3.4899,3.4899,3.4899,3.4899,3.4303,3.4071,3.4783,3.4286,3.4087,3.48,3.4899,3.4899,3.4899,3.4899,3.4691,3.4176,3.4126,3.3866,3.3303,3.3251,3.3501,3.4101,3.4101,3.4048,3.397,3.3416,3.2655,3.1786,3.1913,3.1361,3.021,3.0426,3.0011,2.6891,0.0,0.0,0.0,0.0,0.0,0.0,0.0,3.2705,3.3569,3.3815,3.3695,3.3075,3.2888,3.2398,3.1088,3.0902,3.0849,3.0636,3.0598,3.0598,3.0598,3.0598,3.0926,3.1715,3.1081,3.0926,0.0,3.1043,3.0598,3.0598,3.0315,3.0047,2.9809,2.9626,2.9501,2.9402,2.9392,2.98,3.0604,3.0827,3.1663,3.302,3.3231,3.364,3.4197,3.4197,3.4197,3.4197,3.4197,3.4161,3.4074,3.3868,3.3694,3.3494,3.3243,3.2954,3.2685,3.2685,3.2556,3.2406,3.2406,3.2406,3.2406,3.2406,3.2406,3.2546,3.3283,3.3933,3.4596,3.5615,3.5738,3.5625,3.556,3.547,3.5333,3.5095,3.497,3.4899,3.4899,3.4899,3.4899,3.4899,3.4717,3.4651,3.4866,3.4717,3.4667,3.4866,3.4899,3.4899,3.4899,3.4899,3.4851,3.4691,3.4667,3.4618,3.444,3.4068,3.4109,3.4667,3.3901,3.3411,3.3345,3.3137,3.2414,3.1165,3.1331,3.1141,3.0564,3.0924,3.0555,0.0,0.0,0.0,0.0,0.0,0.0,3.075,3.1291,3.1842,0.0,3.2929,3.2787,3.2218,3.2204,3.1911,3.0781,3.0598,3.0598,3.0598,3.0598,3.0598,3.0598,3.0598,3.0772,3.1255,3.0888,3.0791,3.125,3.0868,3.0598,3.0598,3.0279,3.0059,2.992,2.9699,2.9718,2.9987,2.96,3.0155,3.1641,3.1266,3.1942,3.3491,3.3491,3.3751,3.4197,3.4197,3.4197,3.4197,3.4197,3.4197,3.4185,3.4023,3.3895,3.378,3.3583,3.3214,3.2795,3.2795,3.2621,3.2406,3.2406,3.2406,3.2406,3.2406,3.2616,3.302,3.3792,3.4793,3.5808,3.6541,3.6512,3.6308,3.6114,3.5963,3.5761,3.5385,3.5218,3.5071,3.4923,3.4899,3.4899,3.4899,3.4899,3.4899,3.4899,3.4899,3.4899,3.4899,3.4899,3.4899,3.4899,3.4899,3.4899,3.4899,3.4899,3.4899,3.4899,3.4594,3.4594,3.497,3.4366,3.3965,3.393,3.3906,3.3325,3.2177,3.1753,3.129,3.0831,3.1352,3.1172,0.0,0.0,0.0,0.0,0.0,0.0,3.0779,3.0917,3.0968,0.0,3.1973,3.1845,3.1466,3.1405,3.1224,3.0685,3.0602,3.0602,3.0598,3.0602,3.0602,3.0598,3.0602,3.0602,3.0598,3.0598,3.0598,3.0598,3.0598,3.0598,3.0598,3.0279,3.0109,3.0109,2.9779,2.9982,3.0797,2.9958,3.0745,3.3105,3.2311,3.2741,3.4209,3.4209,3.4197,3.4197,3.4197,3.4197,3.4197,3.4197,3.4197,3.4197,3.4197,3.4049,3.3842,3.3842,3.3447,3.2905,3.2858,3.2687,3.244,3.2405,3.2406,3.2406,3.2406,3.2915,3.3687,3.4565,3.5883,3.7007,3.7007,3.7007,3.6987,3.695,3.667,3.6339,3.5929,3.5571,3.5264,3.497,3.4899,3.4899,3.4899,3.4899,3.4899,3.4899,3.4899,3.4899,3.4899,3.4899,3.4899,3.4899,3.4899,3.4899,3.4899,3.4899,3.4899,3.4899,3.4923,3.497,3.5065,3.5088,3.5088,3.5065,3.4998,3.4599,3.3883,3.266,3.1729,3.1127,3.1863,3.1914,0.0,0.0,0.0,0.0,0.0,0.0,2.9252,2.955,2.9978,0.0,3.1137,3.1195,3.1371,3.1391,3.1213,3.0694,3.06,3.0601,3.0602,3.0597,3.0601,3.0602,3.0597,3.0601,3.0598,3.0598,3.0598,3.0598,3.0598,3.0598,3.0598,3.0279,3.0109,3.0109,2.9832,3.0049,3.0797,3.0617,3.141,3.319,3.2956,3.335,3.4281,3.4221,3.4197,3.4197,3.4197,3.4197,3.4197,3.4197,3.4197,3.4197,3.4197,3.4173,3.4124,3.4124,3.3902,3.3564,3.3306,3.2986,3.2685,3.2473,3.2406,3.2406,3.2406,3.2915,3.3792,3.5178,3.6268,3.7007,3.7007,3.7007,3.6928,3.6667,3.6284,3.5907,3.5588,3.5241,3.4994,3.4923,3.4899,3.4899,3.4899,3.4899,3.4899,3.4899,3.4899,3.4899,3.4899,3.4899,3.4899,3.4899,3.4899,3.4899,3.4899,3.4899,3.4899,3.4899,3.4994,3.5018,3.4947,3.5041,3.5041,3.4947,3.4366,3.3748,3.3117,3.2741,3.229,3.1834,3.294,3.2907,0.0,0.0,0.0,2.773,0.0,0.0,0.0,2.8993,2.9454,3.0044,3.0226,3.0376,3.0651,3.0703,3.0661,3.0518,3.053,3.0545,3.0559,3.0573,3.0595,3.0601,3.0591,3.077,3.1216,3.0858,3.0598,3.0598,3.0598,3.0598,3.0598,3.0279,3.0109,3.0109,3.0237,3.0668,3.1427,3.1444,3.2256,3.3844,3.3377,3.3568,3.434,3.4281,3.4245,3.4245,3.4209,3.4197,3.4197,3.4197,3.4197,3.4197,3.4197,3.4197,3.4197,3.4197,3.4036,3.378,3.3611,3.3229,3.2781,3.2638,3.2506,3.2476,3.2827,3.374,3.488,3.6075,3.6691,3.7007,3.7007,3.7007,3.6968,3.6788,3.6468,3.6092,3.5727,3.5385,3.5095,3.4947,3.4899,3.4899,3.4899,3.4899,3.4923,3.4994,3.4947,3.4923,3.4994,3.4947,3.4899,3.4899,3.4899,3.4899,3.4899,3.4899,3.4899,3.4899,3.497,3.5018,3.5088,3.5088,3.5065,3.4994,3.4582,3.4194,3.3914,3.3829,3.3333,3.2477,3.345,3.355,0.0,0.0,0.0,0.0,0.0,2.8201,0.0,0.0,0.0,2.9285,2.939,0.0,0.0,0.0,0.0,3.0336,0.0,0.0,0.0,3.0544,0.0,3.0604,3.0604,3.0929,3.1815,3.1255,3.0834,3.083,3.0834,3.0776,3.0617,3.0432,3.0261,3.0109,3.0626,3.1287,3.2086,3.227,3.3074,3.4517,3.3788,3.3792,3.4427,3.434,3.4316,3.4316,3.4245,3.4221,3.4221,3.4209,3.4197,3.4197,3.4197,3.4197,3.4197,3.4197,3.4061,3.3855,3.3748,3.3346,3.2892,3.2765,3.2661,3.2774,3.367,3.4811,3.5968,3.6759,3.7007,3.7007,3.7007,3.7007,3.7007,3.7007,3.6731,3.6423,3.6139,3.5771,3.543,3.5195,3.5125,3.5071,3.497,3.4947,3.4994,3.5128,3.5018,3.497,3.5105,3.497,3.4899,3.4899,3.4899,3.4923,3.4947,3.4923,3.4923,3.497,3.497,3.5065,3.5245,3.5175,3.5088,3.5088,3.4994,3.4947,3.4947,3.4923,3.4267,3.3095,3.3833,3.4054,0.0,0.0,0.0,0.0,2.7547,0.0,0.0,0.0,2.7979,2.9007,0.0,0.0,0.0,0.0,0.0,0.0,0.0,0.0,3.0477,3.052,3.0539,3.0597,3.0602,3.0942,3.1815,3.1811,3.1724,3.1681,3.1719,3.1414,3.0636,3.1015,3.0899,3.0128,3.0626,3.1287,3.2086,3.2864,3.3709,3.4602,3.4423,3.4401,3.4484,3.4427,3.4386,3.4374,3.4316,3.4293,3.4281,3.4221,3.4197,3.4197,3.4197,3.4197,3.4197,3.4197,3.4185,3.4086,3.3532,3.3306,3.3157,3.2623,3.2862,3.3652,3.509,3.5652,3.5968,3.6759,3.7007,3.7007,3.7007,3.7007,3.7007,3.7007,3.6731,3.6527,3.6655,3.6249,3.5868,3.602,3.5912,3.5638,3.5158,3.5065,3.5128,3.5268,3.5175,3.5065,3.5088,3.497,3.4899,3.4899,3.4899,3.4947,3.5065,3.497,3.4994,3.5245,3.5245,3.5222,3.5128,3.5105,3.5088,3.5088,3.5105,3.5065,3.5065,3.497,3.4492,3.3713,3.4442,3.4489,0.0,0.0,0.0,0.0,0.0,0.0,2.8031,0.0,2.8092,0.0,0.0,0.0,0.0,0.0,0.0,0.0,3.0095,0.0,0.0,0.0,3.0492,0.0,0.0,0.0,3.1103,3.2028,3.2363,3.1835,3.1859,3.1913,3.1923,3.2037,3.1878,3.1456,3.2034,3.2507,3.2856,3.3682,3.4264,3.4602,3.4561,3.455,3.455,3.4495,3.4461,3.4461,3.4393,3.4351,3.4351,3.4328,3.4316,3.4316,3.4316,3.4293,3.4257,3.4305,3.4197,3.3998,3.373,3.3669,3.3711,3.3741,3.4231,3.4969,3.5732,3.6223,3.6605,3.7055,3.7085,3.7027,3.7143,3.7085,3.7027,3.7143,3.693,3.6693,3.6776,3.6501,3.6281,3.6364,3.6302,3.6197,3.6062,3.5677,3.5441,3.5611,3.535,3.5128,3.5198,3.531,3.527,3.5041,3.5293,3.5339,3.5018,3.5065,3.5152,3.5175,3.5331,3.5314,3.5105,3.5245,3.5308,3.5222,3.5152,3.5088,3.5088,3.497,3.4733,3.4435,3.475,3.4757,2.4758,0.0,0.0,0.0,0.0,0.0,0.0,0.0,0.0,0.0,0.0,0.0,0.0,0.0,0.0,0.0,0.0,3.0007,0.0,3.0319,0.0,0.0,0.0,0.0,0.0,3.2192,3.2604,3.2193,3.2208,3.2429,3.2885,3.2941,3.2781,3.2408,3.3041,3.339,3.339,3.4189,3.4612,3.4612,3.4612,3.4612,3.4602,3.4539,3.4528,3.4517,3.4461,3.4439,3.4439,3.4416,3.4386,3.4397,3.4427,3.4535,3.4687,3.4479,3.4358,3.4265,3.4186,3.4247,3.4439,3.4995,3.554,3.6035,3.6414,3.6781,3.7124,3.7259,3.7201,3.7124,3.7259,3.7239,3.7184,3.7353,3.7203,3.7032,3.7089,3.6939,3.6825,3.6867,3.6827,3.6845,3.6999,3.6399,3.5968,3.6165,3.5798,3.5566,3.5655,3.5825,3.5808,3.5504,3.571,3.5688,3.5264,3.5251,3.5245,3.5222,3.54,3.5423,3.5222,3.54,3.5446,3.5291,3.5198,3.5152,3.5088,3.497,3.4899,3.4899,3.4899,3.4899,0.0,0.0,0.0,2.6141,0.0,0.0,0.0,0.0,2.8202,0.0,0.0,0.0,0.0,0.0,0.0,0.0,0.0,0.0,0.0,0.0,0.0,0.0,0.0,0.0,0.0,3.2393,3.2245,3.2992,3.3069,3.3009,3.2904,3.3504,3.3399,3.2426,3.3041,3.339,3.339,3.4189,3.4612,3.4612,3.4612,3.4612,3.4612,3.4602,3.4602,3.4583,3.4528,3.4495,3.4495,3.4439,3.4386,3.4416,3.4473,3.5001,3.5644,3.4726,3.476,3.5219,3.488,3.4971,3.5381,3.6114,3.6363,3.6524,3.7309,3.7429,3.7278,3.7297,3.7314,3.7278,3.7297,3.7447,3.7577,3.7594,3.7577,3.7631,3.7828,3.7703,3.7613,3.7828,3.7703,3.7631,3.7828,3.7207,3.6706,3.686,3.6744,3.6646,3.6649,3.6551,3.6452,3.647,3.6007,3.5803,3.6032,3.547,3.5222,3.5469,3.5492,3.5492,3.5492,3.5492,3.5446,3.5291,3.5308,3.5222,3.5088,3.497,3.4899,3.4899,3.4899,3.4899,2.5005,2.5497,2.5998,2.5888,0.0,0.0,0.0,0.0,0.0,0.0,0.0,0.0,0.0,0.0,0.0,0.0,0.0,0.0,0.0,0.0,0.0,0.0,0.0,0.0,0.0,0.0,3.2099,3.2906,3.2884,3.3245,3.4164,3.4428,3.433,3.386,3.407,3.4189,3.4189,3.4451,3.4612,3.4612,3.4612,3.4612,3.4612,3.4612,3.4612,3.4602,3.4591,3.458,3.4561,3.4539,3.4528,3.4584,3.5188,3.5601,3.5826,3.5503,3.5683,3.6088,3.5965,3.5978,3.6114,3.6789,3.7093,3.7274,3.7685,3.7649,3.7539,3.7649,3.7594,3.7539,3.7649,3.7649,3.7631,3.7775,3.7811,3.7828,3.7881,3.7951,3.8021,3.809,3.8038,3.8021,3.809,3.788,3.7578,3.721,3.6904,3.6706,3.6706,3.6888,3.6927,3.6669,3.6666,3.6501,3.6015,3.56,3.5383,3.5492,3.5543,3.5543,3.5492,3.5543,3.5549,3.5503,3.5383,3.5268,3.5222,3.4994,3.4899,3.4899,3.4899,3.4899,2.5146,2.5478,2.5862,2.6161,2.6664,2.7131,2.7349,0.0,2.8763,0.0,0.0,0.0,0.0,0.0,0.0,0.0,0.0,0.0,0.0,3.0011,0.0,0.0,0.0,0.0,0.0,0.0,3.1792,3.3152,3.3183,0.0,0.0,3.5164,3.5094,3.4612,3.4612,3.4612,3.4612,3.4612,3.4612,3.4612,3.4612,3.4612,3.4612,3.4612,3.4612,3.4612,3.4612,3.4612,3.4612,3.4612,3.4612,3.4677,3.5559,3.6066,3.6329,3.6329,3.6565,3.6916,3.7144,3.714,3.7111,3.7506,3.7703,3.7828,3.7969,3.7864,3.7721,3.7864,3.7811,3.7739,3.7864,3.7864,3.7846,3.7969,3.8021,3.8021,3.8021,3.8124,3.8209,3.8209,3.8209,3.8209,3.8209,3.8209,3.8071,3.7685,3.7414,3.7228,3.7228,3.7469,3.7523,3.7247,3.7228,3.6943,3.6236,3.6075,3.6002,3.6002,3.5893,3.5822,3.5773,3.5667,3.5577,3.5571,3.5429,3.5354,3.5291,3.5065,3.497,3.497,3.4923,3.4899]}]]